<?xml version="1.0" encoding="UTF-8" standalone="no" ?>
<gpx xmlns="http://www.topografix.com/GPX/1/1" xmlns:xsi="http://www.w3.org/2001/XMLSchema-instance" xsi:schemaLocation="http://www.topografix.com/GPX/1/1 http://www.topografix.com/GPX/1/1/gpx.xsd" version="1.1" creator="VisuGPX - https://www.visugpx.com">
  <metadata>
    <name>64 - PEDESTRE - Urdos - Lac d'Arlet depuis centrale électrique d'Estaens</name>
    <desc><![CDATA[Beau temps sortie tranquille]]></desc>
  </metadata>
  <trk>
    <name><![CDATA[ACTIVE LOG 001]]></name>
    <trkseg>
      <trkpt lat="42.81416" lon="-0.57984">
        <ele>1275.325928</ele>
        <time>2012-07-26T07:28:48Z</time>
      </trkpt>
      <trkpt lat="42.81415" lon="-0.57983">
        <ele>1275.325928</ele>
        <time>2012-07-26T07:28:49Z</time>
      </trkpt>
      <trkpt lat="42.81415" lon="-0.57983">
        <ele>1275.806641</ele>
        <time>2012-07-26T07:28:50Z</time>
      </trkpt>
      <trkpt lat="42.81422" lon="-0.57983">
        <ele>1275.325928</ele>
        <time>2012-07-26T07:29:13Z</time>
      </trkpt>
      <trkpt lat="42.81412" lon="-0.57994">
        <ele>1275.806641</ele>
        <time>2012-07-26T07:29:30Z</time>
      </trkpt>
      <trkpt lat="42.81399" lon="-0.57999">
        <ele>1278.690918</ele>
        <time>2012-07-26T07:29:45Z</time>
      </trkpt>
      <trkpt lat="42.81388" lon="-0.58012">
        <ele>1280.613525</ele>
        <time>2012-07-26T07:30:03Z</time>
      </trkpt>
      <trkpt lat="42.814" lon="-0.58021">
        <ele>1282.05542</ele>
        <time>2012-07-26T07:30:17Z</time>
      </trkpt>
      <trkpt lat="42.8142" lon="-0.58015">
        <ele>1282.536133</ele>
        <time>2012-07-26T07:30:37Z</time>
      </trkpt>
      <trkpt lat="42.81437" lon="-0.58002">
        <ele>1283.016602</ele>
        <time>2012-07-26T07:30:54Z</time>
      </trkpt>
      <trkpt lat="42.81447" lon="-0.57982">
        <ele>1285.419922</ele>
        <time>2012-07-26T07:31:12Z</time>
      </trkpt>
      <trkpt lat="42.81459" lon="-0.57966">
        <ele>1286.861816</ele>
        <time>2012-07-26T07:31:28Z</time>
      </trkpt>
      <trkpt lat="42.81466" lon="-0.57952">
        <ele>1288.303955</ele>
        <time>2012-07-26T07:31:42Z</time>
      </trkpt>
      <trkpt lat="42.81477" lon="-0.5794">
        <ele>1289.74585</ele>
        <time>2012-07-26T07:31:58Z</time>
      </trkpt>
      <trkpt lat="42.8149" lon="-0.57925">
        <ele>1290.226562</ele>
        <time>2012-07-26T07:32:15Z</time>
      </trkpt>
      <trkpt lat="42.81503" lon="-0.57913">
        <ele>1292.630127</ele>
        <time>2012-07-26T07:32:33Z</time>
      </trkpt>
      <trkpt lat="42.81517" lon="-0.57907">
        <ele>1294.55249</ele>
        <time>2012-07-26T07:32:48Z</time>
      </trkpt>
      <trkpt lat="42.81527" lon="-0.57897">
        <ele>1295.033203</ele>
        <time>2012-07-26T07:33:01Z</time>
      </trkpt>
      <trkpt lat="42.81531" lon="-0.57892">
        <ele>1294.55249</ele>
        <time>2012-07-26T07:33:07Z</time>
      </trkpt>
      <trkpt lat="42.81545" lon="-0.5788">
        <ele>1295.994629</ele>
        <time>2012-07-26T07:33:21Z</time>
      </trkpt>
      <trkpt lat="42.81557" lon="-0.5787">
        <ele>1297.917236</ele>
        <time>2012-07-26T07:33:36Z</time>
      </trkpt>
      <trkpt lat="42.81567" lon="-0.57873">
        <ele>1300.801025</ele>
        <time>2012-07-26T07:33:53Z</time>
      </trkpt>
      <trkpt lat="42.81566" lon="-0.57878">
        <ele>1300.801025</ele>
        <time>2012-07-26T07:33:58Z</time>
      </trkpt>
      <trkpt lat="42.81549" lon="-0.57892">
        <ele>1302.24292</ele>
        <time>2012-07-26T07:34:17Z</time>
      </trkpt>
      <trkpt lat="42.81536" lon="-0.57908">
        <ele>1302.723633</ele>
        <time>2012-07-26T07:34:34Z</time>
      </trkpt>
      <trkpt lat="42.81522" lon="-0.57926">
        <ele>1303.685059</ele>
        <time>2012-07-26T07:34:52Z</time>
      </trkpt>
      <trkpt lat="42.81511" lon="-0.57949">
        <ele>1305.607666</ele>
        <time>2012-07-26T07:35:11Z</time>
      </trkpt>
      <trkpt lat="42.81501" lon="-0.57967">
        <ele>1306.568848</ele>
        <time>2012-07-26T07:35:27Z</time>
      </trkpt>
      <trkpt lat="42.81497" lon="-0.57977">
        <ele>1307.049561</ele>
        <time>2012-07-26T07:35:36Z</time>
      </trkpt>
      <trkpt lat="42.81492" lon="-0.57997">
        <ele>1309.933594</ele>
        <time>2012-07-26T07:35:53Z</time>
      </trkpt>
      <trkpt lat="42.81491" lon="-0.58015">
        <ele>1312.817627</ele>
        <time>2012-07-26T07:36:08Z</time>
      </trkpt>
      <trkpt lat="42.81488" lon="-0.58021">
        <ele>1313.29834</ele>
        <time>2012-07-26T07:36:13Z</time>
      </trkpt>
      <trkpt lat="42.81481" lon="-0.58039">
        <ele>1313.778809</ele>
        <time>2012-07-26T07:36:30Z</time>
      </trkpt>
      <trkpt lat="42.81479" lon="-0.58061">
        <ele>1317.143555</ele>
        <time>2012-07-26T07:36:47Z</time>
      </trkpt>
      <trkpt lat="42.81474" lon="-0.58084">
        <ele>1318.585449</ele>
        <time>2012-07-26T07:37:05Z</time>
      </trkpt>
      <trkpt lat="42.81464" lon="-0.58106">
        <ele>1319.546875</ele>
        <time>2012-07-26T07:37:23Z</time>
      </trkpt>
      <trkpt lat="42.81456" lon="-0.5813">
        <ele>1321.469238</ele>
        <time>2012-07-26T07:37:43Z</time>
      </trkpt>
      <trkpt lat="42.81453" lon="-0.58152">
        <ele>1323.39209</ele>
        <time>2012-07-26T07:38:00Z</time>
      </trkpt>
      <trkpt lat="42.81447" lon="-0.58168">
        <ele>1324.834229</ele>
        <time>2012-07-26T07:38:13Z</time>
      </trkpt>
      <trkpt lat="42.81432" lon="-0.58179">
        <ele>1325.79541</ele>
        <time>2012-07-26T07:38:30Z</time>
      </trkpt>
      <trkpt lat="42.81419" lon="-0.5819">
        <ele>1326.276123</ele>
        <time>2012-07-26T07:38:46Z</time>
      </trkpt>
      <trkpt lat="42.81403" lon="-0.58208">
        <ele>1328.19873</ele>
        <time>2012-07-26T07:39:05Z</time>
      </trkpt>
      <trkpt lat="42.81382" lon="-0.58221">
        <ele>1330.121338</ele>
        <time>2012-07-26T07:39:27Z</time>
      </trkpt>
      <trkpt lat="42.81376" lon="-0.58226">
        <ele>1330.121338</ele>
        <time>2012-07-26T07:39:35Z</time>
      </trkpt>
      <trkpt lat="42.81373" lon="-0.5823">
        <ele>1331.082764</ele>
        <time>2012-07-26T07:39:39Z</time>
      </trkpt>
      <trkpt lat="42.81372" lon="-0.58235">
        <ele>1331.563232</ele>
        <time>2012-07-26T07:39:43Z</time>
      </trkpt>
      <trkpt lat="42.81376" lon="-0.58245">
        <ele>1333.005127</ele>
        <time>2012-07-26T07:39:50Z</time>
      </trkpt>
      <trkpt lat="42.81393" lon="-0.58247">
        <ele>1334.927979</ele>
        <time>2012-07-26T07:40:08Z</time>
      </trkpt>
      <trkpt lat="42.81406" lon="-0.58247">
        <ele>1336.850342</ele>
        <time>2012-07-26T07:40:26Z</time>
      </trkpt>
      <trkpt lat="42.81394" lon="-0.58255">
        <ele>1339.253662</ele>
        <time>2012-07-26T07:40:42Z</time>
      </trkpt>
      <trkpt lat="42.81391" lon="-0.58261">
        <ele>1339.734375</ele>
        <time>2012-07-26T07:40:49Z</time>
      </trkpt>
      <trkpt lat="42.81387" lon="-0.58273">
        <ele>1341.657227</ele>
        <time>2012-07-26T07:41:04Z</time>
      </trkpt>
      <trkpt lat="42.81382" lon="-0.58284">
        <ele>1345.502441</ele>
        <time>2012-07-26T07:41:16Z</time>
      </trkpt>
      <trkpt lat="42.81382" lon="-0.58296">
        <ele>1345.983154</ele>
        <time>2012-07-26T07:41:27Z</time>
      </trkpt>
      <trkpt lat="42.81374" lon="-0.58307">
        <ele>1348.866943</ele>
        <time>2012-07-26T07:41:44Z</time>
      </trkpt>
      <trkpt lat="42.81374" lon="-0.58313">
        <ele>1349.347656</ele>
        <time>2012-07-26T07:42:03Z</time>
      </trkpt>
      <trkpt lat="42.81378" lon="-0.5832">
        <ele>1350.789551</ele>
        <time>2012-07-26T07:42:26Z</time>
      </trkpt>
      <trkpt lat="42.81387" lon="-0.58323">
        <ele>1352.712158</ele>
        <time>2012-07-26T07:42:40Z</time>
      </trkpt>
      <trkpt lat="42.81395" lon="-0.58327">
        <ele>1354.634766</ele>
        <time>2012-07-26T07:42:56Z</time>
      </trkpt>
      <trkpt lat="42.8139" lon="-0.5833">
        <ele>1357.999756</ele>
        <time>2012-07-26T07:43:09Z</time>
      </trkpt>
      <trkpt lat="42.81389" lon="-0.58338">
        <ele>1359.44165</ele>
        <time>2012-07-26T07:43:21Z</time>
      </trkpt>
      <trkpt lat="42.81384" lon="-0.58342">
        <ele>1361.844971</ele>
        <time>2012-07-26T07:43:37Z</time>
      </trkpt>
      <trkpt lat="42.81378" lon="-0.58349">
        <ele>1362.325439</ele>
        <time>2012-07-26T07:43:51Z</time>
      </trkpt>
      <trkpt lat="42.81378" lon="-0.58363">
        <ele>1363.767334</ele>
        <time>2012-07-26T07:44:05Z</time>
      </trkpt>
      <trkpt lat="42.8137" lon="-0.58367">
        <ele>1365.690186</ele>
        <time>2012-07-26T07:44:17Z</time>
      </trkpt>
      <trkpt lat="42.81362" lon="-0.58371">
        <ele>1367.612549</ele>
        <time>2012-07-26T07:44:31Z</time>
      </trkpt>
      <trkpt lat="42.81352" lon="-0.58372">
        <ele>1370.496582</ele>
        <time>2012-07-26T07:44:47Z</time>
      </trkpt>
      <trkpt lat="42.8134" lon="-0.58381">
        <ele>1373.380859</ele>
        <time>2012-07-26T07:45:05Z</time>
      </trkpt>
      <trkpt lat="42.8133" lon="-0.58385">
        <ele>1375.783936</ele>
        <time>2012-07-26T07:45:22Z</time>
      </trkpt>
      <trkpt lat="42.81318" lon="-0.58398">
        <ele>1378.667969</ele>
        <time>2012-07-26T07:45:41Z</time>
      </trkpt>
      <trkpt lat="42.81314" lon="-0.58404">
        <ele>1379.148438</ele>
        <time>2012-07-26T07:45:58Z</time>
      </trkpt>
      <trkpt lat="42.8131" lon="-0.58415">
        <ele>1381.071289</ele>
        <time>2012-07-26T07:46:14Z</time>
      </trkpt>
      <trkpt lat="42.81312" lon="-0.58424">
        <ele>1382.513184</ele>
        <time>2012-07-26T07:46:32Z</time>
      </trkpt>
      <trkpt lat="42.81315" lon="-0.58437">
        <ele>1382.993652</ele>
        <time>2012-07-26T07:46:59Z</time>
      </trkpt>
      <trkpt lat="42.81312" lon="-0.58457">
        <ele>1384.916504</ele>
        <time>2012-07-26T07:47:18Z</time>
      </trkpt>
      <trkpt lat="42.81307" lon="-0.5847">
        <ele>1388.761963</ele>
        <time>2012-07-26T07:47:31Z</time>
      </trkpt>
      <trkpt lat="42.81302" lon="-0.58488">
        <ele>1390.684326</ele>
        <time>2012-07-26T07:47:50Z</time>
      </trkpt>
      <trkpt lat="42.813" lon="-0.58499">
        <ele>1393.568359</ele>
        <time>2012-07-26T07:48:02Z</time>
      </trkpt>
      <trkpt lat="42.81299" lon="-0.58512">
        <ele>1397.413574</ele>
        <time>2012-07-26T07:48:17Z</time>
      </trkpt>
      <trkpt lat="42.81299" lon="-0.58516">
        <ele>1397.413574</ele>
        <time>2012-07-26T07:48:33Z</time>
      </trkpt>
      <trkpt lat="42.81298" lon="-0.58521">
        <ele>1398.374756</ele>
        <time>2012-07-26T07:49:15Z</time>
      </trkpt>
      <trkpt lat="42.81294" lon="-0.58536">
        <ele>1401.739502</ele>
        <time>2012-07-26T07:49:33Z</time>
      </trkpt>
      <trkpt lat="42.8129" lon="-0.5855">
        <ele>1404.623535</ele>
        <time>2012-07-26T07:49:50Z</time>
      </trkpt>
      <trkpt lat="42.81288" lon="-0.58562">
        <ele>1407.988281</ele>
        <time>2012-07-26T07:50:05Z</time>
      </trkpt>
      <trkpt lat="42.81289" lon="-0.58573">
        <ele>1410.391357</ele>
        <time>2012-07-26T07:50:19Z</time>
      </trkpt>
      <trkpt lat="42.81291" lon="-0.58588">
        <ele>1413.275391</ele>
        <time>2012-07-26T07:50:36Z</time>
      </trkpt>
      <trkpt lat="42.8129" lon="-0.58592">
        <ele>1414.717285</ele>
        <time>2012-07-26T07:50:40Z</time>
      </trkpt>
      <trkpt lat="42.81291" lon="-0.58608">
        <ele>1416.639893</ele>
        <time>2012-07-26T07:51:01Z</time>
      </trkpt>
      <trkpt lat="42.81292" lon="-0.58621">
        <ele>1420.004639</ele>
        <time>2012-07-26T07:51:18Z</time>
      </trkpt>
      <trkpt lat="42.8129" lon="-0.58629">
        <ele>1422.888672</ele>
        <time>2012-07-26T07:51:32Z</time>
      </trkpt>
      <trkpt lat="42.8129" lon="-0.58639">
        <ele>1426.253174</ele>
        <time>2012-07-26T07:51:48Z</time>
      </trkpt>
      <trkpt lat="42.81288" lon="-0.58647">
        <ele>1429.136963</ele>
        <time>2012-07-26T07:51:58Z</time>
      </trkpt>
      <trkpt lat="42.81293" lon="-0.58655">
        <ele>1432.501709</ele>
        <time>2012-07-26T07:52:14Z</time>
      </trkpt>
      <trkpt lat="42.81294" lon="-0.58659">
        <ele>1433.943604</ele>
        <time>2012-07-26T07:52:29Z</time>
      </trkpt>
      <trkpt lat="42.81302" lon="-0.58661">
        <ele>1433.943604</ele>
        <time>2012-07-26T07:52:44Z</time>
      </trkpt>
      <trkpt lat="42.81303" lon="-0.5866">
        <ele>1433.462891</ele>
        <time>2012-07-26T07:53:30Z</time>
      </trkpt>
      <trkpt lat="42.81304" lon="-0.5866">
        <ele>1432.982178</ele>
        <time>2012-07-26T07:54:23Z</time>
      </trkpt>
      <trkpt lat="42.81305" lon="-0.58662">
        <ele>1432.982178</ele>
        <time>2012-07-26T07:54:54Z</time>
      </trkpt>
      <trkpt lat="42.81304" lon="-0.58667">
        <ele>1434.905029</ele>
        <time>2012-07-26T07:55:13Z</time>
      </trkpt>
      <trkpt lat="42.81304" lon="-0.58677">
        <ele>1437.30835</ele>
        <time>2012-07-26T07:55:29Z</time>
      </trkpt>
      <trkpt lat="42.81302" lon="-0.58686">
        <ele>1439.71167</ele>
        <time>2012-07-26T07:55:44Z</time>
      </trkpt>
      <trkpt lat="42.813" lon="-0.58695">
        <ele>1441.153564</ele>
        <time>2012-07-26T07:56:01Z</time>
      </trkpt>
      <trkpt lat="42.81299" lon="-0.58706">
        <ele>1444.037598</ele>
        <time>2012-07-26T07:56:19Z</time>
      </trkpt>
      <trkpt lat="42.81296" lon="-0.58717">
        <ele>1446.921387</ele>
        <time>2012-07-26T07:56:35Z</time>
      </trkpt>
      <trkpt lat="42.813" lon="-0.58724">
        <ele>1450.766602</ele>
        <time>2012-07-26T07:56:51Z</time>
      </trkpt>
      <trkpt lat="42.813" lon="-0.58734">
        <ele>1451.728027</ele>
        <time>2012-07-26T07:57:06Z</time>
      </trkpt>
      <trkpt lat="42.81301" lon="-0.58736">
        <ele>1453.170166</ele>
        <time>2012-07-26T07:57:09Z</time>
      </trkpt>
      <trkpt lat="42.813" lon="-0.58748">
        <ele>1456.534668</ele>
        <time>2012-07-26T07:57:27Z</time>
      </trkpt>
      <trkpt lat="42.81301" lon="-0.58762">
        <ele>1459.89917</ele>
        <time>2012-07-26T07:57:46Z</time>
      </trkpt>
      <trkpt lat="42.81299" lon="-0.58776">
        <ele>1462.783203</ele>
        <time>2012-07-26T07:58:04Z</time>
      </trkpt>
      <trkpt lat="42.81303" lon="-0.58786">
        <ele>1466.147705</ele>
        <time>2012-07-26T07:58:20Z</time>
      </trkpt>
      <trkpt lat="42.81306" lon="-0.58791">
        <ele>1467.5896</ele>
        <time>2012-07-26T07:58:34Z</time>
      </trkpt>
      <trkpt lat="42.81305" lon="-0.58791">
        <ele>1468.070557</ele>
        <time>2012-07-26T07:58:55Z</time>
      </trkpt>
      <trkpt lat="42.81307" lon="-0.58791">
        <ele>1468.070557</ele>
        <time>2012-07-26T07:59:36Z</time>
      </trkpt>
      <trkpt lat="42.81307" lon="-0.58791">
        <ele>1468.070557</ele>
        <time>2012-07-26T08:00:26Z</time>
      </trkpt>
      <trkpt lat="42.81308" lon="-0.58791">
        <ele>1468.070557</ele>
        <time>2012-07-26T08:01:10Z</time>
      </trkpt>
      <trkpt lat="42.81309" lon="-0.58793">
        <ele>1468.070557</ele>
        <time>2012-07-26T08:01:54Z</time>
      </trkpt>
      <trkpt lat="42.81312" lon="-0.58792">
        <ele>1468.070557</ele>
        <time>2012-07-26T08:02:29Z</time>
      </trkpt>
      <trkpt lat="42.81317" lon="-0.58788">
        <ele>1468.070557</ele>
        <time>2012-07-26T08:02:53Z</time>
      </trkpt>
      <trkpt lat="42.8133" lon="-0.58775">
        <ele>1470.473877</ele>
        <time>2012-07-26T08:03:13Z</time>
      </trkpt>
      <trkpt lat="42.81345" lon="-0.5876">
        <ele>1471.915771</ele>
        <time>2012-07-26T08:03:32Z</time>
      </trkpt>
      <trkpt lat="42.81349" lon="-0.58755">
        <ele>1472.396484</ele>
        <time>2012-07-26T08:03:38Z</time>
      </trkpt>
      <trkpt lat="42.81363" lon="-0.58739">
        <ele>1474.799805</ele>
        <time>2012-07-26T08:03:58Z</time>
      </trkpt>
      <trkpt lat="42.81377" lon="-0.58729">
        <ele>1477.683594</ele>
        <time>2012-07-26T08:04:12Z</time>
      </trkpt>
      <trkpt lat="42.8139" lon="-0.58715">
        <ele>1479.606201</ele>
        <time>2012-07-26T08:04:30Z</time>
      </trkpt>
      <trkpt lat="42.81397" lon="-0.58706">
        <ele>1481.528809</ele>
        <time>2012-07-26T08:04:44Z</time>
      </trkpt>
      <trkpt lat="42.81405" lon="-0.587">
        <ele>1482.970703</ele>
        <time>2012-07-26T08:04:56Z</time>
      </trkpt>
      <trkpt lat="42.81417" lon="-0.58691">
        <ele>1484.893799</ele>
        <time>2012-07-26T08:05:10Z</time>
      </trkpt>
      <trkpt lat="42.81423" lon="-0.58685">
        <ele>1486.816162</ele>
        <time>2012-07-26T08:05:19Z</time>
      </trkpt>
      <trkpt lat="42.81429" lon="-0.58682">
        <ele>1486.816162</ele>
        <time>2012-07-26T08:05:31Z</time>
      </trkpt>
      <trkpt lat="42.81439" lon="-0.58685">
        <ele>1488.739014</ele>
        <time>2012-07-26T08:05:42Z</time>
      </trkpt>
      <trkpt lat="42.81454" lon="-0.58685">
        <ele>1489.700195</ele>
        <time>2012-07-26T08:05:58Z</time>
      </trkpt>
      <trkpt lat="42.81468" lon="-0.58677">
        <ele>1490.661377</ele>
        <time>2012-07-26T08:06:14Z</time>
      </trkpt>
      <trkpt lat="42.81483" lon="-0.5866">
        <ele>1491.14209</ele>
        <time>2012-07-26T08:06:31Z</time>
      </trkpt>
      <trkpt lat="42.81496" lon="-0.58644">
        <ele>1491.622803</ele>
        <time>2012-07-26T08:06:47Z</time>
      </trkpt>
      <trkpt lat="42.81515" lon="-0.58634">
        <ele>1492.584229</ele>
        <time>2012-07-26T08:07:04Z</time>
      </trkpt>
      <trkpt lat="42.81523" lon="-0.58613">
        <ele>1493.54541</ele>
        <time>2012-07-26T08:07:21Z</time>
      </trkpt>
      <trkpt lat="42.8153" lon="-0.58597">
        <ele>1494.506592</ele>
        <time>2012-07-26T08:07:35Z</time>
      </trkpt>
      <trkpt lat="42.81543" lon="-0.58581">
        <ele>1494.506592</ele>
        <time>2012-07-26T08:07:48Z</time>
      </trkpt>
      <trkpt lat="42.81559" lon="-0.58564">
        <ele>1495.468018</ele>
        <time>2012-07-26T08:08:06Z</time>
      </trkpt>
      <trkpt lat="42.81574" lon="-0.58555">
        <ele>1496.429443</ele>
        <time>2012-07-26T08:08:24Z</time>
      </trkpt>
      <trkpt lat="42.81588" lon="-0.5854">
        <ele>1497.390625</ele>
        <time>2012-07-26T08:08:38Z</time>
      </trkpt>
      <trkpt lat="42.81605" lon="-0.58528">
        <ele>1497.871338</ele>
        <time>2012-07-26T08:08:56Z</time>
      </trkpt>
      <trkpt lat="42.81621" lon="-0.58523">
        <ele>1498.83252</ele>
        <time>2012-07-26T08:09:12Z</time>
      </trkpt>
      <trkpt lat="42.81636" lon="-0.58515">
        <ele>1499.313232</ele>
        <time>2012-07-26T08:09:26Z</time>
      </trkpt>
      <trkpt lat="42.8165" lon="-0.58505">
        <ele>1499.313232</ele>
        <time>2012-07-26T08:09:39Z</time>
      </trkpt>
      <trkpt lat="42.81667" lon="-0.58493">
        <ele>1498.83252</ele>
        <time>2012-07-26T08:09:55Z</time>
      </trkpt>
      <trkpt lat="42.81686" lon="-0.58473">
        <ele>1497.390625</ele>
        <time>2012-07-26T08:10:14Z</time>
      </trkpt>
      <trkpt lat="42.81692" lon="-0.58468">
        <ele>1497.390625</ele>
        <time>2012-07-26T08:10:20Z</time>
      </trkpt>
      <trkpt lat="42.81701" lon="-0.58454">
        <ele>1496.429443</ele>
        <time>2012-07-26T08:10:33Z</time>
      </trkpt>
      <trkpt lat="42.81716" lon="-0.58439">
        <ele>1495.94873</ele>
        <time>2012-07-26T08:10:49Z</time>
      </trkpt>
      <trkpt lat="42.81726" lon="-0.58439">
        <ele>1496.909912</ele>
        <time>2012-07-26T08:11:00Z</time>
      </trkpt>
      <trkpt lat="42.81737" lon="-0.58444">
        <ele>1497.390625</ele>
        <time>2012-07-26T08:11:12Z</time>
      </trkpt>
      <trkpt lat="42.81744" lon="-0.58445">
        <ele>1498.83252</ele>
        <time>2012-07-26T08:11:23Z</time>
      </trkpt>
      <trkpt lat="42.81761" lon="-0.5845">
        <ele>1502.197266</ele>
        <time>2012-07-26T08:11:36Z</time>
      </trkpt>
      <trkpt lat="42.81762" lon="-0.58449">
        <ele>1502.197266</ele>
        <time>2012-07-26T08:11:37Z</time>
      </trkpt>
      <trkpt lat="42.81773" lon="-0.5845">
        <ele>1504.120117</ele>
        <time>2012-07-26T08:11:50Z</time>
      </trkpt>
      <trkpt lat="42.81784" lon="-0.58452">
        <ele>1507.484619</ele>
        <time>2012-07-26T08:12:10Z</time>
      </trkpt>
      <trkpt lat="42.81801" lon="-0.58457">
        <ele>1509.887695</ele>
        <time>2012-07-26T08:12:30Z</time>
      </trkpt>
      <trkpt lat="42.81824" lon="-0.5846">
        <ele>1513.252441</ele>
        <time>2012-07-26T08:13:02Z</time>
      </trkpt>
      <trkpt lat="42.81833" lon="-0.58448">
        <ele>1514.694336</ele>
        <time>2012-07-26T08:13:18Z</time>
      </trkpt>
      <trkpt lat="42.81843" lon="-0.5844">
        <ele>1516.136475</ele>
        <time>2012-07-26T08:13:32Z</time>
      </trkpt>
      <trkpt lat="42.81851" lon="-0.58436">
        <ele>1516.617188</ele>
        <time>2012-07-26T08:13:45Z</time>
      </trkpt>
      <trkpt lat="42.81862" lon="-0.58433">
        <ele>1518.539795</ele>
        <time>2012-07-26T08:14:04Z</time>
      </trkpt>
      <trkpt lat="42.81855" lon="-0.58437">
        <ele>1520.462402</ele>
        <time>2012-07-26T08:14:19Z</time>
      </trkpt>
      <trkpt lat="42.81851" lon="-0.58446">
        <ele>1521.904297</ele>
        <time>2012-07-26T08:14:33Z</time>
      </trkpt>
      <trkpt lat="42.81858" lon="-0.5845">
        <ele>1525.268799</ele>
        <time>2012-07-26T08:14:46Z</time>
      </trkpt>
      <trkpt lat="42.8187" lon="-0.58447">
        <ele>1527.19165</ele>
        <time>2012-07-26T08:15:03Z</time>
      </trkpt>
      <trkpt lat="42.8188" lon="-0.58447">
        <ele>1529.594727</ele>
        <time>2012-07-26T08:15:18Z</time>
      </trkpt>
      <trkpt lat="42.81891" lon="-0.58428">
        <ele>1531.517334</ele>
        <time>2012-07-26T08:15:40Z</time>
      </trkpt>
      <trkpt lat="42.81897" lon="-0.58417">
        <ele>1534.401611</ele>
        <time>2012-07-26T08:15:57Z</time>
      </trkpt>
      <trkpt lat="42.81906" lon="-0.58413">
        <ele>1537.766113</ele>
        <time>2012-07-26T08:16:13Z</time>
      </trkpt>
      <trkpt lat="42.81912" lon="-0.58404">
        <ele>1540.169434</ele>
        <time>2012-07-26T08:16:26Z</time>
      </trkpt>
      <trkpt lat="42.81919" lon="-0.58397">
        <ele>1542.092041</ele>
        <time>2012-07-26T08:16:41Z</time>
      </trkpt>
      <trkpt lat="42.81928" lon="-0.58387">
        <ele>1543.533936</ele>
        <time>2012-07-26T08:16:58Z</time>
      </trkpt>
      <trkpt lat="42.81936" lon="-0.58381">
        <ele>1544.495117</ele>
        <time>2012-07-26T08:17:12Z</time>
      </trkpt>
      <trkpt lat="42.81945" lon="-0.58378">
        <ele>1545.937256</ele>
        <time>2012-07-26T08:17:27Z</time>
      </trkpt>
      <trkpt lat="42.8195" lon="-0.58379">
        <ele>1549.302002</ele>
        <time>2012-07-26T08:17:41Z</time>
      </trkpt>
      <trkpt lat="42.81956" lon="-0.58378">
        <ele>1552.185791</ele>
        <time>2012-07-26T08:17:56Z</time>
      </trkpt>
      <trkpt lat="42.81962" lon="-0.58376">
        <ele>1553.147217</ele>
        <time>2012-07-26T08:18:07Z</time>
      </trkpt>
      <trkpt lat="42.81974" lon="-0.58372">
        <ele>1556.992432</ele>
        <time>2012-07-26T08:18:26Z</time>
      </trkpt>
      <trkpt lat="42.81975" lon="-0.58371">
        <ele>1557.473145</ele>
        <time>2012-07-26T08:18:27Z</time>
      </trkpt>
      <trkpt lat="42.8198" lon="-0.58354">
        <ele>1557.953857</ele>
        <time>2012-07-26T08:18:44Z</time>
      </trkpt>
      <trkpt lat="42.81988" lon="-0.58348">
        <ele>1561.318359</ele>
        <time>2012-07-26T08:19:36Z</time>
      </trkpt>
      <trkpt lat="42.81995" lon="-0.58341">
        <ele>1563.721436</ele>
        <time>2012-07-26T08:19:54Z</time>
      </trkpt>
      <trkpt lat="42.81992" lon="-0.5835">
        <ele>1565.163818</ele>
        <time>2012-07-26T08:20:11Z</time>
      </trkpt>
      <trkpt lat="42.82001" lon="-0.58352">
        <ele>1568.047607</ele>
        <time>2012-07-26T08:20:22Z</time>
      </trkpt>
      <trkpt lat="42.82002" lon="-0.58352">
        <ele>1569.009033</ele>
        <time>2012-07-26T08:20:24Z</time>
      </trkpt>
      <trkpt lat="42.82012" lon="-0.58352">
        <ele>1570.931641</ele>
        <time>2012-07-26T08:20:40Z</time>
      </trkpt>
      <trkpt lat="42.82021" lon="-0.58354">
        <ele>1572.373535</ele>
        <time>2012-07-26T08:20:52Z</time>
      </trkpt>
      <trkpt lat="42.82024" lon="-0.58358">
        <ele>1575.738037</ele>
        <time>2012-07-26T08:21:04Z</time>
      </trkpt>
      <trkpt lat="42.82024" lon="-0.58359">
        <ele>1577.660645</ele>
        <time>2012-07-26T08:21:13Z</time>
      </trkpt>
      <trkpt lat="42.82018" lon="-0.58367">
        <ele>1580.064209</ele>
        <time>2012-07-26T08:21:28Z</time>
      </trkpt>
      <trkpt lat="42.82012" lon="-0.58377">
        <ele>1581.986816</ele>
        <time>2012-07-26T08:21:42Z</time>
      </trkpt>
      <trkpt lat="42.82008" lon="-0.58378">
        <ele>1584.87085</ele>
        <time>2012-07-26T08:21:54Z</time>
      </trkpt>
      <trkpt lat="42.8201" lon="-0.58384">
        <ele>1585.832031</ele>
        <time>2012-07-26T08:21:59Z</time>
      </trkpt>
      <trkpt lat="42.82019" lon="-0.58387">
        <ele>1588.235352</ele>
        <time>2012-07-26T08:22:13Z</time>
      </trkpt>
      <trkpt lat="42.82024" lon="-0.58389">
        <ele>1590.638428</ele>
        <time>2012-07-26T08:22:25Z</time>
      </trkpt>
      <trkpt lat="42.82035" lon="-0.58387">
        <ele>1593.522461</ele>
        <time>2012-07-26T08:22:39Z</time>
      </trkpt>
      <trkpt lat="42.82044" lon="-0.58392">
        <ele>1596.887207</ele>
        <time>2012-07-26T08:22:56Z</time>
      </trkpt>
      <trkpt lat="42.82038" lon="-0.58403">
        <ele>1599.290527</ele>
        <time>2012-07-26T08:23:11Z</time>
      </trkpt>
      <trkpt lat="42.8204" lon="-0.58412">
        <ele>1602.174316</ele>
        <time>2012-07-26T08:23:26Z</time>
      </trkpt>
      <trkpt lat="42.82046" lon="-0.58415">
        <ele>1604.577637</ele>
        <time>2012-07-26T08:23:36Z</time>
      </trkpt>
      <trkpt lat="42.82052" lon="-0.58416">
        <ele>1606.500244</ele>
        <time>2012-07-26T08:23:46Z</time>
      </trkpt>
      <trkpt lat="42.82055" lon="-0.58423">
        <ele>1607.942383</ele>
        <time>2012-07-26T08:23:58Z</time>
      </trkpt>
      <trkpt lat="42.8206" lon="-0.58427">
        <ele>1611.306885</ele>
        <time>2012-07-26T08:24:08Z</time>
      </trkpt>
      <trkpt lat="42.82066" lon="-0.58425">
        <ele>1613.710205</ele>
        <time>2012-07-26T08:24:17Z</time>
      </trkpt>
      <trkpt lat="42.8208" lon="-0.58425">
        <ele>1617.074951</ele>
        <time>2012-07-26T08:24:33Z</time>
      </trkpt>
      <trkpt lat="42.8209" lon="-0.58421">
        <ele>1620.439453</ele>
        <time>2012-07-26T08:24:48Z</time>
      </trkpt>
      <trkpt lat="42.82091" lon="-0.58419">
        <ele>1620.439453</ele>
        <time>2012-07-26T08:24:50Z</time>
      </trkpt>
      <trkpt lat="42.82095" lon="-0.58406">
        <ele>1621.400635</ele>
        <time>2012-07-26T08:25:07Z</time>
      </trkpt>
      <trkpt lat="42.82092" lon="-0.58407">
        <ele>1620.920166</ele>
        <time>2012-07-26T08:25:22Z</time>
      </trkpt>
      <trkpt lat="42.82092" lon="-0.58407">
        <ele>1623.803955</ele>
        <time>2012-07-26T08:33:11Z</time>
      </trkpt>
      <trkpt lat="42.82092" lon="-0.58407">
        <ele>1620.439453</ele>
        <time>2012-07-26T08:34:13Z</time>
      </trkpt>
      <trkpt lat="42.82093" lon="-0.58406">
        <ele>1623.803955</ele>
        <time>2012-07-26T08:38:32Z</time>
      </trkpt>
      <trkpt lat="42.82095" lon="-0.58405">
        <ele>1621.881348</ele>
        <time>2012-07-26T08:39:03Z</time>
      </trkpt>
      <trkpt lat="42.82097" lon="-0.58412">
        <ele>1620.920166</ele>
        <time>2012-07-26T08:39:14Z</time>
      </trkpt>
      <trkpt lat="42.82103" lon="-0.58423">
        <ele>1619.95874</ele>
        <time>2012-07-26T08:39:31Z</time>
      </trkpt>
      <trkpt lat="42.8211" lon="-0.58429">
        <ele>1617.074951</ele>
        <time>2012-07-26T08:39:42Z</time>
      </trkpt>
      <trkpt lat="42.8211" lon="-0.5843">
        <ele>1617.074951</ele>
        <time>2012-07-26T08:39:43Z</time>
      </trkpt>
      <trkpt lat="42.82112" lon="-0.58432">
        <ele>1616.594238</ele>
        <time>2012-07-26T08:39:46Z</time>
      </trkpt>
      <trkpt lat="42.82114" lon="-0.58436">
        <ele>1616.113525</ele>
        <time>2012-07-26T08:39:49Z</time>
      </trkpt>
      <trkpt lat="42.82123" lon="-0.58452">
        <ele>1617.55542</ele>
        <time>2012-07-26T08:40:05Z</time>
      </trkpt>
      <trkpt lat="42.82135" lon="-0.58474">
        <ele>1618.036133</ele>
        <time>2012-07-26T08:40:24Z</time>
      </trkpt>
      <trkpt lat="42.82148" lon="-0.58498">
        <ele>1618.516846</ele>
        <time>2012-07-26T08:40:44Z</time>
      </trkpt>
      <trkpt lat="42.82162" lon="-0.58509">
        <ele>1619.95874</ele>
        <time>2012-07-26T08:41:02Z</time>
      </trkpt>
      <trkpt lat="42.82175" lon="-0.58503">
        <ele>1621.881348</ele>
        <time>2012-07-26T08:41:15Z</time>
      </trkpt>
      <trkpt lat="42.82184" lon="-0.58504">
        <ele>1622.842773</ele>
        <time>2012-07-26T08:41:25Z</time>
      </trkpt>
      <trkpt lat="42.82203" lon="-0.58515">
        <ele>1624.765381</ele>
        <time>2012-07-26T08:41:47Z</time>
      </trkpt>
      <trkpt lat="42.82223" lon="-0.58516">
        <ele>1627.64917</ele>
        <time>2012-07-26T08:42:08Z</time>
      </trkpt>
      <trkpt lat="42.82226" lon="-0.58515">
        <ele>1627.64917</ele>
        <time>2012-07-26T08:42:11Z</time>
      </trkpt>
      <trkpt lat="42.82239" lon="-0.58516">
        <ele>1628.61084</ele>
        <time>2012-07-26T08:42:23Z</time>
      </trkpt>
      <trkpt lat="42.82256" lon="-0.58531">
        <ele>1629.091309</ele>
        <time>2012-07-26T08:42:44Z</time>
      </trkpt>
      <trkpt lat="42.82267" lon="-0.58549">
        <ele>1631.494629</ele>
        <time>2012-07-26T08:43:04Z</time>
      </trkpt>
      <trkpt lat="42.82276" lon="-0.58558">
        <ele>1632.456055</ele>
        <time>2012-07-26T08:43:20Z</time>
      </trkpt>
      <trkpt lat="42.82284" lon="-0.58566">
        <ele>1630.052734</ele>
        <time>2012-07-26T08:43:38Z</time>
      </trkpt>
      <trkpt lat="42.82295" lon="-0.58583">
        <ele>1628.130127</ele>
        <time>2012-07-26T08:43:56Z</time>
      </trkpt>
      <trkpt lat="42.82299" lon="-0.58598">
        <ele>1626.207275</ele>
        <time>2012-07-26T08:44:12Z</time>
      </trkpt>
      <trkpt lat="42.82307" lon="-0.58608">
        <ele>1626.207275</ele>
        <time>2012-07-26T08:44:23Z</time>
      </trkpt>
      <trkpt lat="42.82316" lon="-0.58596">
        <ele>1627.168701</ele>
        <time>2012-07-26T08:44:40Z</time>
      </trkpt>
      <trkpt lat="42.82328" lon="-0.58585">
        <ele>1629.091309</ele>
        <time>2012-07-26T08:44:58Z</time>
      </trkpt>
      <trkpt lat="42.82344" lon="-0.58581">
        <ele>1630.533447</ele>
        <time>2012-07-26T08:45:15Z</time>
      </trkpt>
      <trkpt lat="42.82356" lon="-0.58569">
        <ele>1632.456055</ele>
        <time>2012-07-26T08:45:33Z</time>
      </trkpt>
      <trkpt lat="42.82343" lon="-0.58559">
        <ele>1633.897949</ele>
        <time>2012-07-26T08:45:51Z</time>
      </trkpt>
      <trkpt lat="42.8234" lon="-0.58543">
        <ele>1634.859375</ele>
        <time>2012-07-26T08:46:10Z</time>
      </trkpt>
      <trkpt lat="42.82341" lon="-0.58536">
        <ele>1634.859375</ele>
        <time>2012-07-26T08:46:18Z</time>
      </trkpt>
      <trkpt lat="42.82339" lon="-0.58515">
        <ele>1634.859375</ele>
        <time>2012-07-26T08:46:34Z</time>
      </trkpt>
      <trkpt lat="42.82346" lon="-0.58489">
        <ele>1633.897949</ele>
        <time>2012-07-26T08:46:55Z</time>
      </trkpt>
      <trkpt lat="42.82353" lon="-0.58468">
        <ele>1633.897949</ele>
        <time>2012-07-26T08:47:14Z</time>
      </trkpt>
      <trkpt lat="42.82358" lon="-0.58447">
        <ele>1634.378662</ele>
        <time>2012-07-26T08:47:32Z</time>
      </trkpt>
      <trkpt lat="42.82359" lon="-0.58444">
        <ele>1635.820557</ele>
        <time>2012-07-26T08:47:35Z</time>
      </trkpt>
      <trkpt lat="42.82368" lon="-0.58423">
        <ele>1636.781738</ele>
        <time>2012-07-26T08:47:55Z</time>
      </trkpt>
      <trkpt lat="42.82381" lon="-0.58401">
        <ele>1637.743164</ele>
        <time>2012-07-26T08:48:17Z</time>
      </trkpt>
      <trkpt lat="42.82393" lon="-0.58389">
        <ele>1639.665771</ele>
        <time>2012-07-26T08:48:34Z</time>
      </trkpt>
      <trkpt lat="42.82401" lon="-0.58375">
        <ele>1640.626953</ele>
        <time>2012-07-26T08:48:48Z</time>
      </trkpt>
      <trkpt lat="42.82407" lon="-0.58358">
        <ele>1641.107666</ele>
        <time>2012-07-26T08:49:06Z</time>
      </trkpt>
      <trkpt lat="42.82406" lon="-0.58349">
        <ele>1643.991699</ele>
        <time>2012-07-26T08:49:16Z</time>
      </trkpt>
      <trkpt lat="42.82411" lon="-0.58326">
        <ele>1644.953125</ele>
        <time>2012-07-26T08:49:37Z</time>
      </trkpt>
      <trkpt lat="42.82412" lon="-0.58326">
        <ele>1645.433838</ele>
        <time>2012-07-26T08:49:38Z</time>
      </trkpt>
      <trkpt lat="42.82422" lon="-0.58307">
        <ele>1647.356445</ele>
        <time>2012-07-26T08:49:58Z</time>
      </trkpt>
      <trkpt lat="42.82436" lon="-0.58297">
        <ele>1649.279053</ele>
        <time>2012-07-26T08:50:18Z</time>
      </trkpt>
      <trkpt lat="42.82445" lon="-0.58286">
        <ele>1652.643555</ele>
        <time>2012-07-26T08:50:34Z</time>
      </trkpt>
      <trkpt lat="42.82452" lon="-0.58273">
        <ele>1653.60498</ele>
        <time>2012-07-26T08:50:50Z</time>
      </trkpt>
      <trkpt lat="42.82453" lon="-0.58255">
        <ele>1656.969482</ele>
        <time>2012-07-26T08:51:10Z</time>
      </trkpt>
      <trkpt lat="42.82458" lon="-0.58246">
        <ele>1659.853271</ele>
        <time>2012-07-26T08:51:24Z</time>
      </trkpt>
      <trkpt lat="42.82467" lon="-0.58233">
        <ele>1662.256836</ele>
        <time>2012-07-26T08:51:43Z</time>
      </trkpt>
      <trkpt lat="42.82471" lon="-0.58222">
        <ele>1664.660156</ele>
        <time>2012-07-26T08:51:59Z</time>
      </trkpt>
      <trkpt lat="42.82472" lon="-0.5821">
        <ele>1665.621582</ele>
        <time>2012-07-26T08:52:14Z</time>
      </trkpt>
      <trkpt lat="42.82468" lon="-0.58192">
        <ele>1667.063477</ele>
        <time>2012-07-26T08:52:34Z</time>
      </trkpt>
      <trkpt lat="42.82472" lon="-0.5817">
        <ele>1668.505371</ele>
        <time>2012-07-26T08:52:54Z</time>
      </trkpt>
      <trkpt lat="42.82473" lon="-0.58164">
        <ele>1668.986084</ele>
        <time>2012-07-26T08:52:59Z</time>
      </trkpt>
      <trkpt lat="42.82473" lon="-0.58142">
        <ele>1672.350586</ele>
        <time>2012-07-26T08:53:20Z</time>
      </trkpt>
      <trkpt lat="42.82472" lon="-0.58127">
        <ele>1672.831299</ele>
        <time>2012-07-26T08:53:35Z</time>
      </trkpt>
      <trkpt lat="42.8247" lon="-0.58111">
        <ele>1675.234375</ele>
        <time>2012-07-26T08:53:53Z</time>
      </trkpt>
      <trkpt lat="42.82469" lon="-0.58093">
        <ele>1676.676758</ele>
        <time>2012-07-26T08:54:10Z</time>
      </trkpt>
      <trkpt lat="42.82466" lon="-0.58077">
        <ele>1679.079834</ele>
        <time>2012-07-26T08:54:27Z</time>
      </trkpt>
      <trkpt lat="42.82469" lon="-0.58059">
        <ele>1680.521973</ele>
        <time>2012-07-26T08:54:44Z</time>
      </trkpt>
      <trkpt lat="42.82467" lon="-0.58047">
        <ele>1681.483154</ele>
        <time>2012-07-26T08:54:56Z</time>
      </trkpt>
      <trkpt lat="42.82458" lon="-0.58031">
        <ele>1683.886475</ele>
        <time>2012-07-26T08:55:15Z</time>
      </trkpt>
      <trkpt lat="42.82454" lon="-0.58013">
        <ele>1686.770264</ele>
        <time>2012-07-26T08:55:34Z</time>
      </trkpt>
      <trkpt lat="42.82455" lon="-0.58006">
        <ele>1687.731689</ele>
        <time>2012-07-26T08:55:50Z</time>
      </trkpt>
      <trkpt lat="42.82454" lon="-0.58004">
        <ele>1687.731689</ele>
        <time>2012-07-26T08:56:13Z</time>
      </trkpt>
      <trkpt lat="42.82455" lon="-0.58004">
        <ele>1687.731689</ele>
        <time>2012-07-26T08:56:48Z</time>
      </trkpt>
      <trkpt lat="42.82455" lon="-0.58004">
        <ele>1688.212402</ele>
        <time>2012-07-26T08:57:34Z</time>
      </trkpt>
      <trkpt lat="42.82457" lon="-0.58002">
        <ele>1688.212402</ele>
        <time>2012-07-26T08:57:50Z</time>
      </trkpt>
      <trkpt lat="42.82462" lon="-0.57992">
        <ele>1687.250977</ele>
        <time>2012-07-26T08:58:00Z</time>
      </trkpt>
      <trkpt lat="42.82465" lon="-0.57965">
        <ele>1687.250977</ele>
        <time>2012-07-26T08:58:20Z</time>
      </trkpt>
      <trkpt lat="42.82465" lon="-0.57959">
        <ele>1687.731689</ele>
        <time>2012-07-26T08:58:24Z</time>
      </trkpt>
      <trkpt lat="42.82466" lon="-0.57933">
        <ele>1689.654297</ele>
        <time>2012-07-26T08:58:44Z</time>
      </trkpt>
      <trkpt lat="42.82471" lon="-0.57908">
        <ele>1691.096191</ele>
        <time>2012-07-26T08:59:03Z</time>
      </trkpt>
      <trkpt lat="42.82471" lon="-0.57904">
        <ele>1691.576904</ele>
        <time>2012-07-26T08:59:06Z</time>
      </trkpt>
      <trkpt lat="42.8247" lon="-0.57886">
        <ele>1693.019043</ele>
        <time>2012-07-26T08:59:20Z</time>
      </trkpt>
      <trkpt lat="42.8247" lon="-0.57862">
        <ele>1693.019043</ele>
        <time>2012-07-26T08:59:38Z</time>
      </trkpt>
      <trkpt lat="42.82469" lon="-0.57841">
        <ele>1695.422363</ele>
        <time>2012-07-26T08:59:56Z</time>
      </trkpt>
      <trkpt lat="42.82468" lon="-0.57826">
        <ele>1696.864258</ele>
        <time>2012-07-26T09:00:14Z</time>
      </trkpt>
      <trkpt lat="42.82469" lon="-0.57817">
        <ele>1698.786865</ele>
        <time>2012-07-26T09:00:56Z</time>
      </trkpt>
      <trkpt lat="42.8247" lon="-0.57814">
        <ele>1699.267578</ele>
        <time>2012-07-26T09:00:58Z</time>
      </trkpt>
      <trkpt lat="42.82481" lon="-0.57789">
        <ele>1701.190186</ele>
        <time>2012-07-26T09:01:19Z</time>
      </trkpt>
      <trkpt lat="42.82485" lon="-0.57771">
        <ele>1704.074219</ele>
        <time>2012-07-26T09:01:34Z</time>
      </trkpt>
      <trkpt lat="42.82496" lon="-0.57762">
        <ele>1705.0354</ele>
        <time>2012-07-26T09:01:52Z</time>
      </trkpt>
      <trkpt lat="42.825" lon="-0.57772">
        <ele>1706.958008</ele>
        <time>2012-07-26T09:02:01Z</time>
      </trkpt>
      <trkpt lat="42.82501" lon="-0.57788">
        <ele>1709.361572</ele>
        <time>2012-07-26T09:02:14Z</time>
      </trkpt>
      <trkpt lat="42.82501" lon="-0.57789">
        <ele>1709.361572</ele>
        <time>2012-07-26T09:02:15Z</time>
      </trkpt>
      <trkpt lat="42.82506" lon="-0.5781">
        <ele>1710.803467</ele>
        <time>2012-07-26T09:02:35Z</time>
      </trkpt>
      <trkpt lat="42.82513" lon="-0.57828">
        <ele>1711.764893</ele>
        <time>2012-07-26T09:02:53Z</time>
      </trkpt>
      <trkpt lat="42.82525" lon="-0.57846">
        <ele>1714.648682</ele>
        <time>2012-07-26T09:03:12Z</time>
      </trkpt>
      <trkpt lat="42.82527" lon="-0.57849">
        <ele>1714.648682</ele>
        <time>2012-07-26T09:03:15Z</time>
      </trkpt>
      <trkpt lat="42.82529" lon="-0.57859">
        <ele>1717.052002</ele>
        <time>2012-07-26T09:03:24Z</time>
      </trkpt>
      <trkpt lat="42.82532" lon="-0.57874">
        <ele>1719.455322</ele>
        <time>2012-07-26T09:03:39Z</time>
      </trkpt>
      <trkpt lat="42.8254" lon="-0.57889">
        <ele>1720.416504</ele>
        <time>2012-07-26T09:03:56Z</time>
      </trkpt>
      <trkpt lat="42.82548" lon="-0.57902">
        <ele>1723.300537</ele>
        <time>2012-07-26T09:04:13Z</time>
      </trkpt>
      <trkpt lat="42.82558" lon="-0.57917">
        <ele>1723.781006</ele>
        <time>2012-07-26T09:04:30Z</time>
      </trkpt>
      <trkpt lat="42.82559" lon="-0.57926">
        <ele>1726.665283</ele>
        <time>2012-07-26T09:04:41Z</time>
      </trkpt>
      <trkpt lat="42.82563" lon="-0.57946">
        <ele>1728.587891</ele>
        <time>2012-07-26T09:05:00Z</time>
      </trkpt>
      <trkpt lat="42.82571" lon="-0.57941">
        <ele>1730.029785</ele>
        <time>2012-07-26T09:05:15Z</time>
      </trkpt>
      <trkpt lat="42.82579" lon="-0.57935">
        <ele>1733.394287</ele>
        <time>2012-07-26T09:05:27Z</time>
      </trkpt>
      <trkpt lat="42.82592" lon="-0.57928">
        <ele>1734.836426</ele>
        <time>2012-07-26T09:05:45Z</time>
      </trkpt>
      <trkpt lat="42.82601" lon="-0.57923">
        <ele>1737.239502</ele>
        <time>2012-07-26T09:06:02Z</time>
      </trkpt>
      <trkpt lat="42.82609" lon="-0.57921">
        <ele>1738.681641</ele>
        <time>2012-07-26T09:06:23Z</time>
      </trkpt>
      <trkpt lat="42.82617" lon="-0.57928">
        <ele>1742.046387</ele>
        <time>2012-07-26T09:06:36Z</time>
      </trkpt>
      <trkpt lat="42.8262" lon="-0.5793">
        <ele>1742.5271</ele>
        <time>2012-07-26T09:06:40Z</time>
      </trkpt>
      <trkpt lat="42.82625" lon="-0.57934">
        <ele>1743.488281</ele>
        <time>2012-07-26T09:06:46Z</time>
      </trkpt>
      <trkpt lat="42.82633" lon="-0.57946">
        <ele>1746.372314</ele>
        <time>2012-07-26T09:07:00Z</time>
      </trkpt>
      <trkpt lat="42.82638" lon="-0.57959">
        <ele>1749.256104</ele>
        <time>2012-07-26T09:07:13Z</time>
      </trkpt>
      <trkpt lat="42.82643" lon="-0.57966">
        <ele>1750.217529</ele>
        <time>2012-07-26T09:07:21Z</time>
      </trkpt>
      <trkpt lat="42.82656" lon="-0.5798">
        <ele>1752.620605</ele>
        <time>2012-07-26T09:07:41Z</time>
      </trkpt>
      <trkpt lat="42.82667" lon="-0.57993">
        <ele>1755.504639</ele>
        <time>2012-07-26T09:07:59Z</time>
      </trkpt>
      <trkpt lat="42.82675" lon="-0.57983">
        <ele>1758.869385</ele>
        <time>2012-07-26T09:08:14Z</time>
      </trkpt>
      <trkpt lat="42.82682" lon="-0.57987">
        <ele>1761.272705</ele>
        <time>2012-07-26T09:08:27Z</time>
      </trkpt>
      <trkpt lat="42.82685" lon="-0.58">
        <ele>1763.675781</ele>
        <time>2012-07-26T09:08:43Z</time>
      </trkpt>
      <trkpt lat="42.8269" lon="-0.58019">
        <ele>1767.040527</ele>
        <time>2012-07-26T09:09:00Z</time>
      </trkpt>
      <trkpt lat="42.82694" lon="-0.58037">
        <ele>1767.520996</ele>
        <time>2012-07-26T09:09:15Z</time>
      </trkpt>
      <trkpt lat="42.82698" lon="-0.58063">
        <ele>1769.924316</ele>
        <time>2012-07-26T09:09:35Z</time>
      </trkpt>
      <trkpt lat="42.82697" lon="-0.5808">
        <ele>1772.808594</ele>
        <time>2012-07-26T09:09:49Z</time>
      </trkpt>
      <trkpt lat="42.82698" lon="-0.58101">
        <ele>1776.173096</ele>
        <time>2012-07-26T09:10:07Z</time>
      </trkpt>
      <trkpt lat="42.82698" lon="-0.58125">
        <ele>1777.61499</ele>
        <time>2012-07-26T09:10:26Z</time>
      </trkpt>
      <trkpt lat="42.82704" lon="-0.58136">
        <ele>1780.979736</ele>
        <time>2012-07-26T09:10:40Z</time>
      </trkpt>
      <trkpt lat="42.82706" lon="-0.58136">
        <ele>1782.421631</ele>
        <time>2012-07-26T09:10:43Z</time>
      </trkpt>
      <trkpt lat="42.82707" lon="-0.58136">
        <ele>1781.940918</ele>
        <time>2012-07-26T09:10:44Z</time>
      </trkpt>
      <trkpt lat="42.82725" lon="-0.58126">
        <ele>1784.824951</ele>
        <time>2012-07-26T09:11:04Z</time>
      </trkpt>
      <trkpt lat="42.82741" lon="-0.58119">
        <ele>1788.189697</ele>
        <time>2012-07-26T09:11:21Z</time>
      </trkpt>
      <trkpt lat="42.8276" lon="-0.58108">
        <ele>1791.554199</ele>
        <time>2012-07-26T09:11:41Z</time>
      </trkpt>
      <trkpt lat="42.82771" lon="-0.58101">
        <ele>1792.034912</ele>
        <time>2012-07-26T09:11:52Z</time>
      </trkpt>
      <trkpt lat="42.82781" lon="-0.58097">
        <ele>1795.880127</ele>
        <time>2012-07-26T09:12:05Z</time>
      </trkpt>
      <trkpt lat="42.82786" lon="-0.58093">
        <ele>1797.802734</ele>
        <time>2012-07-26T09:12:12Z</time>
      </trkpt>
      <trkpt lat="42.82793" lon="-0.58082">
        <ele>1798.283203</ele>
        <time>2012-07-26T09:12:22Z</time>
      </trkpt>
      <trkpt lat="42.82795" lon="-0.58078">
        <ele>1798.763916</ele>
        <time>2012-07-26T09:12:26Z</time>
      </trkpt>
      <trkpt lat="42.82803" lon="-0.5807">
        <ele>1802.128418</ele>
        <time>2012-07-26T09:12:36Z</time>
      </trkpt>
      <trkpt lat="42.82804" lon="-0.58068">
        <ele>1801.647949</ele>
        <time>2012-07-26T09:12:55Z</time>
      </trkpt>
      <trkpt lat="42.82812" lon="-0.58059">
        <ele>1804.051514</ele>
        <time>2012-07-26T09:13:15Z</time>
      </trkpt>
      <trkpt lat="42.82824" lon="-0.58048">
        <ele>1805.973877</ele>
        <time>2012-07-26T09:13:32Z</time>
      </trkpt>
      <trkpt lat="42.82828" lon="-0.58033">
        <ele>1807.416016</ele>
        <time>2012-07-26T09:13:49Z</time>
      </trkpt>
      <trkpt lat="42.82833" lon="-0.58018">
        <ele>1809.819092</ele>
        <time>2012-07-26T09:14:05Z</time>
      </trkpt>
      <trkpt lat="42.82832" lon="-0.57999">
        <ele>1812.703125</ele>
        <time>2012-07-26T09:14:23Z</time>
      </trkpt>
      <trkpt lat="42.82831" lon="-0.57984">
        <ele>1815.587158</ele>
        <time>2012-07-26T09:14:39Z</time>
      </trkpt>
      <trkpt lat="42.8283" lon="-0.57968">
        <ele>1818.470947</ele>
        <time>2012-07-26T09:14:55Z</time>
      </trkpt>
      <trkpt lat="42.82834" lon="-0.57951">
        <ele>1821.835693</ele>
        <time>2012-07-26T09:15:10Z</time>
      </trkpt>
      <trkpt lat="42.82841" lon="-0.57931">
        <ele>1823.758301</ele>
        <time>2012-07-26T09:15:29Z</time>
      </trkpt>
      <trkpt lat="42.8285" lon="-0.57913">
        <ele>1826.161621</ele>
        <time>2012-07-26T09:15:48Z</time>
      </trkpt>
      <trkpt lat="42.82854" lon="-0.57896">
        <ele>1829.526123</ele>
        <time>2012-07-26T09:16:05Z</time>
      </trkpt>
      <trkpt lat="42.82855" lon="-0.57893">
        <ele>1828.564941</ele>
        <time>2012-07-26T09:16:25Z</time>
      </trkpt>
      <trkpt lat="42.82855" lon="-0.57892">
        <ele>1830.006836</ele>
        <time>2012-07-26T09:16:31Z</time>
      </trkpt>
      <trkpt lat="42.82859" lon="-0.57888">
        <ele>1832.890625</ele>
        <time>2012-07-26T09:16:39Z</time>
      </trkpt>
      <trkpt lat="42.82865" lon="-0.57883">
        <ele>1833.852051</ele>
        <time>2012-07-26T09:16:57Z</time>
      </trkpt>
      <trkpt lat="42.82877" lon="-0.57874">
        <ele>1836.255615</ele>
        <time>2012-07-26T09:17:17Z</time>
      </trkpt>
      <trkpt lat="42.82874" lon="-0.57892">
        <ele>1837.69751</ele>
        <time>2012-07-26T09:17:34Z</time>
      </trkpt>
      <trkpt lat="42.82875" lon="-0.57897">
        <ele>1838.178223</ele>
        <time>2012-07-26T09:17:38Z</time>
      </trkpt>
      <trkpt lat="42.82884" lon="-0.57915">
        <ele>1841.062012</ele>
        <time>2012-07-26T09:17:58Z</time>
      </trkpt>
      <trkpt lat="42.82892" lon="-0.57932">
        <ele>1843.946045</ele>
        <time>2012-07-26T09:18:17Z</time>
      </trkpt>
      <trkpt lat="42.82897" lon="-0.57948">
        <ele>1845.387939</ele>
        <time>2012-07-26T09:18:32Z</time>
      </trkpt>
      <trkpt lat="42.82905" lon="-0.57962">
        <ele>1846.829834</ele>
        <time>2012-07-26T09:18:49Z</time>
      </trkpt>
      <trkpt lat="42.82907" lon="-0.57961">
        <ele>1850.19458</ele>
        <time>2012-07-26T09:18:52Z</time>
      </trkpt>
      <trkpt lat="42.82907" lon="-0.57961">
        <ele>1849.713867</ele>
        <time>2012-07-26T09:18:53Z</time>
      </trkpt>
      <trkpt lat="42.8291" lon="-0.57954">
        <ele>1853.078613</ele>
        <time>2012-07-26T09:19:02Z</time>
      </trkpt>
      <trkpt lat="42.82915" lon="-0.57939">
        <ele>1855.001221</ele>
        <time>2012-07-26T09:19:17Z</time>
      </trkpt>
      <trkpt lat="42.82922" lon="-0.57923">
        <ele>1857.404541</ele>
        <time>2012-07-26T09:19:34Z</time>
      </trkpt>
      <trkpt lat="42.82923" lon="-0.57922">
        <ele>1857.404541</ele>
        <time>2012-07-26T09:19:35Z</time>
      </trkpt>
      <trkpt lat="42.8293" lon="-0.57903">
        <ele>1859.807617</ele>
        <time>2012-07-26T09:19:53Z</time>
      </trkpt>
      <trkpt lat="42.82935" lon="-0.5789">
        <ele>1863.172363</ele>
        <time>2012-07-26T09:20:05Z</time>
      </trkpt>
      <trkpt lat="42.82938" lon="-0.57881">
        <ele>1865.575684</ele>
        <time>2012-07-26T09:20:14Z</time>
      </trkpt>
      <trkpt lat="42.82947" lon="-0.57861">
        <ele>1868.459717</ele>
        <time>2012-07-26T09:20:32Z</time>
      </trkpt>
      <trkpt lat="42.82953" lon="-0.57851">
        <ele>1869.901611</ele>
        <time>2012-07-26T09:20:46Z</time>
      </trkpt>
      <trkpt lat="42.82963" lon="-0.57837">
        <ele>1872.785645</ele>
        <time>2012-07-26T09:21:04Z</time>
      </trkpt>
      <trkpt lat="42.82973" lon="-0.57819">
        <ele>1876.150146</ele>
        <time>2012-07-26T09:21:22Z</time>
      </trkpt>
      <trkpt lat="42.8298" lon="-0.57808">
        <ele>1879.033936</ele>
        <time>2012-07-26T09:21:33Z</time>
      </trkpt>
      <trkpt lat="42.82986" lon="-0.57793">
        <ele>1882.398682</ele>
        <time>2012-07-26T09:21:49Z</time>
      </trkpt>
      <trkpt lat="42.82991" lon="-0.57775">
        <ele>1885.763428</ele>
        <time>2012-07-26T09:22:06Z</time>
      </trkpt>
      <trkpt lat="42.82992" lon="-0.57773">
        <ele>1886.244141</ele>
        <time>2012-07-26T09:22:08Z</time>
      </trkpt>
      <trkpt lat="42.82998" lon="-0.57757">
        <ele>1889.12793</ele>
        <time>2012-07-26T09:22:24Z</time>
      </trkpt>
      <trkpt lat="42.82999" lon="-0.57756">
        <ele>1890.089355</ele>
        <time>2012-07-26T09:22:26Z</time>
      </trkpt>
      <trkpt lat="42.83002" lon="-0.57746">
        <ele>1893.453857</ele>
        <time>2012-07-26T09:22:38Z</time>
      </trkpt>
      <trkpt lat="42.83005" lon="-0.57741">
        <ele>1892.492676</ele>
        <time>2012-07-26T09:22:48Z</time>
      </trkpt>
      <trkpt lat="42.83005" lon="-0.5774">
        <ele>1894.895752</ele>
        <time>2012-07-26T09:22:50Z</time>
      </trkpt>
      <trkpt lat="42.83008" lon="-0.57734">
        <ele>1896.337891</ele>
        <time>2012-07-26T09:22:55Z</time>
      </trkpt>
      <trkpt lat="42.8301" lon="-0.5773">
        <ele>1898.260254</ele>
        <time>2012-07-26T09:22:59Z</time>
      </trkpt>
      <trkpt lat="42.83013" lon="-0.57715">
        <ele>1902.105713</ele>
        <time>2012-07-26T09:23:11Z</time>
      </trkpt>
      <trkpt lat="42.83016" lon="-0.57701">
        <ele>1902.105713</ele>
        <time>2012-07-26T09:23:27Z</time>
      </trkpt>
      <trkpt lat="42.83018" lon="-0.57701">
        <ele>1904.989746</ele>
        <time>2012-07-26T09:23:43Z</time>
      </trkpt>
      <trkpt lat="42.83018" lon="-0.57692">
        <ele>1905.950928</ele>
        <time>2012-07-26T09:24:00Z</time>
      </trkpt>
      <trkpt lat="42.8302" lon="-0.57673">
        <ele>1906.912354</ele>
        <time>2012-07-26T09:24:16Z</time>
      </trkpt>
      <trkpt lat="42.83024" lon="-0.5765">
        <ele>1907.873779</ele>
        <time>2012-07-26T09:24:34Z</time>
      </trkpt>
      <trkpt lat="42.83024" lon="-0.57649">
        <ele>1905.470459</ele>
        <time>2012-07-26T09:24:37Z</time>
      </trkpt>
      <trkpt lat="42.83024" lon="-0.5765">
        <ele>1905.470459</ele>
        <time>2012-07-26T09:24:56Z</time>
      </trkpt>
      <trkpt lat="42.83025" lon="-0.5765">
        <ele>1904.989746</ele>
        <time>2012-07-26T09:25:39Z</time>
      </trkpt>
      <trkpt lat="42.83025" lon="-0.5765">
        <ele>1906.431641</ele>
        <time>2012-07-26T09:25:42Z</time>
      </trkpt>
      <trkpt lat="42.83025" lon="-0.5765">
        <ele>1905.470459</ele>
        <time>2012-07-26T09:25:48Z</time>
      </trkpt>
      <trkpt lat="42.83025" lon="-0.5765">
        <ele>1908.834961</ele>
        <time>2012-07-26T09:30:22Z</time>
      </trkpt>
      <trkpt lat="42.83025" lon="-0.5765">
        <ele>1907.393066</ele>
        <time>2012-07-26T09:30:27Z</time>
      </trkpt>
      <trkpt lat="42.83025" lon="-0.5765">
        <ele>1907.393066</ele>
        <time>2012-07-26T09:31:57Z</time>
      </trkpt>
      <trkpt lat="42.83025" lon="-0.5765">
        <ele>1908.354248</ele>
        <time>2012-07-26T09:32:00Z</time>
      </trkpt>
      <trkpt lat="42.83025" lon="-0.57654">
        <ele>1908.354248</ele>
        <time>2012-07-26T09:35:02Z</time>
      </trkpt>
      <trkpt lat="42.83024" lon="-0.57655">
        <ele>1908.834961</ele>
        <time>2012-07-26T09:35:03Z</time>
      </trkpt>
      <trkpt lat="42.83024" lon="-0.57659">
        <ele>1908.834961</ele>
        <time>2012-07-26T09:35:06Z</time>
      </trkpt>
      <trkpt lat="42.83019" lon="-0.57683">
        <ele>1908.834961</ele>
        <time>2012-07-26T09:35:24Z</time>
      </trkpt>
      <trkpt lat="42.83018" lon="-0.57686">
        <ele>1907.873779</ele>
        <time>2012-07-26T09:35:44Z</time>
      </trkpt>
      <trkpt lat="42.83018" lon="-0.57686">
        <ele>1908.354248</ele>
        <time>2012-07-26T09:35:48Z</time>
      </trkpt>
      <trkpt lat="42.83018" lon="-0.57685">
        <ele>1909.796143</ele>
        <time>2012-07-26T09:36:22Z</time>
      </trkpt>
      <trkpt lat="42.83018" lon="-0.57693">
        <ele>1906.431641</ele>
        <time>2012-07-26T09:36:40Z</time>
      </trkpt>
      <trkpt lat="42.83018" lon="-0.57694">
        <ele>1906.431641</ele>
        <time>2012-07-26T09:36:41Z</time>
      </trkpt>
      <trkpt lat="42.83019" lon="-0.57698">
        <ele>1905.470459</ele>
        <time>2012-07-26T09:36:46Z</time>
      </trkpt>
      <trkpt lat="42.83019" lon="-0.57721">
        <ele>1905.950928</ele>
        <time>2012-07-26T09:37:02Z</time>
      </trkpt>
      <trkpt lat="42.83019" lon="-0.57726">
        <ele>1905.950928</ele>
        <time>2012-07-26T09:37:06Z</time>
      </trkpt>
      <trkpt lat="42.83019" lon="-0.57736">
        <ele>1906.912354</ele>
        <time>2012-07-26T09:37:12Z</time>
      </trkpt>
      <trkpt lat="42.83018" lon="-0.57758">
        <ele>1907.873779</ele>
        <time>2012-07-26T09:37:28Z</time>
      </trkpt>
      <trkpt lat="42.83018" lon="-0.57787">
        <ele>1909.315674</ele>
        <time>2012-07-26T09:37:48Z</time>
      </trkpt>
      <trkpt lat="42.83016" lon="-0.57797">
        <ele>1912.680176</ele>
        <time>2012-07-26T09:37:57Z</time>
      </trkpt>
      <trkpt lat="42.83016" lon="-0.57797">
        <ele>1912.199463</ele>
        <time>2012-07-26T09:37:58Z</time>
      </trkpt>
      <trkpt lat="42.83014" lon="-0.57802">
        <ele>1913.160889</ele>
        <time>2012-07-26T09:38:13Z</time>
      </trkpt>
      <trkpt lat="42.83013" lon="-0.57802">
        <ele>1913.641357</ele>
        <time>2012-07-26T09:38:19Z</time>
      </trkpt>
      <trkpt lat="42.83013" lon="-0.57802">
        <ele>1912.199463</ele>
        <time>2012-07-26T09:38:47Z</time>
      </trkpt>
      <trkpt lat="42.83013" lon="-0.57803">
        <ele>1913.641357</ele>
        <time>2012-07-26T09:38:51Z</time>
      </trkpt>
      <trkpt lat="42.83013" lon="-0.57804">
        <ele>1913.641357</ele>
        <time>2012-07-26T09:39:05Z</time>
      </trkpt>
      <trkpt lat="42.83012" lon="-0.57803">
        <ele>1912.680176</ele>
        <time>2012-07-26T09:39:29Z</time>
      </trkpt>
      <trkpt lat="42.83011" lon="-0.57805">
        <ele>1913.641357</ele>
        <time>2012-07-26T09:40:21Z</time>
      </trkpt>
      <trkpt lat="42.83011" lon="-0.57805">
        <ele>1914.602783</ele>
        <time>2012-07-26T09:40:29Z</time>
      </trkpt>
      <trkpt lat="42.83011" lon="-0.57804">
        <ele>1913.641357</ele>
        <time>2012-07-26T09:40:59Z</time>
      </trkpt>
      <trkpt lat="42.83011" lon="-0.57804">
        <ele>1917.006348</ele>
        <time>2012-07-26T09:41:09Z</time>
      </trkpt>
      <trkpt lat="42.83013" lon="-0.57807">
        <ele>1914.602783</ele>
        <time>2012-07-26T09:41:20Z</time>
      </trkpt>
      <trkpt lat="42.83013" lon="-0.57813">
        <ele>1916.044922</ele>
        <time>2012-07-26T09:41:27Z</time>
      </trkpt>
      <trkpt lat="42.83014" lon="-0.57824">
        <ele>1916.525635</ele>
        <time>2012-07-26T09:41:42Z</time>
      </trkpt>
      <trkpt lat="42.83019" lon="-0.57846">
        <ele>1916.044922</ele>
        <time>2012-07-26T09:42:03Z</time>
      </trkpt>
      <trkpt lat="42.83026" lon="-0.57856">
        <ele>1915.564209</ele>
        <time>2012-07-26T09:42:14Z</time>
      </trkpt>
      <trkpt lat="42.83036" lon="-0.57871">
        <ele>1916.044922</ele>
        <time>2012-07-26T09:42:33Z</time>
      </trkpt>
      <trkpt lat="42.83041" lon="-0.57877">
        <ele>1912.680176</ele>
        <time>2012-07-26T09:42:43Z</time>
      </trkpt>
      <trkpt lat="42.83049" lon="-0.57896">
        <ele>1911.238281</ele>
        <time>2012-07-26T09:43:03Z</time>
      </trkpt>
      <trkpt lat="42.83056" lon="-0.5791">
        <ele>1910.757568</ele>
        <time>2012-07-26T09:43:20Z</time>
      </trkpt>
      <trkpt lat="42.83056" lon="-0.57911">
        <ele>1909.315674</ele>
        <time>2012-07-26T09:43:30Z</time>
      </trkpt>
      <trkpt lat="42.83066" lon="-0.57924">
        <ele>1906.431641</ele>
        <time>2012-07-26T09:43:45Z</time>
      </trkpt>
      <trkpt lat="42.83073" lon="-0.5793">
        <ele>1903.067139</ele>
        <time>2012-07-26T09:43:55Z</time>
      </trkpt>
      <trkpt lat="42.83087" lon="-0.57944">
        <ele>1902.586426</ele>
        <time>2012-07-26T09:44:11Z</time>
      </trkpt>
      <trkpt lat="42.83099" lon="-0.57961">
        <ele>1904.028564</ele>
        <time>2012-07-26T09:44:28Z</time>
      </trkpt>
      <trkpt lat="42.83105" lon="-0.5797">
        <ele>1904.028564</ele>
        <time>2012-07-26T09:44:37Z</time>
      </trkpt>
      <trkpt lat="42.83117" lon="-0.57986">
        <ele>1907.393066</ele>
        <time>2012-07-26T09:44:56Z</time>
      </trkpt>
      <trkpt lat="42.8312" lon="-0.57993">
        <ele>1908.834961</ele>
        <time>2012-07-26T09:45:10Z</time>
      </trkpt>
      <trkpt lat="42.83122" lon="-0.57998">
        <ele>1908.354248</ele>
        <time>2012-07-26T09:45:14Z</time>
      </trkpt>
      <trkpt lat="42.83123" lon="-0.58001">
        <ele>1907.873779</ele>
        <time>2012-07-26T09:45:16Z</time>
      </trkpt>
      <trkpt lat="42.83127" lon="-0.58022">
        <ele>1908.354248</ele>
        <time>2012-07-26T09:45:33Z</time>
      </trkpt>
      <trkpt lat="42.83128" lon="-0.58038">
        <ele>1906.431641</ele>
        <time>2012-07-26T09:45:49Z</time>
      </trkpt>
      <trkpt lat="42.83135" lon="-0.58041">
        <ele>1904.509033</ele>
        <time>2012-07-26T09:46:03Z</time>
      </trkpt>
      <trkpt lat="42.83143" lon="-0.58051">
        <ele>1902.105713</ele>
        <time>2012-07-26T09:46:17Z</time>
      </trkpt>
      <trkpt lat="42.83149" lon="-0.58063">
        <ele>1902.586426</ele>
        <time>2012-07-26T09:46:33Z</time>
      </trkpt>
      <trkpt lat="42.83157" lon="-0.58073">
        <ele>1902.586426</ele>
        <time>2012-07-26T09:46:47Z</time>
      </trkpt>
      <trkpt lat="42.83158" lon="-0.58076">
        <ele>1904.028564</ele>
        <time>2012-07-26T09:46:50Z</time>
      </trkpt>
      <trkpt lat="42.83163" lon="-0.58082">
        <ele>1905.470459</ele>
        <time>2012-07-26T09:47:08Z</time>
      </trkpt>
      <trkpt lat="42.83175" lon="-0.58085">
        <ele>1906.431641</ele>
        <time>2012-07-26T09:47:26Z</time>
      </trkpt>
      <trkpt lat="42.83185" lon="-0.58102">
        <ele>1904.509033</ele>
        <time>2012-07-26T09:47:42Z</time>
      </trkpt>
      <trkpt lat="42.83186" lon="-0.58103">
        <ele>1904.509033</ele>
        <time>2012-07-26T09:47:43Z</time>
      </trkpt>
      <trkpt lat="42.83205" lon="-0.58117">
        <ele>1905.470459</ele>
        <time>2012-07-26T09:48:03Z</time>
      </trkpt>
      <trkpt lat="42.83209" lon="-0.58125">
        <ele>1905.470459</ele>
        <time>2012-07-26T09:48:10Z</time>
      </trkpt>
      <trkpt lat="42.83222" lon="-0.58152">
        <ele>1904.989746</ele>
        <time>2012-07-26T09:48:32Z</time>
      </trkpt>
      <trkpt lat="42.83235" lon="-0.58177">
        <ele>1905.470459</ele>
        <time>2012-07-26T09:48:52Z</time>
      </trkpt>
      <trkpt lat="42.83255" lon="-0.5819">
        <ele>1905.950928</ele>
        <time>2012-07-26T09:49:11Z</time>
      </trkpt>
      <trkpt lat="42.83275" lon="-0.582">
        <ele>1905.950928</ele>
        <time>2012-07-26T09:49:30Z</time>
      </trkpt>
      <trkpt lat="42.83286" lon="-0.58218">
        <ele>1904.028564</ele>
        <time>2012-07-26T09:49:47Z</time>
      </trkpt>
      <trkpt lat="42.83287" lon="-0.58219">
        <ele>1903.547852</ele>
        <time>2012-07-26T09:49:48Z</time>
      </trkpt>
      <trkpt lat="42.83297" lon="-0.58234">
        <ele>1901.625244</ele>
        <time>2012-07-26T09:50:05Z</time>
      </trkpt>
      <trkpt lat="42.83299" lon="-0.58235">
        <ele>1901.144531</ele>
        <time>2012-07-26T09:50:07Z</time>
      </trkpt>
      <trkpt lat="42.83311" lon="-0.58252">
        <ele>1897.299072</ele>
        <time>2012-07-26T09:50:23Z</time>
      </trkpt>
      <trkpt lat="42.83331" lon="-0.58265">
        <ele>1897.779785</ele>
        <time>2012-07-26T09:50:42Z</time>
      </trkpt>
      <trkpt lat="42.83338" lon="-0.58278">
        <ele>1897.779785</ele>
        <time>2012-07-26T09:50:54Z</time>
      </trkpt>
      <trkpt lat="42.83344" lon="-0.58283">
        <ele>1895.857178</ele>
        <time>2012-07-26T09:51:01Z</time>
      </trkpt>
      <trkpt lat="42.83359" lon="-0.58303">
        <ele>1892.973145</ele>
        <time>2012-07-26T09:51:21Z</time>
      </trkpt>
      <trkpt lat="42.83368" lon="-0.58319">
        <ele>1892.011963</ele>
        <time>2012-07-26T09:51:37Z</time>
      </trkpt>
      <trkpt lat="42.83373" lon="-0.58326">
        <ele>1890.569824</ele>
        <time>2012-07-26T09:51:45Z</time>
      </trkpt>
      <trkpt lat="42.83376" lon="-0.58335">
        <ele>1890.089355</ele>
        <time>2012-07-26T09:51:51Z</time>
      </trkpt>
      <trkpt lat="42.83391" lon="-0.58343">
        <ele>1893.453857</ele>
        <time>2012-07-26T09:52:05Z</time>
      </trkpt>
      <trkpt lat="42.83395" lon="-0.58347">
        <ele>1893.453857</ele>
        <time>2012-07-26T09:52:25Z</time>
      </trkpt>
      <trkpt lat="42.83402" lon="-0.58355">
        <ele>1893.453857</ele>
        <time>2012-07-26T09:52:36Z</time>
      </trkpt>
      <trkpt lat="42.83414" lon="-0.58378">
        <ele>1893.453857</ele>
        <time>2012-07-26T09:52:54Z</time>
      </trkpt>
      <trkpt lat="42.83417" lon="-0.58379">
        <ele>1895.857178</ele>
        <time>2012-07-26T09:52:57Z</time>
      </trkpt>
      <trkpt lat="42.83421" lon="-0.58383">
        <ele>1893.453857</ele>
        <time>2012-07-26T09:53:02Z</time>
      </trkpt>
      <trkpt lat="42.83424" lon="-0.58396">
        <ele>1893.453857</ele>
        <time>2012-07-26T09:53:11Z</time>
      </trkpt>
      <trkpt lat="42.83423" lon="-0.58405">
        <ele>1897.779785</ele>
        <time>2012-07-26T09:53:19Z</time>
      </trkpt>
      <trkpt lat="42.83423" lon="-0.58405">
        <ele>1901.144531</ele>
        <time>2012-07-26T09:53:20Z</time>
      </trkpt>
      <trkpt lat="42.83423" lon="-0.58405">
        <ele>1898.740967</ele>
        <time>2012-07-26T09:53:21Z</time>
      </trkpt>
      <trkpt lat="42.83423" lon="-0.58405">
        <ele>1895.376465</ele>
        <time>2012-07-26T09:53:23Z</time>
      </trkpt>
      <trkpt lat="42.83423" lon="-0.58405">
        <ele>1894.895752</ele>
        <time>2012-07-26T09:53:27Z</time>
      </trkpt>
      <trkpt lat="42.83421" lon="-0.58407">
        <ele>1892.973145</ele>
        <time>2012-07-26T09:53:30Z</time>
      </trkpt>
      <trkpt lat="42.83408" lon="-0.58421">
        <ele>1893.93457</ele>
        <time>2012-07-26T09:53:47Z</time>
      </trkpt>
      <trkpt lat="42.83397" lon="-0.58433">
        <ele>1896.337891</ele>
        <time>2012-07-26T09:54:00Z</time>
      </trkpt>
      <trkpt lat="42.83384" lon="-0.58435">
        <ele>1896.337891</ele>
        <time>2012-07-26T09:54:15Z</time>
      </trkpt>
      <trkpt lat="42.83366" lon="-0.58444">
        <ele>1897.299072</ele>
        <time>2012-07-26T09:54:32Z</time>
      </trkpt>
      <trkpt lat="42.83358" lon="-0.58467">
        <ele>1897.779785</ele>
        <time>2012-07-26T09:54:50Z</time>
      </trkpt>
      <trkpt lat="42.83356" lon="-0.58491">
        <ele>1899.22168</ele>
        <time>2012-07-26T09:55:10Z</time>
      </trkpt>
      <trkpt lat="42.83352" lon="-0.58499">
        <ele>1900.663818</ele>
        <time>2012-07-26T09:55:17Z</time>
      </trkpt>
      <trkpt lat="42.83349" lon="-0.58504">
        <ele>1899.702393</ele>
        <time>2012-07-26T09:55:22Z</time>
      </trkpt>
      <trkpt lat="42.83346" lon="-0.58513">
        <ele>1898.740967</ele>
        <time>2012-07-26T09:55:29Z</time>
      </trkpt>
      <trkpt lat="42.83331" lon="-0.58544">
        <ele>1896.818359</ele>
        <time>2012-07-26T09:55:53Z</time>
      </trkpt>
      <trkpt lat="42.83317" lon="-0.58572">
        <ele>1896.337891</ele>
        <time>2012-07-26T09:56:15Z</time>
      </trkpt>
      <trkpt lat="42.83303" lon="-0.58602">
        <ele>1895.376465</ele>
        <time>2012-07-26T09:56:37Z</time>
      </trkpt>
      <trkpt lat="42.83295" lon="-0.58619">
        <ele>1892.011963</ele>
        <time>2012-07-26T09:56:50Z</time>
      </trkpt>
      <trkpt lat="42.83291" lon="-0.58643">
        <ele>1892.973145</ele>
        <time>2012-07-26T09:57:06Z</time>
      </trkpt>
      <trkpt lat="42.8329" lon="-0.58678">
        <ele>1891.53125</ele>
        <time>2012-07-26T09:57:28Z</time>
      </trkpt>
      <trkpt lat="42.83289" lon="-0.58704">
        <ele>1888.166748</ele>
        <time>2012-07-26T09:57:45Z</time>
      </trkpt>
      <trkpt lat="42.83285" lon="-0.58725">
        <ele>1891.050537</ele>
        <time>2012-07-26T09:58:00Z</time>
      </trkpt>
      <trkpt lat="42.83288" lon="-0.58742">
        <ele>1890.569824</ele>
        <time>2012-07-26T09:58:17Z</time>
      </trkpt>
      <trkpt lat="42.83295" lon="-0.58756">
        <ele>1887.205322</ele>
        <time>2012-07-26T09:58:30Z</time>
      </trkpt>
      <trkpt lat="42.83301" lon="-0.58788">
        <ele>1885.763428</ele>
        <time>2012-07-26T09:58:51Z</time>
      </trkpt>
      <trkpt lat="42.83303" lon="-0.58799">
        <ele>1884.321533</ele>
        <time>2012-07-26T09:58:58Z</time>
      </trkpt>
      <trkpt lat="42.83302" lon="-0.5881">
        <ele>1884.321533</ele>
        <time>2012-07-26T09:59:05Z</time>
      </trkpt>
      <trkpt lat="42.83301" lon="-0.58815">
        <ele>1886.244141</ele>
        <time>2012-07-26T09:59:08Z</time>
      </trkpt>
      <trkpt lat="42.83296" lon="-0.58847">
        <ele>1883.359863</ele>
        <time>2012-07-26T09:59:29Z</time>
      </trkpt>
      <trkpt lat="42.83294" lon="-0.58881">
        <ele>1882.398682</ele>
        <time>2012-07-26T09:59:50Z</time>
      </trkpt>
      <trkpt lat="42.83289" lon="-0.58909">
        <ele>1881.917969</ele>
        <time>2012-07-26T10:00:10Z</time>
      </trkpt>
      <trkpt lat="42.83286" lon="-0.58938">
        <ele>1879.514648</ele>
        <time>2012-07-26T10:00:30Z</time>
      </trkpt>
      <trkpt lat="42.83285" lon="-0.58941">
        <ele>1879.995361</ele>
        <time>2012-07-26T10:00:32Z</time>
      </trkpt>
      <trkpt lat="42.83285" lon="-0.58945">
        <ele>1879.033936</ele>
        <time>2012-07-26T10:00:35Z</time>
      </trkpt>
      <trkpt lat="42.83276" lon="-0.58976">
        <ele>1878.553467</ele>
        <time>2012-07-26T10:00:57Z</time>
      </trkpt>
      <trkpt lat="42.8327" lon="-0.59006">
        <ele>1879.033936</ele>
        <time>2012-07-26T10:01:17Z</time>
      </trkpt>
      <trkpt lat="42.8326" lon="-0.59031">
        <ele>1879.514648</ele>
        <time>2012-07-26T10:01:36Z</time>
      </trkpt>
      <trkpt lat="42.83258" lon="-0.5906">
        <ele>1879.995361</ele>
        <time>2012-07-26T10:01:55Z</time>
      </trkpt>
      <trkpt lat="42.83259" lon="-0.59094">
        <ele>1879.995361</ele>
        <time>2012-07-26T10:02:17Z</time>
      </trkpt>
      <trkpt lat="42.8326" lon="-0.59116">
        <ele>1879.033936</ele>
        <time>2012-07-26T10:02:34Z</time>
      </trkpt>
      <trkpt lat="42.83259" lon="-0.59121">
        <ele>1877.592041</ele>
        <time>2012-07-26T10:02:50Z</time>
      </trkpt>
      <trkpt lat="42.83255" lon="-0.59128">
        <ele>1877.111572</ele>
        <time>2012-07-26T10:03:01Z</time>
      </trkpt>
      <trkpt lat="42.83249" lon="-0.59132">
        <ele>1877.592041</ele>
        <time>2012-07-26T10:03:06Z</time>
      </trkpt>
      <trkpt lat="42.83235" lon="-0.59146">
        <ele>1876.630859</ele>
        <time>2012-07-26T10:03:22Z</time>
      </trkpt>
      <trkpt lat="42.83234" lon="-0.59149">
        <ele>1876.150146</ele>
        <time>2012-07-26T10:03:24Z</time>
      </trkpt>
      <trkpt lat="42.83228" lon="-0.59157">
        <ele>1874.227539</ele>
        <time>2012-07-26T10:03:32Z</time>
      </trkpt>
      <trkpt lat="42.83226" lon="-0.59175">
        <ele>1872.785645</ele>
        <time>2012-07-26T10:03:44Z</time>
      </trkpt>
      <trkpt lat="42.83222" lon="-0.59185">
        <ele>1871.824219</ele>
        <time>2012-07-26T10:03:58Z</time>
      </trkpt>
      <trkpt lat="42.83225" lon="-0.59209">
        <ele>1872.304932</ele>
        <time>2012-07-26T10:04:16Z</time>
      </trkpt>
      <trkpt lat="42.83238" lon="-0.59238">
        <ele>1871.824219</ele>
        <time>2012-07-26T10:04:38Z</time>
      </trkpt>
      <trkpt lat="42.83242" lon="-0.59262">
        <ele>1871.824219</ele>
        <time>2012-07-26T10:04:55Z</time>
      </trkpt>
      <trkpt lat="42.83241" lon="-0.5927">
        <ele>1870.863037</ele>
        <time>2012-07-26T10:05:01Z</time>
      </trkpt>
      <trkpt lat="42.83248" lon="-0.59298">
        <ele>1870.382324</ele>
        <time>2012-07-26T10:05:21Z</time>
      </trkpt>
      <trkpt lat="42.83256" lon="-0.59322">
        <ele>1870.382324</ele>
        <time>2012-07-26T10:05:39Z</time>
      </trkpt>
      <trkpt lat="42.83257" lon="-0.59325">
        <ele>1869.901611</ele>
        <time>2012-07-26T10:05:53Z</time>
      </trkpt>
      <trkpt lat="42.83254" lon="-0.59331">
        <ele>1870.382324</ele>
        <time>2012-07-26T10:05:58Z</time>
      </trkpt>
      <trkpt lat="42.83253" lon="-0.59336">
        <ele>1870.382324</ele>
        <time>2012-07-26T10:06:02Z</time>
      </trkpt>
      <trkpt lat="42.83257" lon="-0.59371">
        <ele>1868.94043</ele>
        <time>2012-07-26T10:06:26Z</time>
      </trkpt>
      <trkpt lat="42.83272" lon="-0.59388">
        <ele>1870.382324</ele>
        <time>2012-07-26T10:06:45Z</time>
      </trkpt>
      <trkpt lat="42.83275" lon="-0.59393">
        <ele>1869.901611</ele>
        <time>2012-07-26T10:07:04Z</time>
      </trkpt>
      <trkpt lat="42.83276" lon="-0.59408">
        <ele>1870.863037</ele>
        <time>2012-07-26T10:07:26Z</time>
      </trkpt>
      <trkpt lat="42.83268" lon="-0.59439">
        <ele>1869.901611</ele>
        <time>2012-07-26T10:07:47Z</time>
      </trkpt>
      <trkpt lat="42.8327" lon="-0.59449">
        <ele>1869.421143</ele>
        <time>2012-07-26T10:07:54Z</time>
      </trkpt>
      <trkpt lat="42.83269" lon="-0.59455">
        <ele>1867.498047</ele>
        <time>2012-07-26T10:07:58Z</time>
      </trkpt>
      <trkpt lat="42.83268" lon="-0.59464">
        <ele>1866.536865</ele>
        <time>2012-07-26T10:08:04Z</time>
      </trkpt>
      <trkpt lat="42.83274" lon="-0.59503">
        <ele>1867.498047</ele>
        <time>2012-07-26T10:08:27Z</time>
      </trkpt>
      <trkpt lat="42.83284" lon="-0.59528">
        <ele>1869.421143</ele>
        <time>2012-07-26T10:08:44Z</time>
      </trkpt>
      <trkpt lat="42.83287" lon="-0.59538">
        <ele>1870.863037</ele>
        <time>2012-07-26T10:08:52Z</time>
      </trkpt>
      <trkpt lat="42.83291" lon="-0.59543">
        <ele>1871.343506</ele>
        <time>2012-07-26T10:08:57Z</time>
      </trkpt>
      <trkpt lat="42.83299" lon="-0.59567">
        <ele>1871.824219</ele>
        <time>2012-07-26T10:09:14Z</time>
      </trkpt>
      <trkpt lat="42.83311" lon="-0.59582">
        <ele>1875.188721</ele>
        <time>2012-07-26T10:09:29Z</time>
      </trkpt>
      <trkpt lat="42.83324" lon="-0.59596">
        <ele>1878.553467</ele>
        <time>2012-07-26T10:09:45Z</time>
      </trkpt>
      <trkpt lat="42.83336" lon="-0.59606">
        <ele>1880.476074</ele>
        <time>2012-07-26T10:09:59Z</time>
      </trkpt>
      <trkpt lat="42.83345" lon="-0.59615">
        <ele>1881.917969</ele>
        <time>2012-07-26T10:10:15Z</time>
      </trkpt>
      <trkpt lat="42.83358" lon="-0.59621">
        <ele>1879.514648</ele>
        <time>2012-07-26T10:10:31Z</time>
      </trkpt>
      <trkpt lat="42.8336" lon="-0.5962">
        <ele>1879.033936</ele>
        <time>2012-07-26T10:10:33Z</time>
      </trkpt>
      <trkpt lat="42.83363" lon="-0.59616">
        <ele>1878.553467</ele>
        <time>2012-07-26T10:10:55Z</time>
      </trkpt>
      <trkpt lat="42.83362" lon="-0.5962">
        <ele>1879.033936</ele>
        <time>2012-07-26T10:11:11Z</time>
      </trkpt>
      <trkpt lat="42.8336" lon="-0.5963">
        <ele>1880.956787</ele>
        <time>2012-07-26T10:11:18Z</time>
      </trkpt>
      <trkpt lat="42.8336" lon="-0.59636">
        <ele>1881.437256</ele>
        <time>2012-07-26T10:11:22Z</time>
      </trkpt>
      <trkpt lat="42.83356" lon="-0.59644">
        <ele>1884.321533</ele>
        <time>2012-07-26T10:11:29Z</time>
      </trkpt>
      <trkpt lat="42.83363" lon="-0.59666">
        <ele>1882.87915</ele>
        <time>2012-07-26T10:11:44Z</time>
      </trkpt>
      <trkpt lat="42.83367" lon="-0.59699">
        <ele>1880.956787</ele>
        <time>2012-07-26T10:12:04Z</time>
      </trkpt>
      <trkpt lat="42.83367" lon="-0.59705">
        <ele>1881.917969</ele>
        <time>2012-07-26T10:12:14Z</time>
      </trkpt>
      <trkpt lat="42.83365" lon="-0.5971">
        <ele>1879.514648</ele>
        <time>2012-07-26T10:12:18Z</time>
      </trkpt>
      <trkpt lat="42.83363" lon="-0.59738">
        <ele>1878.553467</ele>
        <time>2012-07-26T10:12:35Z</time>
      </trkpt>
      <trkpt lat="42.83374" lon="-0.59764">
        <ele>1879.033936</ele>
        <time>2012-07-26T10:12:54Z</time>
      </trkpt>
      <trkpt lat="42.83394" lon="-0.5978">
        <ele>1878.553467</ele>
        <time>2012-07-26T10:13:12Z</time>
      </trkpt>
      <trkpt lat="42.83402" lon="-0.59786">
        <ele>1877.592041</ele>
        <time>2012-07-26T10:13:20Z</time>
      </trkpt>
      <trkpt lat="42.83412" lon="-0.59794">
        <ele>1878.072754</ele>
        <time>2012-07-26T10:13:42Z</time>
      </trkpt>
      <trkpt lat="42.83416" lon="-0.59799">
        <ele>1879.033936</ele>
        <time>2012-07-26T10:14:04Z</time>
      </trkpt>
      <trkpt lat="42.83422" lon="-0.59807">
        <ele>1879.033936</ele>
        <time>2012-07-26T10:14:50Z</time>
      </trkpt>
      <trkpt lat="42.83436" lon="-0.59824">
        <ele>1879.995361</ele>
        <time>2012-07-26T10:15:12Z</time>
      </trkpt>
      <trkpt lat="42.83448" lon="-0.5984">
        <ele>1881.917969</ele>
        <time>2012-07-26T10:15:31Z</time>
      </trkpt>
      <trkpt lat="42.83452" lon="-0.59857">
        <ele>1885.282715</ele>
        <time>2012-07-26T10:15:48Z</time>
      </trkpt>
      <trkpt lat="42.83453" lon="-0.5986">
        <ele>1884.321533</ele>
        <time>2012-07-26T10:15:50Z</time>
      </trkpt>
      <trkpt lat="42.83454" lon="-0.59865">
        <ele>1885.282715</ele>
        <time>2012-07-26T10:15:54Z</time>
      </trkpt>
      <trkpt lat="42.83457" lon="-0.59873">
        <ele>1885.763428</ele>
        <time>2012-07-26T10:16:02Z</time>
      </trkpt>
      <trkpt lat="42.83465" lon="-0.59884">
        <ele>1886.244141</ele>
        <time>2012-07-26T10:16:13Z</time>
      </trkpt>
      <trkpt lat="42.8347" lon="-0.5991">
        <ele>1887.205322</ele>
        <time>2012-07-26T10:16:33Z</time>
      </trkpt>
      <trkpt lat="42.83483" lon="-0.59921">
        <ele>1887.205322</ele>
        <time>2012-07-26T10:16:47Z</time>
      </trkpt>
      <trkpt lat="42.83486" lon="-0.59927">
        <ele>1887.686035</ele>
        <time>2012-07-26T10:16:52Z</time>
      </trkpt>
      <trkpt lat="42.83489" lon="-0.59934">
        <ele>1887.686035</ele>
        <time>2012-07-26T10:16:58Z</time>
      </trkpt>
      <trkpt lat="42.83503" lon="-0.59953">
        <ele>1886.244141</ele>
        <time>2012-07-26T10:17:17Z</time>
      </trkpt>
      <trkpt lat="42.83511" lon="-0.59962">
        <ele>1886.724609</ele>
        <time>2012-07-26T10:17:26Z</time>
      </trkpt>
      <trkpt lat="42.83518" lon="-0.59971">
        <ele>1885.763428</ele>
        <time>2012-07-26T10:17:37Z</time>
      </trkpt>
      <trkpt lat="42.83524" lon="-0.59979">
        <ele>1883.840576</ele>
        <time>2012-07-26T10:17:44Z</time>
      </trkpt>
      <trkpt lat="42.83523" lon="-0.60012">
        <ele>1880.956787</ele>
        <time>2012-07-26T10:18:06Z</time>
      </trkpt>
      <trkpt lat="42.83514" lon="-0.60029">
        <ele>1879.995361</ele>
        <time>2012-07-26T10:18:20Z</time>
      </trkpt>
      <trkpt lat="42.83495" lon="-0.60058">
        <ele>1879.514648</ele>
        <time>2012-07-26T10:18:43Z</time>
      </trkpt>
      <trkpt lat="42.83499" lon="-0.60082">
        <ele>1880.476074</ele>
        <time>2012-07-26T10:19:01Z</time>
      </trkpt>
      <trkpt lat="42.83501" lon="-0.60087">
        <ele>1880.476074</ele>
        <time>2012-07-26T10:19:05Z</time>
      </trkpt>
      <trkpt lat="42.83508" lon="-0.6009">
        <ele>1882.398682</ele>
        <time>2012-07-26T10:19:12Z</time>
      </trkpt>
      <trkpt lat="42.83522" lon="-0.601">
        <ele>1885.763428</ele>
        <time>2012-07-26T10:19:30Z</time>
      </trkpt>
      <trkpt lat="42.83534" lon="-0.60112">
        <ele>1886.724609</ele>
        <time>2012-07-26T10:19:49Z</time>
      </trkpt>
      <trkpt lat="42.83537" lon="-0.60124">
        <ele>1888.166748</ele>
        <time>2012-07-26T10:20:03Z</time>
      </trkpt>
      <trkpt lat="42.83538" lon="-0.60143">
        <ele>1891.53125</ele>
        <time>2012-07-26T10:20:19Z</time>
      </trkpt>
      <trkpt lat="42.83542" lon="-0.60163">
        <ele>1892.492676</ele>
        <time>2012-07-26T10:20:37Z</time>
      </trkpt>
      <trkpt lat="42.83546" lon="-0.60182">
        <ele>1893.453857</ele>
        <time>2012-07-26T10:20:54Z</time>
      </trkpt>
      <trkpt lat="42.83542" lon="-0.60196">
        <ele>1896.818359</ele>
        <time>2012-07-26T10:21:11Z</time>
      </trkpt>
      <trkpt lat="42.8354" lon="-0.60211">
        <ele>1899.22168</ele>
        <time>2012-07-26T10:21:29Z</time>
      </trkpt>
      <trkpt lat="42.83545" lon="-0.60225">
        <ele>1903.067139</ele>
        <time>2012-07-26T10:21:48Z</time>
      </trkpt>
      <trkpt lat="42.8355" lon="-0.6024">
        <ele>1905.470459</ele>
        <time>2012-07-26T10:22:06Z</time>
      </trkpt>
      <trkpt lat="42.83556" lon="-0.60256">
        <ele>1907.873779</ele>
        <time>2012-07-26T10:22:25Z</time>
      </trkpt>
      <trkpt lat="42.83563" lon="-0.60273">
        <ele>1909.796143</ele>
        <time>2012-07-26T10:22:44Z</time>
      </trkpt>
      <trkpt lat="42.83569" lon="-0.60294">
        <ele>1911.718994</ele>
        <time>2012-07-26T10:23:03Z</time>
      </trkpt>
      <trkpt lat="42.83573" lon="-0.60312">
        <ele>1914.602783</ele>
        <time>2012-07-26T10:23:21Z</time>
      </trkpt>
      <trkpt lat="42.83578" lon="-0.60331">
        <ele>1916.525635</ele>
        <time>2012-07-26T10:23:39Z</time>
      </trkpt>
      <trkpt lat="42.8358" lon="-0.60341">
        <ele>1916.525635</ele>
        <time>2012-07-26T10:23:58Z</time>
      </trkpt>
      <trkpt lat="42.83584" lon="-0.60354">
        <ele>1917.486816</ele>
        <time>2012-07-26T10:24:17Z</time>
      </trkpt>
      <trkpt lat="42.83584" lon="-0.60359">
        <ele>1920.37085</ele>
        <time>2012-07-26T10:24:32Z</time>
      </trkpt>
      <trkpt lat="42.8359" lon="-0.60374">
        <ele>1922.293457</ele>
        <time>2012-07-26T10:24:51Z</time>
      </trkpt>
      <trkpt lat="42.83592" lon="-0.60382">
        <ele>1923.254883</ele>
        <time>2012-07-26T10:25:00Z</time>
      </trkpt>
      <trkpt lat="42.83596" lon="-0.60395">
        <ele>1925.177246</ele>
        <time>2012-07-26T10:25:15Z</time>
      </trkpt>
      <trkpt lat="42.83598" lon="-0.60402">
        <ele>1925.657959</ele>
        <time>2012-07-26T10:25:33Z</time>
      </trkpt>
      <trkpt lat="42.83604" lon="-0.60414">
        <ele>1927.100098</ele>
        <time>2012-07-26T10:26:51Z</time>
      </trkpt>
      <trkpt lat="42.83613" lon="-0.60429">
        <ele>1929.022461</ele>
        <time>2012-07-26T10:27:09Z</time>
      </trkpt>
      <trkpt lat="42.83621" lon="-0.60444">
        <ele>1932.387451</ele>
        <time>2012-07-26T10:27:28Z</time>
      </trkpt>
      <trkpt lat="42.8363" lon="-0.60461">
        <ele>1933.829346</ele>
        <time>2012-07-26T10:27:46Z</time>
      </trkpt>
      <trkpt lat="42.83633" lon="-0.60466">
        <ele>1935.27124</ele>
        <time>2012-07-26T10:27:52Z</time>
      </trkpt>
      <trkpt lat="42.83641" lon="-0.6048">
        <ele>1936.713135</ele>
        <time>2012-07-26T10:28:10Z</time>
      </trkpt>
      <trkpt lat="42.83648" lon="-0.60496">
        <ele>1938.155273</ele>
        <time>2012-07-26T10:28:26Z</time>
      </trkpt>
      <trkpt lat="42.83653" lon="-0.60513">
        <ele>1940.55835</ele>
        <time>2012-07-26T10:28:45Z</time>
      </trkpt>
      <trkpt lat="42.83659" lon="-0.60522">
        <ele>1943.442383</ele>
        <time>2012-07-26T10:28:57Z</time>
      </trkpt>
      <trkpt lat="42.83661" lon="-0.60529">
        <ele>1942.96167</ele>
        <time>2012-07-26T10:29:04Z</time>
      </trkpt>
      <trkpt lat="42.83667" lon="-0.60544">
        <ele>1943.442383</ele>
        <time>2012-07-26T10:29:20Z</time>
      </trkpt>
      <trkpt lat="42.83674" lon="-0.60559">
        <ele>1946.326416</ele>
        <time>2012-07-26T10:29:40Z</time>
      </trkpt>
      <trkpt lat="42.83678" lon="-0.60573">
        <ele>1947.768311</ele>
        <time>2012-07-26T10:29:57Z</time>
      </trkpt>
      <trkpt lat="42.83684" lon="-0.6059">
        <ele>1951.133057</ele>
        <time>2012-07-26T10:30:16Z</time>
      </trkpt>
      <trkpt lat="42.83684" lon="-0.60591">
        <ele>1951.133057</ele>
        <time>2012-07-26T10:30:17Z</time>
      </trkpt>
      <trkpt lat="42.83686" lon="-0.60596">
        <ele>1954.978271</ele>
        <time>2012-07-26T10:30:23Z</time>
      </trkpt>
      <trkpt lat="42.83694" lon="-0.60608">
        <ele>1956.420166</ele>
        <time>2012-07-26T10:30:38Z</time>
      </trkpt>
      <trkpt lat="42.83705" lon="-0.60624">
        <ele>1956.420166</ele>
        <time>2012-07-26T10:30:58Z</time>
      </trkpt>
      <trkpt lat="42.83714" lon="-0.60637">
        <ele>1960.265381</ele>
        <time>2012-07-26T10:31:14Z</time>
      </trkpt>
      <trkpt lat="42.83715" lon="-0.60638">
        <ele>1960.746094</ele>
        <time>2012-07-26T10:31:15Z</time>
      </trkpt>
      <trkpt lat="42.83724" lon="-0.60655">
        <ele>1960.746094</ele>
        <time>2012-07-26T10:31:33Z</time>
      </trkpt>
      <trkpt lat="42.83733" lon="-0.6067">
        <ele>1960.265381</ele>
        <time>2012-07-26T10:31:50Z</time>
      </trkpt>
      <trkpt lat="42.83744" lon="-0.60684">
        <ele>1960.746094</ele>
        <time>2012-07-26T10:32:08Z</time>
      </trkpt>
      <trkpt lat="42.83756" lon="-0.607">
        <ele>1961.70752</ele>
        <time>2012-07-26T10:32:28Z</time>
      </trkpt>
      <trkpt lat="42.83767" lon="-0.60709">
        <ele>1961.226807</ele>
        <time>2012-07-26T10:32:41Z</time>
      </trkpt>
      <trkpt lat="42.8377" lon="-0.60709">
        <ele>1961.70752</ele>
        <time>2012-07-26T10:32:44Z</time>
      </trkpt>
      <trkpt lat="42.83781" lon="-0.60709">
        <ele>1962.668701</ele>
        <time>2012-07-26T10:32:57Z</time>
      </trkpt>
      <trkpt lat="42.83796" lon="-0.60717">
        <ele>1965.072266</ele>
        <time>2012-07-26T10:33:14Z</time>
      </trkpt>
      <trkpt lat="42.83816" lon="-0.60726">
        <ele>1964.11084</ele>
        <time>2012-07-26T10:33:34Z</time>
      </trkpt>
      <trkpt lat="42.83828" lon="-0.60732">
        <ele>1963.149414</ele>
        <time>2012-07-26T10:33:46Z</time>
      </trkpt>
      <trkpt lat="42.83849" lon="-0.60742">
        <ele>1965.072266</ele>
        <time>2012-07-26T10:34:07Z</time>
      </trkpt>
      <trkpt lat="42.83867" lon="-0.60752">
        <ele>1965.552979</ele>
        <time>2012-07-26T10:34:26Z</time>
      </trkpt>
      <trkpt lat="42.8387" lon="-0.60754">
        <ele>1966.033447</ele>
        <time>2012-07-26T10:34:29Z</time>
      </trkpt>
      <trkpt lat="42.83881" lon="-0.60773">
        <ele>1966.994873</ele>
        <time>2012-07-26T10:34:46Z</time>
      </trkpt>
      <trkpt lat="42.83888" lon="-0.60783">
        <ele>1968.436768</ele>
        <time>2012-07-26T10:34:56Z</time>
      </trkpt>
      <trkpt lat="42.83897" lon="-0.60797">
        <ele>1972.281982</ele>
        <time>2012-07-26T10:35:11Z</time>
      </trkpt>
      <trkpt lat="42.83899" lon="-0.60798">
        <ele>1971.320557</ele>
        <time>2012-07-26T10:35:13Z</time>
      </trkpt>
      <trkpt lat="42.83913" lon="-0.60803">
        <ele>1974.685303</ele>
        <time>2012-07-26T10:35:31Z</time>
      </trkpt>
      <trkpt lat="42.8392" lon="-0.60806">
        <ele>1978.049805</ele>
        <time>2012-07-26T10:35:41Z</time>
      </trkpt>
      <trkpt lat="42.83929" lon="-0.60802">
        <ele>1981.414551</ele>
        <time>2012-07-26T10:35:54Z</time>
      </trkpt>
      <trkpt lat="42.83932" lon="-0.60801">
        <ele>1984.298584</ele>
        <time>2012-07-26T10:35:58Z</time>
      </trkpt>
      <trkpt lat="42.83946" lon="-0.60799">
        <ele>1988.143799</ele>
        <time>2012-07-26T10:36:14Z</time>
      </trkpt>
      <trkpt lat="42.83954" lon="-0.60796">
        <ele>1987.663086</ele>
        <time>2012-07-26T10:36:23Z</time>
      </trkpt>
      <trkpt lat="42.83955" lon="-0.60795">
        <ele>1984.298584</ele>
        <time>2012-07-26T10:36:25Z</time>
      </trkpt>
      <trkpt lat="42.83955" lon="-0.60795">
        <ele>1982.856445</ele>
        <time>2012-07-26T10:36:27Z</time>
      </trkpt>
      <trkpt lat="42.83962" lon="-0.60794">
        <ele>1985.740479</ele>
        <time>2012-07-26T10:37:06Z</time>
      </trkpt>
      <trkpt lat="42.83978" lon="-0.60786">
        <ele>1987.663086</ele>
        <time>2012-07-26T10:37:24Z</time>
      </trkpt>
      <trkpt lat="42.83996" lon="-0.60783">
        <ele>1988.143799</ele>
        <time>2012-07-26T10:37:45Z</time>
      </trkpt>
      <trkpt lat="42.83998" lon="-0.60783">
        <ele>1988.624512</ele>
        <time>2012-07-26T10:37:47Z</time>
      </trkpt>
      <trkpt lat="42.84004" lon="-0.60785">
        <ele>1993.430908</ele>
        <time>2012-07-26T10:37:54Z</time>
      </trkpt>
      <trkpt lat="42.84007" lon="-0.60787">
        <ele>1990.546875</ele>
        <time>2012-07-26T10:37:57Z</time>
      </trkpt>
      <trkpt lat="42.84008" lon="-0.60789">
        <ele>1992.950195</ele>
        <time>2012-07-26T10:37:59Z</time>
      </trkpt>
      <trkpt lat="42.8401" lon="-0.60791">
        <ele>1996.315186</ele>
        <time>2012-07-26T10:38:02Z</time>
      </trkpt>
      <trkpt lat="42.8401" lon="-0.60792">
        <ele>1996.315186</ele>
        <time>2012-07-26T10:38:03Z</time>
      </trkpt>
      <trkpt lat="42.84013" lon="-0.60795">
        <ele>1995.353516</ele>
        <time>2012-07-26T10:38:08Z</time>
      </trkpt>
      <trkpt lat="42.84014" lon="-0.60795">
        <ele>1991.508301</ele>
        <time>2012-07-26T10:38:09Z</time>
      </trkpt>
      <trkpt lat="42.84018" lon="-0.60795">
        <ele>1988.624512</ele>
        <time>2012-07-26T10:38:13Z</time>
      </trkpt>
      <trkpt lat="42.84034" lon="-0.608">
        <ele>1990.546875</ele>
        <time>2012-07-26T10:38:28Z</time>
      </trkpt>
      <trkpt lat="42.84049" lon="-0.60801">
        <ele>1993.430908</ele>
        <time>2012-07-26T10:38:43Z</time>
      </trkpt>
      <trkpt lat="42.84059" lon="-0.60806">
        <ele>1995.834229</ele>
        <time>2012-07-26T10:38:49Z</time>
      </trkpt>
      <trkpt lat="42.84066" lon="-0.6081">
        <ele>1998.718262</ele>
        <time>2012-07-26T10:38:55Z</time>
      </trkpt>
      <trkpt lat="42.84068" lon="-0.6081">
        <ele>1998.718262</ele>
        <time>2012-07-26T10:39:12Z</time>
      </trkpt>
      <trkpt lat="42.84077" lon="-0.60812">
        <ele>2000.640869</ele>
        <time>2012-07-26T10:39:36Z</time>
      </trkpt>
      <trkpt lat="42.8408" lon="-0.60813">
        <ele>2004.005615</ele>
        <time>2012-07-26T10:39:46Z</time>
      </trkpt>
      <trkpt lat="42.8408" lon="-0.60814">
        <ele>2004.005615</ele>
        <time>2012-07-26T10:39:47Z</time>
      </trkpt>
      <trkpt lat="42.8408" lon="-0.60814">
        <ele>2005.927979</ele>
        <time>2012-07-26T10:39:51Z</time>
      </trkpt>
      <trkpt lat="42.8408" lon="-0.60814">
        <ele>2001.602295</ele>
        <time>2012-07-26T10:39:54Z</time>
      </trkpt>
      <trkpt lat="42.8408" lon="-0.60814">
        <ele>2001.602295</ele>
        <time>2012-07-26T10:39:55Z</time>
      </trkpt>
      <trkpt lat="42.84081" lon="-0.60814">
        <ele>2000.1604</ele>
        <time>2012-07-26T10:39:58Z</time>
      </trkpt>
      <trkpt lat="42.84086" lon="-0.60818">
        <ele>2004.486084</ele>
        <time>2012-07-26T10:40:13Z</time>
      </trkpt>
      <trkpt lat="42.8409" lon="-0.60822">
        <ele>2006.889404</ele>
        <time>2012-07-26T10:40:21Z</time>
      </trkpt>
      <trkpt lat="42.84091" lon="-0.60824">
        <ele>2006.408691</ele>
        <time>2012-07-26T10:40:23Z</time>
      </trkpt>
      <trkpt lat="42.84093" lon="-0.60827">
        <ele>2002.082764</ele>
        <time>2012-07-26T10:40:26Z</time>
      </trkpt>
      <trkpt lat="42.84095" lon="-0.60831">
        <ele>2001.602295</ele>
        <time>2012-07-26T10:40:29Z</time>
      </trkpt>
      <trkpt lat="42.84104" lon="-0.60849">
        <ele>2003.044189</ele>
        <time>2012-07-26T10:40:47Z</time>
      </trkpt>
      <trkpt lat="42.84105" lon="-0.60853">
        <ele>2004.005615</ele>
        <time>2012-07-26T10:41:03Z</time>
      </trkpt>
      <trkpt lat="42.84111" lon="-0.60868">
        <ele>2005.44751</ele>
        <time>2012-07-26T10:41:22Z</time>
      </trkpt>
      <trkpt lat="42.84114" lon="-0.60871">
        <ele>2009.292725</ele>
        <time>2012-07-26T10:41:40Z</time>
      </trkpt>
      <trkpt lat="42.84117" lon="-0.60873">
        <ele>2010.734619</ele>
        <time>2012-07-26T10:41:55Z</time>
      </trkpt>
      <trkpt lat="42.84117" lon="-0.60872">
        <ele>2012.657471</ele>
        <time>2012-07-26T10:42:06Z</time>
      </trkpt>
      <trkpt lat="42.84119" lon="-0.60874">
        <ele>2011.215332</ele>
        <time>2012-07-26T10:42:13Z</time>
      </trkpt>
      <trkpt lat="42.8412" lon="-0.60875">
        <ele>2013.138184</ele>
        <time>2012-07-26T10:42:15Z</time>
      </trkpt>
      <trkpt lat="42.84127" lon="-0.60885">
        <ele>2010.253906</ele>
        <time>2012-07-26T10:42:29Z</time>
      </trkpt>
      <trkpt lat="42.84139" lon="-0.60892">
        <ele>2013.618652</ele>
        <time>2012-07-26T10:42:45Z</time>
      </trkpt>
      <trkpt lat="42.84148" lon="-0.60909">
        <ele>2014.099365</ele>
        <time>2012-07-26T10:43:03Z</time>
      </trkpt>
      <trkpt lat="42.84155" lon="-0.60922">
        <ele>2015.541504</ele>
        <time>2012-07-26T10:43:18Z</time>
      </trkpt>
      <trkpt lat="42.84155" lon="-0.60925">
        <ele>2011.215332</ele>
        <time>2012-07-26T10:43:21Z</time>
      </trkpt>
      <trkpt lat="42.84156" lon="-0.60931">
        <ele>2014.580078</ele>
        <time>2012-07-26T10:43:28Z</time>
      </trkpt>
      <trkpt lat="42.84157" lon="-0.60933">
        <ele>2015.060791</ele>
        <time>2012-07-26T10:43:30Z</time>
      </trkpt>
      <trkpt lat="42.84158" lon="-0.60935">
        <ele>2010.734619</ele>
        <time>2012-07-26T10:43:40Z</time>
      </trkpt>
      <trkpt lat="42.84157" lon="-0.60936">
        <ele>2014.580078</ele>
        <time>2012-07-26T10:43:46Z</time>
      </trkpt>
      <trkpt lat="42.84158" lon="-0.60937">
        <ele>2014.580078</ele>
        <time>2012-07-26T10:43:47Z</time>
      </trkpt>
      <trkpt lat="42.84165" lon="-0.60955">
        <ele>2018.425293</ele>
        <time>2012-07-26T10:44:05Z</time>
      </trkpt>
      <trkpt lat="42.84165" lon="-0.60956">
        <ele>2018.425293</ele>
        <time>2012-07-26T10:44:06Z</time>
      </trkpt>
      <trkpt lat="42.84162" lon="-0.60964">
        <ele>2022.270508</ele>
        <time>2012-07-26T10:44:14Z</time>
      </trkpt>
      <trkpt lat="42.8416" lon="-0.60969">
        <ele>2023.712402</ele>
        <time>2012-07-26T10:44:19Z</time>
      </trkpt>
      <trkpt lat="42.84147" lon="-0.60986">
        <ele>2024.193115</ele>
        <time>2012-07-26T10:44:39Z</time>
      </trkpt>
      <trkpt lat="42.84142" lon="-0.60989">
        <ele>2024.673828</ele>
        <time>2012-07-26T10:44:59Z</time>
      </trkpt>
      <trkpt lat="42.84141" lon="-0.60992">
        <ele>2024.673828</ele>
        <time>2012-07-26T10:45:02Z</time>
      </trkpt>
      <trkpt lat="42.84137" lon="-0.60997">
        <ele>2024.193115</ele>
        <time>2012-07-26T10:45:08Z</time>
      </trkpt>
      <trkpt lat="42.84122" lon="-0.61013">
        <ele>2024.673828</ele>
        <time>2012-07-26T10:45:28Z</time>
      </trkpt>
      <trkpt lat="42.84107" lon="-0.61031">
        <ele>2026.596436</ele>
        <time>2012-07-26T10:45:46Z</time>
      </trkpt>
      <trkpt lat="42.84104" lon="-0.61036">
        <ele>2023.712402</ele>
        <time>2012-07-26T10:45:50Z</time>
      </trkpt>
      <trkpt lat="42.841" lon="-0.61039">
        <ele>2022.751221</ele>
        <time>2012-07-26T10:45:55Z</time>
      </trkpt>
      <trkpt lat="42.84097" lon="-0.61042">
        <ele>2018.906006</ele>
        <time>2012-07-26T10:45:58Z</time>
      </trkpt>
      <trkpt lat="42.84096" lon="-0.61043">
        <ele>2018.906006</ele>
        <time>2012-07-26T10:45:59Z</time>
      </trkpt>
      <trkpt lat="42.8408" lon="-0.61061">
        <ele>2019.386719</ele>
        <time>2012-07-26T10:46:17Z</time>
      </trkpt>
      <trkpt lat="42.84061" lon="-0.6108">
        <ele>2018.425293</ele>
        <time>2012-07-26T10:46:38Z</time>
      </trkpt>
      <trkpt lat="42.84042" lon="-0.61102">
        <ele>2016.502686</ele>
        <time>2012-07-26T10:47:00Z</time>
      </trkpt>
      <trkpt lat="42.84037" lon="-0.61109">
        <ele>2019.386719</ele>
        <time>2012-07-26T10:47:06Z</time>
      </trkpt>
      <trkpt lat="42.84036" lon="-0.6111">
        <ele>2018.906006</ele>
        <time>2012-07-26T10:47:07Z</time>
      </trkpt>
      <trkpt lat="42.84035" lon="-0.6111">
        <ele>2016.502686</ele>
        <time>2012-07-26T10:47:08Z</time>
      </trkpt>
      <trkpt lat="42.84025" lon="-0.61123">
        <ele>2016.021973</ele>
        <time>2012-07-26T10:47:19Z</time>
      </trkpt>
      <trkpt lat="42.84019" lon="-0.61128">
        <ele>2014.580078</ele>
        <time>2012-07-26T10:47:24Z</time>
      </trkpt>
      <trkpt lat="42.84003" lon="-0.61144">
        <ele>2011.215332</ele>
        <time>2012-07-26T10:47:40Z</time>
      </trkpt>
      <trkpt lat="42.83985" lon="-0.61157">
        <ele>2009.292725</ele>
        <time>2012-07-26T10:47:57Z</time>
      </trkpt>
      <trkpt lat="42.8398" lon="-0.61159">
        <ele>2008.812012</ele>
        <time>2012-07-26T10:48:01Z</time>
      </trkpt>
      <trkpt lat="42.83973" lon="-0.61167">
        <ele>2010.253906</ele>
        <time>2012-07-26T10:48:08Z</time>
      </trkpt>
      <trkpt lat="42.83969" lon="-0.6117">
        <ele>2012.176758</ele>
        <time>2012-07-26T10:48:12Z</time>
      </trkpt>
      <trkpt lat="42.83959" lon="-0.6118">
        <ele>2008.331299</ele>
        <time>2012-07-26T10:48:25Z</time>
      </trkpt>
      <trkpt lat="42.83958" lon="-0.61182">
        <ele>2006.889404</ele>
        <time>2012-07-26T10:48:27Z</time>
      </trkpt>
      <trkpt lat="42.83957" lon="-0.61184">
        <ele>2005.927979</ele>
        <time>2012-07-26T10:48:29Z</time>
      </trkpt>
      <trkpt lat="42.83941" lon="-0.61205">
        <ele>2003.044189</ele>
        <time>2012-07-26T10:48:49Z</time>
      </trkpt>
      <trkpt lat="42.83934" lon="-0.61216">
        <ele>2002.082764</ele>
        <time>2012-07-26T10:49:03Z</time>
      </trkpt>
      <trkpt lat="42.8393" lon="-0.61223">
        <ele>2000.1604</ele>
        <time>2012-07-26T10:49:28Z</time>
      </trkpt>
      <trkpt lat="42.83925" lon="-0.61225">
        <ele>1999.198975</ele>
        <time>2012-07-26T10:49:33Z</time>
      </trkpt>
      <trkpt lat="42.83924" lon="-0.61226">
        <ele>2001.121582</ele>
        <time>2012-07-26T10:49:35Z</time>
      </trkpt>
      <trkpt lat="42.83923" lon="-0.61228">
        <ele>2000.1604</ele>
        <time>2012-07-26T10:49:50Z</time>
      </trkpt>
      <trkpt lat="42.83927" lon="-0.61241">
        <ele>1996.795654</ele>
        <time>2012-07-26T10:49:59Z</time>
      </trkpt>
      <trkpt lat="42.83934" lon="-0.61262">
        <ele>1995.834229</ele>
        <time>2012-07-26T10:50:14Z</time>
      </trkpt>
      <trkpt lat="42.83936" lon="-0.61264">
        <ele>1996.795654</ele>
        <time>2012-07-26T10:50:17Z</time>
      </trkpt>
      <trkpt lat="42.83937" lon="-0.61266">
        <ele>1995.834229</ele>
        <time>2012-07-26T10:50:19Z</time>
      </trkpt>
      <trkpt lat="42.83939" lon="-0.6127">
        <ele>1994.39209</ele>
        <time>2012-07-26T10:50:22Z</time>
      </trkpt>
      <trkpt lat="42.83946" lon="-0.61278">
        <ele>1993.430908</ele>
        <time>2012-07-26T10:50:30Z</time>
      </trkpt>
      <trkpt lat="42.83958" lon="-0.61297">
        <ele>1993.430908</ele>
        <time>2012-07-26T10:50:45Z</time>
      </trkpt>
      <trkpt lat="42.83958" lon="-0.61328">
        <ele>1993.430908</ele>
        <time>2012-07-26T10:51:06Z</time>
      </trkpt>
      <trkpt lat="42.83963" lon="-0.61335">
        <ele>1992.469727</ele>
        <time>2012-07-26T10:51:21Z</time>
      </trkpt>
      <trkpt lat="42.83971" lon="-0.61351">
        <ele>1991.989014</ele>
        <time>2012-07-26T10:51:40Z</time>
      </trkpt>
      <trkpt lat="42.83977" lon="-0.61378">
        <ele>1993.430908</ele>
        <time>2012-07-26T10:52:01Z</time>
      </trkpt>
      <trkpt lat="42.83984" lon="-0.61405">
        <ele>1993.430908</ele>
        <time>2012-07-26T10:52:23Z</time>
      </trkpt>
      <trkpt lat="42.83976" lon="-0.61407">
        <ele>1992.469727</ele>
        <time>2012-07-26T10:52:36Z</time>
      </trkpt>
      <trkpt lat="42.83973" lon="-0.61415">
        <ele>1989.585693</ele>
        <time>2012-07-26T10:52:49Z</time>
      </trkpt>
      <trkpt lat="42.83976" lon="-0.61417">
        <ele>1990.066406</ele>
        <time>2012-07-26T10:53:01Z</time>
      </trkpt>
    </trkseg>
  </trk>
  <trk>
    <name><![CDATA[ACTIVE LOG 003]]></name>
    <trkseg>
      <trkpt lat="42.83976" lon="-0.61416">
        <ele>1944.884277</ele>
        <time>2012-07-26T11:09:58Z</time>
      </trkpt>
      <trkpt lat="42.83973" lon="-0.61419">
        <ele>1949.210449</ele>
        <time>2012-07-26T11:10:05Z</time>
      </trkpt>
      <trkpt lat="42.83975" lon="-0.6142">
        <ele>1953.055664</ele>
        <time>2012-07-26T11:10:08Z</time>
      </trkpt>
      <trkpt lat="42.83977" lon="-0.61419">
        <ele>1956.900879</ele>
        <time>2012-07-26T11:10:10Z</time>
      </trkpt>
      <trkpt lat="42.83977" lon="-0.61419">
        <ele>1958.342773</ele>
        <time>2012-07-26T11:10:12Z</time>
      </trkpt>
      <trkpt lat="42.83978" lon="-0.61418">
        <ele>1962.187988</ele>
        <time>2012-07-26T11:10:14Z</time>
      </trkpt>
      <trkpt lat="42.83978" lon="-0.61418">
        <ele>1962.668701</ele>
        <time>2012-07-26T11:10:15Z</time>
      </trkpt>
      <trkpt lat="42.83978" lon="-0.61418">
        <ele>1965.552979</ele>
        <time>2012-07-26T11:10:18Z</time>
      </trkpt>
      <trkpt lat="42.83977" lon="-0.61418">
        <ele>1968.91748</ele>
        <time>2012-07-26T11:10:22Z</time>
      </trkpt>
      <trkpt lat="42.83975" lon="-0.61418">
        <ele>1972.281982</ele>
        <time>2012-07-26T11:10:27Z</time>
      </trkpt>
      <trkpt lat="42.83975" lon="-0.61418">
        <ele>1975.646484</ele>
        <time>2012-07-26T11:10:32Z</time>
      </trkpt>
      <trkpt lat="42.83975" lon="-0.61418">
        <ele>1976.60791</ele>
        <time>2012-07-26T11:10:34Z</time>
      </trkpt>
      <trkpt lat="42.83975" lon="-0.61417">
        <ele>1979.972412</ele>
        <time>2012-07-26T11:10:39Z</time>
      </trkpt>
      <trkpt lat="42.83975" lon="-0.61417">
        <ele>1983.817871</ele>
        <time>2012-07-26T11:10:47Z</time>
      </trkpt>
      <trkpt lat="42.83975" lon="-0.61417">
        <ele>1987.182373</ele>
        <time>2012-07-26T11:10:55Z</time>
      </trkpt>
      <trkpt lat="42.83975" lon="-0.61417">
        <ele>1990.546875</ele>
        <time>2012-07-26T11:11:10Z</time>
      </trkpt>
      <trkpt lat="42.83975" lon="-0.61417">
        <ele>1993.911621</ele>
        <time>2012-07-26T11:11:24Z</time>
      </trkpt>
      <trkpt lat="42.83976" lon="-0.61416">
        <ele>1993.911621</ele>
        <time>2012-07-26T11:14:42Z</time>
      </trkpt>
      <trkpt lat="42.83977" lon="-0.61416">
        <ele>1992.950195</ele>
        <time>2012-07-26T11:15:50Z</time>
      </trkpt>
      <trkpt lat="42.83977" lon="-0.61415">
        <ele>1994.39209</ele>
        <time>2012-07-26T11:19:18Z</time>
      </trkpt>
      <trkpt lat="42.83973" lon="-0.61418">
        <ele>1991.989014</ele>
        <time>2012-07-26T11:20:59Z</time>
      </trkpt>
      <trkpt lat="42.83975" lon="-0.61417">
        <ele>1995.353516</ele>
        <time>2012-07-26T11:25:25Z</time>
      </trkpt>
      <trkpt lat="42.83968" lon="-0.61417">
        <ele>1992.950195</ele>
        <time>2012-07-26T11:30:44Z</time>
      </trkpt>
      <trkpt lat="42.83978" lon="-0.61411">
        <ele>1993.430908</ele>
        <time>2012-07-26T11:31:24Z</time>
      </trkpt>
      <trkpt lat="42.83979" lon="-0.61419">
        <ele>1994.39209</ele>
        <time>2012-07-26T11:33:51Z</time>
      </trkpt>
      <trkpt lat="42.83972" lon="-0.61418">
        <ele>1995.834229</ele>
        <time>2012-07-26T11:34:41Z</time>
      </trkpt>
      <trkpt lat="42.83976" lon="-0.61418">
        <ele>1996.795654</ele>
        <time>2012-07-26T11:35:25Z</time>
      </trkpt>
      <trkpt lat="42.83977" lon="-0.61421">
        <ele>1994.39209</ele>
        <time>2012-07-26T11:35:56Z</time>
      </trkpt>
      <trkpt lat="42.83976" lon="-0.61415">
        <ele>1994.39209</ele>
        <time>2012-07-26T11:41:23Z</time>
      </trkpt>
      <trkpt lat="42.83974" lon="-0.61423">
        <ele>1993.911621</ele>
        <time>2012-07-26T11:41:50Z</time>
      </trkpt>
      <trkpt lat="42.83974" lon="-0.61418">
        <ele>1993.911621</ele>
        <time>2012-07-26T11:44:16Z</time>
      </trkpt>
      <trkpt lat="42.8398" lon="-0.61422">
        <ele>1992.950195</ele>
        <time>2012-07-26T11:44:43Z</time>
      </trkpt>
      <trkpt lat="42.83979" lon="-0.61422">
        <ele>1991.508301</ele>
        <time>2012-07-26T11:45:16Z</time>
      </trkpt>
      <trkpt lat="42.83978" lon="-0.6142">
        <ele>1992.950195</ele>
        <time>2012-07-26T11:45:31Z</time>
      </trkpt>
      <trkpt lat="42.83977" lon="-0.61417">
        <ele>1991.989014</ele>
        <time>2012-07-26T11:45:53Z</time>
      </trkpt>
      <trkpt lat="42.83975" lon="-0.61414">
        <ele>1992.950195</ele>
        <time>2012-07-26T11:46:13Z</time>
      </trkpt>
      <trkpt lat="42.83977" lon="-0.61408">
        <ele>1995.353516</ele>
        <time>2012-07-26T11:46:27Z</time>
      </trkpt>
      <trkpt lat="42.83987" lon="-0.61411">
        <ele>1995.353516</ele>
        <time>2012-07-26T11:46:44Z</time>
      </trkpt>
      <trkpt lat="42.83989" lon="-0.61412">
        <ele>1996.315186</ele>
        <time>2012-07-26T11:46:55Z</time>
      </trkpt>
      <trkpt lat="42.83987" lon="-0.61407">
        <ele>1995.834229</ele>
        <time>2012-07-26T11:47:21Z</time>
      </trkpt>
      <trkpt lat="42.83982" lon="-0.61395">
        <ele>1995.834229</ele>
        <time>2012-07-26T11:47:39Z</time>
      </trkpt>
      <trkpt lat="42.8398" lon="-0.61391">
        <ele>1997.276367</ele>
        <time>2012-07-26T11:47:43Z</time>
      </trkpt>
      <trkpt lat="42.83978" lon="-0.61372">
        <ele>1996.795654</ele>
        <time>2012-07-26T11:48:02Z</time>
      </trkpt>
      <trkpt lat="42.83971" lon="-0.6135">
        <ele>1996.315186</ele>
        <time>2012-07-26T11:48:21Z</time>
      </trkpt>
      <trkpt lat="42.8396" lon="-0.6133">
        <ele>1997.276367</ele>
        <time>2012-07-26T11:48:41Z</time>
      </trkpt>
      <trkpt lat="42.83957" lon="-0.61325">
        <ele>1997.276367</ele>
        <time>2012-07-26T11:48:47Z</time>
      </trkpt>
      <trkpt lat="42.83958" lon="-0.61299">
        <ele>1996.795654</ele>
        <time>2012-07-26T11:49:09Z</time>
      </trkpt>
      <trkpt lat="42.83957" lon="-0.6129">
        <ele>1997.276367</ele>
        <time>2012-07-26T11:49:20Z</time>
      </trkpt>
      <trkpt lat="42.83943" lon="-0.61273">
        <ele>1997.276367</ele>
        <time>2012-07-26T11:49:42Z</time>
      </trkpt>
      <trkpt lat="42.83934" lon="-0.61259">
        <ele>1998.718262</ele>
        <time>2012-07-26T11:50:01Z</time>
      </trkpt>
      <trkpt lat="42.83929" lon="-0.6124">
        <ele>2001.602295</ele>
        <time>2012-07-26T11:50:20Z</time>
      </trkpt>
      <trkpt lat="42.83929" lon="-0.61231">
        <ele>2001.602295</ele>
        <time>2012-07-26T11:50:34Z</time>
      </trkpt>
      <trkpt lat="42.83932" lon="-0.61215">
        <ele>2004.486084</ele>
        <time>2012-07-26T11:50:50Z</time>
      </trkpt>
      <trkpt lat="42.83939" lon="-0.61206">
        <ele>2006.408691</ele>
        <time>2012-07-26T11:51:06Z</time>
      </trkpt>
      <trkpt lat="42.83953" lon="-0.61194">
        <ele>2008.812012</ele>
        <time>2012-07-26T11:51:26Z</time>
      </trkpt>
      <trkpt lat="42.83962" lon="-0.61182">
        <ele>2010.253906</ele>
        <time>2012-07-26T11:51:43Z</time>
      </trkpt>
      <trkpt lat="42.83968" lon="-0.61172">
        <ele>2013.138184</ele>
        <time>2012-07-26T11:51:59Z</time>
      </trkpt>
      <trkpt lat="42.83972" lon="-0.61169">
        <ele>2013.618652</ele>
        <time>2012-07-26T11:52:04Z</time>
      </trkpt>
      <trkpt lat="42.83974" lon="-0.61166">
        <ele>2013.618652</ele>
        <time>2012-07-26T11:52:19Z</time>
      </trkpt>
      <trkpt lat="42.83986" lon="-0.61157">
        <ele>2014.099365</ele>
        <time>2012-07-26T11:52:36Z</time>
      </trkpt>
      <trkpt lat="42.84002" lon="-0.61145">
        <ele>2014.580078</ele>
        <time>2012-07-26T11:52:55Z</time>
      </trkpt>
      <trkpt lat="42.84017" lon="-0.6113">
        <ele>2015.541504</ele>
        <time>2012-07-26T11:53:15Z</time>
      </trkpt>
      <trkpt lat="42.84034" lon="-0.61113">
        <ele>2017.94458</ele>
        <time>2012-07-26T11:53:38Z</time>
      </trkpt>
      <trkpt lat="42.84048" lon="-0.61099">
        <ele>2019.867188</ele>
        <time>2012-07-26T11:53:57Z</time>
      </trkpt>
      <trkpt lat="42.84048" lon="-0.61098">
        <ele>2020.3479</ele>
        <time>2012-07-26T11:53:58Z</time>
      </trkpt>
      <trkpt lat="42.84062" lon="-0.61082">
        <ele>2022.751221</ele>
        <time>2012-07-26T11:54:20Z</time>
      </trkpt>
      <trkpt lat="42.84068" lon="-0.61075">
        <ele>2023.712402</ele>
        <time>2012-07-26T11:54:35Z</time>
      </trkpt>
      <trkpt lat="42.84075" lon="-0.61068">
        <ele>2024.193115</ele>
        <time>2012-07-26T11:54:56Z</time>
      </trkpt>
      <trkpt lat="42.84088" lon="-0.61051">
        <ele>2026.596436</ele>
        <time>2012-07-26T11:55:18Z</time>
      </trkpt>
      <trkpt lat="42.84099" lon="-0.6104">
        <ele>2028.038574</ele>
        <time>2012-07-26T11:55:35Z</time>
      </trkpt>
      <trkpt lat="42.84107" lon="-0.61031">
        <ele>2031.403076</ele>
        <time>2012-07-26T11:55:49Z</time>
      </trkpt>
      <trkpt lat="42.84114" lon="-0.61023">
        <ele>2032.364502</ele>
        <time>2012-07-26T11:56:00Z</time>
      </trkpt>
      <trkpt lat="42.84121" lon="-0.61014">
        <ele>2028.999756</ele>
        <time>2012-07-26T11:56:09Z</time>
      </trkpt>
      <trkpt lat="42.84122" lon="-0.61013">
        <ele>2028.999756</ele>
        <time>2012-07-26T11:56:10Z</time>
      </trkpt>
      <trkpt lat="42.84136" lon="-0.60998">
        <ele>2028.999756</ele>
        <time>2012-07-26T11:56:27Z</time>
      </trkpt>
      <trkpt lat="42.84152" lon="-0.60976">
        <ele>2029.480469</ele>
        <time>2012-07-26T11:56:48Z</time>
      </trkpt>
      <trkpt lat="42.84158" lon="-0.60957">
        <ele>2028.038574</ele>
        <time>2012-07-26T11:57:05Z</time>
      </trkpt>
      <trkpt lat="42.84157" lon="-0.60951">
        <ele>2027.557617</ele>
        <time>2012-07-26T11:57:27Z</time>
      </trkpt>
      <trkpt lat="42.84158" lon="-0.60946">
        <ele>2026.115723</ele>
        <time>2012-07-26T11:57:46Z</time>
      </trkpt>
      <trkpt lat="42.84155" lon="-0.60927">
        <ele>2022.270508</ele>
        <time>2012-07-26T11:58:03Z</time>
      </trkpt>
      <trkpt lat="42.84149" lon="-0.60912">
        <ele>2019.867188</ele>
        <time>2012-07-26T11:58:18Z</time>
      </trkpt>
      <trkpt lat="42.84149" lon="-0.60909">
        <ele>2019.867188</ele>
        <time>2012-07-26T11:58:20Z</time>
      </trkpt>
      <trkpt lat="42.84136" lon="-0.60888">
        <ele>2016.502686</ele>
        <time>2012-07-26T11:58:42Z</time>
      </trkpt>
      <trkpt lat="42.84135" lon="-0.60887">
        <ele>2016.021973</ele>
        <time>2012-07-26T11:58:43Z</time>
      </trkpt>
      <trkpt lat="42.84128" lon="-0.60886">
        <ele>2015.060791</ele>
        <time>2012-07-26T11:58:50Z</time>
      </trkpt>
      <trkpt lat="42.84126" lon="-0.60883">
        <ele>2015.060791</ele>
        <time>2012-07-26T11:58:53Z</time>
      </trkpt>
      <trkpt lat="42.84119" lon="-0.60874">
        <ele>2014.580078</ele>
        <time>2012-07-26T11:59:03Z</time>
      </trkpt>
      <trkpt lat="42.84105" lon="-0.60852">
        <ele>2013.138184</ele>
        <time>2012-07-26T11:59:25Z</time>
      </trkpt>
      <trkpt lat="42.84095" lon="-0.60831">
        <ele>2010.734619</ele>
        <time>2012-07-26T11:59:45Z</time>
      </trkpt>
      <trkpt lat="42.84082" lon="-0.60814">
        <ele>2009.773193</ele>
        <time>2012-07-26T12:00:05Z</time>
      </trkpt>
      <trkpt lat="42.84078" lon="-0.6081">
        <ele>2008.331299</ele>
        <time>2012-07-26T12:00:11Z</time>
      </trkpt>
      <trkpt lat="42.84073" lon="-0.60812">
        <ele>2008.331299</ele>
        <time>2012-07-26T12:00:17Z</time>
      </trkpt>
      <trkpt lat="42.84067" lon="-0.6081">
        <ele>2006.889404</ele>
        <time>2012-07-26T12:00:23Z</time>
      </trkpt>
      <trkpt lat="42.84054" lon="-0.608">
        <ele>2004.486084</ele>
        <time>2012-07-26T12:00:40Z</time>
      </trkpt>
      <trkpt lat="42.8404" lon="-0.60788">
        <ele>2001.121582</ele>
        <time>2012-07-26T12:00:57Z</time>
      </trkpt>
      <trkpt lat="42.8402" lon="-0.60784">
        <ele>1999.198975</ele>
        <time>2012-07-26T12:01:18Z</time>
      </trkpt>
      <trkpt lat="42.84018" lon="-0.60785">
        <ele>1999.679688</ele>
        <time>2012-07-26T12:01:20Z</time>
      </trkpt>
      <trkpt lat="42.8401" lon="-0.60784">
        <ele>1998.237549</ele>
        <time>2012-07-26T12:01:35Z</time>
      </trkpt>
      <trkpt lat="42.83996" lon="-0.60777">
        <ele>1997.75708</ele>
        <time>2012-07-26T12:01:53Z</time>
      </trkpt>
      <trkpt lat="42.83995" lon="-0.60778">
        <ele>1998.237549</ele>
        <time>2012-07-26T12:02:09Z</time>
      </trkpt>
      <trkpt lat="42.83983" lon="-0.60782">
        <ele>1994.39209</ele>
        <time>2012-07-26T12:03:18Z</time>
      </trkpt>
      <trkpt lat="42.83978" lon="-0.60784">
        <ele>1991.508301</ele>
        <time>2012-07-26T12:03:24Z</time>
      </trkpt>
      <trkpt lat="42.83974" lon="-0.60786">
        <ele>1991.508301</ele>
        <time>2012-07-26T12:03:29Z</time>
      </trkpt>
      <trkpt lat="42.83951" lon="-0.60796">
        <ele>1991.027588</ele>
        <time>2012-07-26T12:03:53Z</time>
      </trkpt>
      <trkpt lat="42.83931" lon="-0.608">
        <ele>1992.469727</ele>
        <time>2012-07-26T12:04:12Z</time>
      </trkpt>
      <trkpt lat="42.83929" lon="-0.608">
        <ele>1989.10498</ele>
        <time>2012-07-26T12:04:14Z</time>
      </trkpt>
      <trkpt lat="42.83928" lon="-0.608">
        <ele>1989.585693</ele>
        <time>2012-07-26T12:04:15Z</time>
      </trkpt>
      <trkpt lat="42.83917" lon="-0.60803">
        <ele>1986.70166</ele>
        <time>2012-07-26T12:04:27Z</time>
      </trkpt>
      <trkpt lat="42.8391" lon="-0.60801">
        <ele>1984.298584</ele>
        <time>2012-07-26T12:04:36Z</time>
      </trkpt>
      <trkpt lat="42.83903" lon="-0.60799">
        <ele>1985.259766</ele>
        <time>2012-07-26T12:04:43Z</time>
      </trkpt>
      <trkpt lat="42.839" lon="-0.60798">
        <ele>1981.895264</ele>
        <time>2012-07-26T12:04:46Z</time>
      </trkpt>
      <trkpt lat="42.83899" lon="-0.60797">
        <ele>1981.895264</ele>
        <time>2012-07-26T12:04:47Z</time>
      </trkpt>
      <trkpt lat="42.83897" lon="-0.60797">
        <ele>1983.337158</ele>
        <time>2012-07-26T12:04:49Z</time>
      </trkpt>
      <trkpt lat="42.83895" lon="-0.60796">
        <ele>1983.337158</ele>
        <time>2012-07-26T12:04:51Z</time>
      </trkpt>
      <trkpt lat="42.83893" lon="-0.60792">
        <ele>1979.491699</ele>
        <time>2012-07-26T12:04:55Z</time>
      </trkpt>
      <trkpt lat="42.8388" lon="-0.6077">
        <ele>1977.088623</ele>
        <time>2012-07-26T12:05:14Z</time>
      </trkpt>
      <trkpt lat="42.83863" lon="-0.60749">
        <ele>1974.685303</ele>
        <time>2012-07-26T12:05:35Z</time>
      </trkpt>
      <trkpt lat="42.83858" lon="-0.60746">
        <ele>1974.685303</ele>
        <time>2012-07-26T12:05:40Z</time>
      </trkpt>
      <trkpt lat="42.83849" lon="-0.60741">
        <ele>1974.20459</ele>
        <time>2012-07-26T12:05:59Z</time>
      </trkpt>
      <trkpt lat="42.8384" lon="-0.60736">
        <ele>1973.723877</ele>
        <time>2012-07-26T12:06:14Z</time>
      </trkpt>
      <trkpt lat="42.83828" lon="-0.6073">
        <ele>1973.243408</ele>
        <time>2012-07-26T12:06:36Z</time>
      </trkpt>
      <trkpt lat="42.83808" lon="-0.6072">
        <ele>1971.80127</ele>
        <time>2012-07-26T12:06:57Z</time>
      </trkpt>
      <trkpt lat="42.83787" lon="-0.6071">
        <ele>1972.281982</ele>
        <time>2012-07-26T12:07:19Z</time>
      </trkpt>
      <trkpt lat="42.83778" lon="-0.60706">
        <ele>1970.359375</ele>
        <time>2012-07-26T12:07:29Z</time>
      </trkpt>
      <trkpt lat="42.83769" lon="-0.60707">
        <ele>1970.359375</ele>
        <time>2012-07-26T12:07:38Z</time>
      </trkpt>
      <trkpt lat="42.83767" lon="-0.60706">
        <ele>1968.91748</ele>
        <time>2012-07-26T12:07:40Z</time>
      </trkpt>
      <trkpt lat="42.83759" lon="-0.607">
        <ele>1968.91748</ele>
        <time>2012-07-26T12:07:48Z</time>
      </trkpt>
      <trkpt lat="42.83749" lon="-0.60688">
        <ele>1969.878662</ele>
        <time>2012-07-26T12:08:01Z</time>
      </trkpt>
      <trkpt lat="42.83747" lon="-0.60685">
        <ele>1966.51416</ele>
        <time>2012-07-26T12:08:04Z</time>
      </trkpt>
      <trkpt lat="42.83737" lon="-0.60673">
        <ele>1966.994873</ele>
        <time>2012-07-26T12:08:18Z</time>
      </trkpt>
      <trkpt lat="42.83735" lon="-0.60669">
        <ele>1965.072266</ele>
        <time>2012-07-26T12:08:21Z</time>
      </trkpt>
      <trkpt lat="42.83729" lon="-0.60662">
        <ele>1966.994873</ele>
        <time>2012-07-26T12:08:28Z</time>
      </trkpt>
      <trkpt lat="42.83728" lon="-0.60656">
        <ele>1965.552979</ele>
        <time>2012-07-26T12:08:32Z</time>
      </trkpt>
      <trkpt lat="42.8372" lon="-0.60639">
        <ele>1964.591553</ele>
        <time>2012-07-26T12:08:47Z</time>
      </trkpt>
      <trkpt lat="42.83701" lon="-0.60616">
        <ele>1965.552979</ele>
        <time>2012-07-26T12:09:09Z</time>
      </trkpt>
      <trkpt lat="42.8369" lon="-0.60601">
        <ele>1963.149414</ele>
        <time>2012-07-26T12:09:24Z</time>
      </trkpt>
      <trkpt lat="42.83686" lon="-0.60589">
        <ele>1963.629883</ele>
        <time>2012-07-26T12:09:33Z</time>
      </trkpt>
      <trkpt lat="42.83685" lon="-0.60587">
        <ele>1964.591553</ele>
        <time>2012-07-26T12:09:35Z</time>
      </trkpt>
      <trkpt lat="42.83684" lon="-0.60584">
        <ele>1961.70752</ele>
        <time>2012-07-26T12:09:37Z</time>
      </trkpt>
      <trkpt lat="42.83684" lon="-0.60583">
        <ele>1961.226807</ele>
        <time>2012-07-26T12:09:38Z</time>
      </trkpt>
      <trkpt lat="42.83682" lon="-0.60577">
        <ele>1960.265381</ele>
        <time>2012-07-26T12:09:43Z</time>
      </trkpt>
      <trkpt lat="42.83679" lon="-0.60566">
        <ele>1956.900879</ele>
        <time>2012-07-26T12:09:51Z</time>
      </trkpt>
      <trkpt lat="42.83672" lon="-0.60548">
        <ele>1956.420166</ele>
        <time>2012-07-26T12:10:06Z</time>
      </trkpt>
      <trkpt lat="42.8367" lon="-0.60546">
        <ele>1954.978271</ele>
        <time>2012-07-26T12:10:08Z</time>
      </trkpt>
      <trkpt lat="42.83666" lon="-0.60534">
        <ele>1952.094238</ele>
        <time>2012-07-26T12:10:18Z</time>
      </trkpt>
      <trkpt lat="42.83662" lon="-0.60524">
        <ele>1949.210449</ele>
        <time>2012-07-26T12:10:26Z</time>
      </trkpt>
      <trkpt lat="42.83659" lon="-0.60517">
        <ele>1951.61377</ele>
        <time>2012-07-26T12:10:33Z</time>
      </trkpt>
      <trkpt lat="42.83657" lon="-0.60513">
        <ele>1950.171875</ele>
        <time>2012-07-26T12:10:36Z</time>
      </trkpt>
      <trkpt lat="42.83651" lon="-0.60495">
        <ele>1947.768311</ele>
        <time>2012-07-26T12:10:51Z</time>
      </trkpt>
      <trkpt lat="42.83645" lon="-0.6048">
        <ele>1947.287598</ele>
        <time>2012-07-26T12:11:04Z</time>
      </trkpt>
      <trkpt lat="42.83635" lon="-0.60464">
        <ele>1941.519775</ele>
        <time>2012-07-26T12:11:20Z</time>
      </trkpt>
      <trkpt lat="42.83634" lon="-0.60462">
        <ele>1942.481201</ele>
        <time>2012-07-26T12:11:21Z</time>
      </trkpt>
      <trkpt lat="42.83631" lon="-0.60457">
        <ele>1943.442383</ele>
        <time>2012-07-26T12:11:26Z</time>
      </trkpt>
      <trkpt lat="42.83629" lon="-0.60455">
        <ele>1941.519775</ele>
        <time>2012-07-26T12:11:28Z</time>
      </trkpt>
      <trkpt lat="42.83618" lon="-0.60435">
        <ele>1941.039062</ele>
        <time>2012-07-26T12:11:46Z</time>
      </trkpt>
      <trkpt lat="42.83612" lon="-0.60421">
        <ele>1938.155273</ele>
        <time>2012-07-26T12:11:58Z</time>
      </trkpt>
      <trkpt lat="42.83607" lon="-0.60411">
        <ele>1938.155273</ele>
        <time>2012-07-26T12:12:09Z</time>
      </trkpt>
      <trkpt lat="42.83602" lon="-0.60406">
        <ele>1937.193848</ele>
        <time>2012-07-26T12:12:15Z</time>
      </trkpt>
      <trkpt lat="42.83597" lon="-0.60391">
        <ele>1933.348633</ele>
        <time>2012-07-26T12:12:30Z</time>
      </trkpt>
      <trkpt lat="42.83593" lon="-0.60376">
        <ele>1933.348633</ele>
        <time>2012-07-26T12:12:44Z</time>
      </trkpt>
      <trkpt lat="42.83592" lon="-0.60372">
        <ele>1933.348633</ele>
        <time>2012-07-26T12:12:47Z</time>
      </trkpt>
      <trkpt lat="42.83587" lon="-0.60355">
        <ele>1929.503174</ele>
        <time>2012-07-26T12:13:04Z</time>
      </trkpt>
      <trkpt lat="42.83584" lon="-0.60347">
        <ele>1926.619385</ele>
        <time>2012-07-26T12:13:11Z</time>
      </trkpt>
      <trkpt lat="42.83581" lon="-0.60335">
        <ele>1923.254883</ele>
        <time>2012-07-26T12:13:21Z</time>
      </trkpt>
      <trkpt lat="42.83574" lon="-0.6031">
        <ele>1922.293457</ele>
        <time>2012-07-26T12:13:40Z</time>
      </trkpt>
      <trkpt lat="42.8357" lon="-0.60289">
        <ele>1918.928955</ele>
        <time>2012-07-26T12:13:57Z</time>
      </trkpt>
      <trkpt lat="42.83561" lon="-0.60264">
        <ele>1917.006348</ele>
        <time>2012-07-26T12:14:18Z</time>
      </trkpt>
      <trkpt lat="42.83556" lon="-0.60251">
        <ele>1915.083496</ele>
        <time>2012-07-26T12:14:30Z</time>
      </trkpt>
      <trkpt lat="42.8355" lon="-0.60236">
        <ele>1913.160889</ele>
        <time>2012-07-26T12:14:46Z</time>
      </trkpt>
      <trkpt lat="42.83549" lon="-0.60234">
        <ele>1912.199463</ele>
        <time>2012-07-26T12:14:48Z</time>
      </trkpt>
      <trkpt lat="42.83544" lon="-0.60219">
        <ele>1909.315674</ele>
        <time>2012-07-26T12:15:04Z</time>
      </trkpt>
      <trkpt lat="42.83541" lon="-0.60211">
        <ele>1908.354248</ele>
        <time>2012-07-26T12:15:13Z</time>
      </trkpt>
      <trkpt lat="42.83539" lon="-0.60204">
        <ele>1907.393066</ele>
        <time>2012-07-26T12:15:32Z</time>
      </trkpt>
      <trkpt lat="42.83543" lon="-0.60189">
        <ele>1904.989746</ele>
        <time>2012-07-26T12:15:49Z</time>
      </trkpt>
      <trkpt lat="42.83545" lon="-0.60177">
        <ele>1901.625244</ele>
        <time>2012-07-26T12:16:02Z</time>
      </trkpt>
      <trkpt lat="42.83545" lon="-0.60157">
        <ele>1900.18335</ele>
        <time>2012-07-26T12:16:18Z</time>
      </trkpt>
      <trkpt lat="42.83541" lon="-0.60148">
        <ele>1898.740967</ele>
        <time>2012-07-26T12:16:26Z</time>
      </trkpt>
      <trkpt lat="42.83539" lon="-0.60133">
        <ele>1895.376465</ele>
        <time>2012-07-26T12:16:38Z</time>
      </trkpt>
      <trkpt lat="42.83538" lon="-0.60115">
        <ele>1894.415039</ele>
        <time>2012-07-26T12:16:56Z</time>
      </trkpt>
      <trkpt lat="42.83529" lon="-0.60104">
        <ele>1893.453857</ele>
        <time>2012-07-26T12:17:13Z</time>
      </trkpt>
      <trkpt lat="42.83526" lon="-0.60102">
        <ele>1893.453857</ele>
        <time>2012-07-26T12:17:17Z</time>
      </trkpt>
      <trkpt lat="42.83514" lon="-0.60091">
        <ele>1891.050537</ele>
        <time>2012-07-26T12:17:34Z</time>
      </trkpt>
      <trkpt lat="42.83503" lon="-0.60087">
        <ele>1890.569824</ele>
        <time>2012-07-26T12:17:50Z</time>
      </trkpt>
      <trkpt lat="42.835" lon="-0.6008">
        <ele>1890.569824</ele>
        <time>2012-07-26T12:18:12Z</time>
      </trkpt>
      <trkpt lat="42.83499" lon="-0.60077">
        <ele>1890.089355</ele>
        <time>2012-07-26T12:18:15Z</time>
      </trkpt>
      <trkpt lat="42.83496" lon="-0.60068">
        <ele>1891.050537</ele>
        <time>2012-07-26T12:18:29Z</time>
      </trkpt>
      <trkpt lat="42.83498" lon="-0.60055">
        <ele>1890.089355</ele>
        <time>2012-07-26T12:18:46Z</time>
      </trkpt>
      <trkpt lat="42.83499" lon="-0.60053">
        <ele>1889.608643</ele>
        <time>2012-07-26T12:18:48Z</time>
      </trkpt>
      <trkpt lat="42.83506" lon="-0.60043">
        <ele>1889.608643</ele>
        <time>2012-07-26T12:18:56Z</time>
      </trkpt>
      <trkpt lat="42.83521" lon="-0.6002">
        <ele>1889.608643</ele>
        <time>2012-07-26T12:19:16Z</time>
      </trkpt>
      <trkpt lat="42.83523" lon="-0.60006">
        <ele>1892.011963</ele>
        <time>2012-07-26T12:19:27Z</time>
      </trkpt>
      <trkpt lat="42.83526" lon="-0.59982">
        <ele>1892.973145</ele>
        <time>2012-07-26T12:19:45Z</time>
      </trkpt>
      <trkpt lat="42.83518" lon="-0.59968">
        <ele>1893.93457</ele>
        <time>2012-07-26T12:20:02Z</time>
      </trkpt>
      <trkpt lat="42.8351" lon="-0.59959">
        <ele>1897.299072</ele>
        <time>2012-07-26T12:20:15Z</time>
      </trkpt>
      <trkpt lat="42.83508" lon="-0.59956">
        <ele>1896.818359</ele>
        <time>2012-07-26T12:20:34Z</time>
      </trkpt>
      <trkpt lat="42.83495" lon="-0.59941">
        <ele>1897.299072</ele>
        <time>2012-07-26T12:20:52Z</time>
      </trkpt>
      <trkpt lat="42.83488" lon="-0.59927">
        <ele>1899.702393</ele>
        <time>2012-07-26T12:21:08Z</time>
      </trkpt>
      <trkpt lat="42.83474" lon="-0.59914">
        <ele>1897.299072</ele>
        <time>2012-07-26T12:21:24Z</time>
      </trkpt>
      <trkpt lat="42.83471" lon="-0.59903">
        <ele>1897.299072</ele>
        <time>2012-07-26T12:21:32Z</time>
      </trkpt>
      <trkpt lat="42.83464" lon="-0.59876">
        <ele>1895.857178</ele>
        <time>2012-07-26T12:21:54Z</time>
      </trkpt>
      <trkpt lat="42.8346" lon="-0.59873">
        <ele>1895.857178</ele>
        <time>2012-07-26T12:21:59Z</time>
      </trkpt>
      <trkpt lat="42.83458" lon="-0.5987">
        <ele>1895.376465</ele>
        <time>2012-07-26T12:22:03Z</time>
      </trkpt>
      <trkpt lat="42.83451" lon="-0.59843">
        <ele>1892.492676</ele>
        <time>2012-07-26T12:22:22Z</time>
      </trkpt>
      <trkpt lat="42.83442" lon="-0.59827">
        <ele>1891.050537</ele>
        <time>2012-07-26T12:22:38Z</time>
      </trkpt>
      <trkpt lat="42.83429" lon="-0.59815">
        <ele>1889.12793</ele>
        <time>2012-07-26T12:22:53Z</time>
      </trkpt>
      <trkpt lat="42.83415" lon="-0.59794">
        <ele>1886.724609</ele>
        <time>2012-07-26T12:23:13Z</time>
      </trkpt>
      <trkpt lat="42.83397" lon="-0.5978">
        <ele>1886.724609</ele>
        <time>2012-07-26T12:23:32Z</time>
      </trkpt>
      <trkpt lat="42.8339" lon="-0.59776">
        <ele>1887.686035</ele>
        <time>2012-07-26T12:23:39Z</time>
      </trkpt>
      <trkpt lat="42.83386" lon="-0.59773">
        <ele>1887.205322</ele>
        <time>2012-07-26T12:23:43Z</time>
      </trkpt>
      <trkpt lat="42.83381" lon="-0.59769">
        <ele>1886.244141</ele>
        <time>2012-07-26T12:23:48Z</time>
      </trkpt>
      <trkpt lat="42.83361" lon="-0.59753">
        <ele>1887.686035</ele>
        <time>2012-07-26T12:24:09Z</time>
      </trkpt>
      <trkpt lat="42.83347" lon="-0.59728">
        <ele>1890.089355</ele>
        <time>2012-07-26T12:24:30Z</time>
      </trkpt>
      <trkpt lat="42.83337" lon="-0.59704">
        <ele>1892.011963</ele>
        <time>2012-07-26T12:24:50Z</time>
      </trkpt>
      <trkpt lat="42.83329" lon="-0.59677">
        <ele>1891.53125</ele>
        <time>2012-07-26T12:25:11Z</time>
      </trkpt>
      <trkpt lat="42.83336" lon="-0.59652">
        <ele>1890.089355</ele>
        <time>2012-07-26T12:25:31Z</time>
      </trkpt>
      <trkpt lat="42.8335" lon="-0.59628">
        <ele>1891.53125</ele>
        <time>2012-07-26T12:25:53Z</time>
      </trkpt>
      <trkpt lat="42.83344" lon="-0.59608">
        <ele>1891.53125</ele>
        <time>2012-07-26T12:26:10Z</time>
      </trkpt>
      <trkpt lat="42.83339" lon="-0.59605">
        <ele>1889.12793</ele>
        <time>2012-07-26T12:26:16Z</time>
      </trkpt>
      <trkpt lat="42.83327" lon="-0.59597">
        <ele>1887.205322</ele>
        <time>2012-07-26T12:26:31Z</time>
      </trkpt>
      <trkpt lat="42.83313" lon="-0.59581">
        <ele>1883.840576</ele>
        <time>2012-07-26T12:26:50Z</time>
      </trkpt>
      <trkpt lat="42.83301" lon="-0.59566">
        <ele>1880.956787</ele>
        <time>2012-07-26T12:27:05Z</time>
      </trkpt>
      <trkpt lat="42.8329" lon="-0.59539">
        <ele>1879.995361</ele>
        <time>2012-07-26T12:27:26Z</time>
      </trkpt>
      <trkpt lat="42.83284" lon="-0.59524">
        <ele>1879.033936</ele>
        <time>2012-07-26T12:27:39Z</time>
      </trkpt>
      <trkpt lat="42.83275" lon="-0.59496">
        <ele>1877.592041</ele>
        <time>2012-07-26T12:27:59Z</time>
      </trkpt>
      <trkpt lat="42.8327" lon="-0.59463">
        <ele>1877.111572</ele>
        <time>2012-07-26T12:28:20Z</time>
      </trkpt>
      <trkpt lat="42.83271" lon="-0.59442">
        <ele>1879.033936</ele>
        <time>2012-07-26T12:28:36Z</time>
      </trkpt>
      <trkpt lat="42.83277" lon="-0.59418">
        <ele>1879.033936</ele>
        <time>2012-07-26T12:28:55Z</time>
      </trkpt>
      <trkpt lat="42.83279" lon="-0.59403">
        <ele>1879.514648</ele>
        <time>2012-07-26T12:29:11Z</time>
      </trkpt>
      <trkpt lat="42.83276" lon="-0.59389">
        <ele>1877.592041</ele>
        <time>2012-07-26T12:29:24Z</time>
      </trkpt>
      <trkpt lat="42.83272" lon="-0.59386">
        <ele>1877.111572</ele>
        <time>2012-07-26T12:29:28Z</time>
      </trkpt>
      <trkpt lat="42.83259" lon="-0.5937">
        <ele>1877.111572</ele>
        <time>2012-07-26T12:29:46Z</time>
      </trkpt>
      <trkpt lat="42.83255" lon="-0.59345">
        <ele>1878.072754</ele>
        <time>2012-07-26T12:30:05Z</time>
      </trkpt>
      <trkpt lat="42.83255" lon="-0.59334">
        <ele>1879.995361</ele>
        <time>2012-07-26T12:30:14Z</time>
      </trkpt>
      <trkpt lat="42.83253" lon="-0.59321">
        <ele>1879.995361</ele>
        <time>2012-07-26T12:30:28Z</time>
      </trkpt>
      <trkpt lat="42.83249" lon="-0.59295">
        <ele>1879.033936</ele>
        <time>2012-07-26T12:30:46Z</time>
      </trkpt>
      <trkpt lat="42.83243" lon="-0.59276">
        <ele>1879.995361</ele>
        <time>2012-07-26T12:30:59Z</time>
      </trkpt>
      <trkpt lat="42.83243" lon="-0.59258">
        <ele>1879.995361</ele>
        <time>2012-07-26T12:31:15Z</time>
      </trkpt>
      <trkpt lat="42.83242" lon="-0.59255">
        <ele>1879.514648</ele>
        <time>2012-07-26T12:31:20Z</time>
      </trkpt>
      <trkpt lat="42.83237" lon="-0.59232">
        <ele>1879.995361</ele>
        <time>2012-07-26T12:31:38Z</time>
      </trkpt>
      <trkpt lat="42.83225" lon="-0.59206">
        <ele>1880.956787</ele>
        <time>2012-07-26T12:31:58Z</time>
      </trkpt>
      <trkpt lat="42.83224" lon="-0.59182">
        <ele>1880.956787</ele>
        <time>2012-07-26T12:32:15Z</time>
      </trkpt>
      <trkpt lat="42.83228" lon="-0.59162">
        <ele>1881.437256</ele>
        <time>2012-07-26T12:32:30Z</time>
      </trkpt>
      <trkpt lat="42.8323" lon="-0.59155">
        <ele>1881.437256</ele>
        <time>2012-07-26T12:32:36Z</time>
      </trkpt>
      <trkpt lat="42.8324" lon="-0.59145">
        <ele>1884.321533</ele>
        <time>2012-07-26T12:32:51Z</time>
      </trkpt>
      <trkpt lat="42.83256" lon="-0.59126">
        <ele>1885.282715</ele>
        <time>2012-07-26T12:33:12Z</time>
      </trkpt>
      <trkpt lat="42.83261" lon="-0.59116">
        <ele>1886.724609</ele>
        <time>2012-07-26T12:33:22Z</time>
      </trkpt>
      <trkpt lat="42.83261" lon="-0.59098">
        <ele>1887.686035</ele>
        <time>2012-07-26T12:33:38Z</time>
      </trkpt>
      <trkpt lat="42.83261" lon="-0.5907">
        <ele>1887.686035</ele>
        <time>2012-07-26T12:33:58Z</time>
      </trkpt>
      <trkpt lat="42.83259" lon="-0.59045">
        <ele>1887.686035</ele>
        <time>2012-07-26T12:34:16Z</time>
      </trkpt>
      <trkpt lat="42.83267" lon="-0.59021">
        <ele>1887.205322</ele>
        <time>2012-07-26T12:34:36Z</time>
      </trkpt>
      <trkpt lat="42.83276" lon="-0.58995">
        <ele>1885.763428</ele>
        <time>2012-07-26T12:34:55Z</time>
      </trkpt>
      <trkpt lat="42.8328" lon="-0.58972">
        <ele>1887.205322</ele>
        <time>2012-07-26T12:35:16Z</time>
      </trkpt>
      <trkpt lat="42.83282" lon="-0.58961">
        <ele>1885.763428</ele>
        <time>2012-07-26T12:35:32Z</time>
      </trkpt>
      <trkpt lat="42.83288" lon="-0.58944">
        <ele>1887.205322</ele>
        <time>2012-07-26T12:35:48Z</time>
      </trkpt>
      <trkpt lat="42.83291" lon="-0.58923">
        <ele>1889.12793</ele>
        <time>2012-07-26T12:36:06Z</time>
      </trkpt>
      <trkpt lat="42.83293" lon="-0.58898">
        <ele>1890.569824</ele>
        <time>2012-07-26T12:36:26Z</time>
      </trkpt>
      <trkpt lat="42.83296" lon="-0.58868">
        <ele>1890.569824</ele>
        <time>2012-07-26T12:36:46Z</time>
      </trkpt>
      <trkpt lat="42.833" lon="-0.58841">
        <ele>1890.569824</ele>
        <time>2012-07-26T12:37:06Z</time>
      </trkpt>
      <trkpt lat="42.83303" lon="-0.58817">
        <ele>1892.492676</ele>
        <time>2012-07-26T12:37:22Z</time>
      </trkpt>
      <trkpt lat="42.83306" lon="-0.58793">
        <ele>1893.453857</ele>
        <time>2012-07-26T12:37:39Z</time>
      </trkpt>
      <trkpt lat="42.833" lon="-0.58769">
        <ele>1893.453857</ele>
        <time>2012-07-26T12:37:59Z</time>
      </trkpt>
      <trkpt lat="42.83292" lon="-0.58748">
        <ele>1893.93457</ele>
        <time>2012-07-26T12:38:17Z</time>
      </trkpt>
      <trkpt lat="42.83287" lon="-0.58729">
        <ele>1895.376465</ele>
        <time>2012-07-26T12:38:33Z</time>
      </trkpt>
      <trkpt lat="42.83287" lon="-0.58724">
        <ele>1896.818359</ele>
        <time>2012-07-26T12:38:37Z</time>
      </trkpt>
      <trkpt lat="42.83291" lon="-0.58695">
        <ele>1897.779785</ele>
        <time>2012-07-26T12:38:57Z</time>
      </trkpt>
      <trkpt lat="42.83292" lon="-0.58667">
        <ele>1899.22168</ele>
        <time>2012-07-26T12:39:17Z</time>
      </trkpt>
      <trkpt lat="42.83293" lon="-0.5864">
        <ele>1899.702393</ele>
        <time>2012-07-26T12:39:37Z</time>
      </trkpt>
      <trkpt lat="42.83297" lon="-0.58619">
        <ele>1901.144531</ele>
        <time>2012-07-26T12:39:53Z</time>
      </trkpt>
      <trkpt lat="42.83309" lon="-0.58594">
        <ele>1902.105713</ele>
        <time>2012-07-26T12:40:15Z</time>
      </trkpt>
      <trkpt lat="42.83317" lon="-0.58576">
        <ele>1902.586426</ele>
        <time>2012-07-26T12:40:33Z</time>
      </trkpt>
      <trkpt lat="42.83326" lon="-0.58556">
        <ele>1902.586426</ele>
        <time>2012-07-26T12:40:51Z</time>
      </trkpt>
      <trkpt lat="42.83337" lon="-0.58537">
        <ele>1903.547852</ele>
        <time>2012-07-26T12:41:09Z</time>
      </trkpt>
      <trkpt lat="42.83345" lon="-0.58518">
        <ele>1905.950928</ele>
        <time>2012-07-26T12:41:26Z</time>
      </trkpt>
      <trkpt lat="42.83351" lon="-0.58502">
        <ele>1907.873779</ele>
        <time>2012-07-26T12:41:42Z</time>
      </trkpt>
      <trkpt lat="42.83351" lon="-0.58497">
        <ele>1907.873779</ele>
        <time>2012-07-26T12:42:01Z</time>
      </trkpt>
      <trkpt lat="42.83352" lon="-0.58496">
        <ele>1907.873779</ele>
        <time>2012-07-26T12:42:43Z</time>
      </trkpt>
      <trkpt lat="42.83361" lon="-0.58489">
        <ele>1907.393066</ele>
        <time>2012-07-26T12:43:26Z</time>
      </trkpt>
      <trkpt lat="42.83361" lon="-0.58464">
        <ele>1904.028564</ele>
        <time>2012-07-26T12:43:44Z</time>
      </trkpt>
      <trkpt lat="42.83371" lon="-0.58444">
        <ele>1903.067139</ele>
        <time>2012-07-26T12:44:02Z</time>
      </trkpt>
      <trkpt lat="42.83376" lon="-0.5844">
        <ele>1902.105713</ele>
        <time>2012-07-26T12:44:08Z</time>
      </trkpt>
      <trkpt lat="42.83396" lon="-0.58434">
        <ele>1901.144531</ele>
        <time>2012-07-26T12:44:27Z</time>
      </trkpt>
      <trkpt lat="42.83411" lon="-0.58419">
        <ele>1900.663818</ele>
        <time>2012-07-26T12:44:45Z</time>
      </trkpt>
      <trkpt lat="42.83426" lon="-0.58401">
        <ele>1898.740967</ele>
        <time>2012-07-26T12:45:03Z</time>
      </trkpt>
      <trkpt lat="42.83423" lon="-0.58382">
        <ele>1896.818359</ele>
        <time>2012-07-26T12:45:17Z</time>
      </trkpt>
      <trkpt lat="42.83419" lon="-0.58377">
        <ele>1898.260254</ele>
        <time>2012-07-26T12:45:23Z</time>
      </trkpt>
      <trkpt lat="42.83406" lon="-0.58356">
        <ele>1898.260254</ele>
        <time>2012-07-26T12:45:43Z</time>
      </trkpt>
      <trkpt lat="42.834" lon="-0.5835">
        <ele>1898.740967</ele>
        <time>2012-07-26T12:45:50Z</time>
      </trkpt>
      <trkpt lat="42.83392" lon="-0.58341">
        <ele>1898.740967</ele>
        <time>2012-07-26T12:46:00Z</time>
      </trkpt>
      <trkpt lat="42.83377" lon="-0.58329">
        <ele>1896.337891</ele>
        <time>2012-07-26T12:46:17Z</time>
      </trkpt>
      <trkpt lat="42.83377" lon="-0.58326">
        <ele>1896.337891</ele>
        <time>2012-07-26T12:46:19Z</time>
      </trkpt>
      <trkpt lat="42.8337" lon="-0.58315">
        <ele>1899.702393</ele>
        <time>2012-07-26T12:46:33Z</time>
      </trkpt>
      <trkpt lat="42.8336" lon="-0.583">
        <ele>1902.105713</ele>
        <time>2012-07-26T12:46:51Z</time>
      </trkpt>
      <trkpt lat="42.83347" lon="-0.58283">
        <ele>1903.067139</ele>
        <time>2012-07-26T12:47:09Z</time>
      </trkpt>
      <trkpt lat="42.83338" lon="-0.58272">
        <ele>1905.470459</ele>
        <time>2012-07-26T12:47:24Z</time>
      </trkpt>
      <trkpt lat="42.83337" lon="-0.5827">
        <ele>1904.989746</ele>
        <time>2012-07-26T12:47:26Z</time>
      </trkpt>
      <trkpt lat="42.83319" lon="-0.58258">
        <ele>1904.028564</ele>
        <time>2012-07-26T12:47:45Z</time>
      </trkpt>
      <trkpt lat="42.83308" lon="-0.58248">
        <ele>1904.989746</ele>
        <time>2012-07-26T12:47:57Z</time>
      </trkpt>
      <trkpt lat="42.83297" lon="-0.58229">
        <ele>1907.393066</ele>
        <time>2012-07-26T12:48:17Z</time>
      </trkpt>
      <trkpt lat="42.83289" lon="-0.58221">
        <ele>1910.276855</ele>
        <time>2012-07-26T12:48:29Z</time>
      </trkpt>
      <trkpt lat="42.83281" lon="-0.58205">
        <ele>1913.160889</ele>
        <time>2012-07-26T12:48:45Z</time>
      </trkpt>
      <trkpt lat="42.83278" lon="-0.58201">
        <ele>1912.680176</ele>
        <time>2012-07-26T12:48:49Z</time>
      </trkpt>
      <trkpt lat="42.83272" lon="-0.58199">
        <ele>1913.641357</ele>
        <time>2012-07-26T12:48:55Z</time>
      </trkpt>
      <trkpt lat="42.83263" lon="-0.58195">
        <ele>1913.641357</ele>
        <time>2012-07-26T12:49:04Z</time>
      </trkpt>
      <trkpt lat="42.83251" lon="-0.5819">
        <ele>1913.160889</ele>
        <time>2012-07-26T12:49:15Z</time>
      </trkpt>
      <trkpt lat="42.83231" lon="-0.58169">
        <ele>1913.160889</ele>
        <time>2012-07-26T12:49:37Z</time>
      </trkpt>
      <trkpt lat="42.83217" lon="-0.58143">
        <ele>1915.083496</ele>
        <time>2012-07-26T12:49:59Z</time>
      </trkpt>
      <trkpt lat="42.8321" lon="-0.58124">
        <ele>1915.564209</ele>
        <time>2012-07-26T12:50:13Z</time>
      </trkpt>
      <trkpt lat="42.83195" lon="-0.5811">
        <ele>1914.12207</ele>
        <time>2012-07-26T12:50:30Z</time>
      </trkpt>
      <trkpt lat="42.83187" lon="-0.58103">
        <ele>1914.12207</ele>
        <time>2012-07-26T12:50:38Z</time>
      </trkpt>
      <trkpt lat="42.83177" lon="-0.58085">
        <ele>1914.602783</ele>
        <time>2012-07-26T12:50:55Z</time>
      </trkpt>
      <trkpt lat="42.83173" lon="-0.58083">
        <ele>1915.564209</ele>
        <time>2012-07-26T12:51:00Z</time>
      </trkpt>
      <trkpt lat="42.83164" lon="-0.58081">
        <ele>1913.160889</ele>
        <time>2012-07-26T12:51:14Z</time>
      </trkpt>
      <trkpt lat="42.83163" lon="-0.58079">
        <ele>1912.680176</ele>
        <time>2012-07-26T12:51:17Z</time>
      </trkpt>
      <trkpt lat="42.83151" lon="-0.58063">
        <ele>1909.315674</ele>
        <time>2012-07-26T12:51:33Z</time>
      </trkpt>
      <trkpt lat="42.8314" lon="-0.58046">
        <ele>1910.757568</ele>
        <time>2012-07-26T12:51:49Z</time>
      </trkpt>
      <trkpt lat="42.83131" lon="-0.58041">
        <ele>1913.641357</ele>
        <time>2012-07-26T12:52:03Z</time>
      </trkpt>
      <trkpt lat="42.8313" lon="-0.58039">
        <ele>1913.641357</ele>
        <time>2012-07-26T12:52:06Z</time>
      </trkpt>
      <trkpt lat="42.83128" lon="-0.58031">
        <ele>1914.602783</ele>
        <time>2012-07-26T12:52:13Z</time>
      </trkpt>
      <trkpt lat="42.83126" lon="-0.5801">
        <ele>1915.564209</ele>
        <time>2012-07-26T12:52:29Z</time>
      </trkpt>
      <trkpt lat="42.83118" lon="-0.57986">
        <ele>1914.602783</ele>
        <time>2012-07-26T12:52:49Z</time>
      </trkpt>
      <trkpt lat="42.83116" lon="-0.57981">
        <ele>1913.641357</ele>
        <time>2012-07-26T12:52:55Z</time>
      </trkpt>
      <trkpt lat="42.83099" lon="-0.57959">
        <ele>1912.680176</ele>
        <time>2012-07-26T12:53:15Z</time>
      </trkpt>
      <trkpt lat="42.83083" lon="-0.57939">
        <ele>1911.718994</ele>
        <time>2012-07-26T12:53:34Z</time>
      </trkpt>
      <trkpt lat="42.83083" lon="-0.57941">
        <ele>1912.199463</ele>
        <time>2012-07-26T12:53:49Z</time>
      </trkpt>
      <trkpt lat="42.83082" lon="-0.57942">
        <ele>1912.680176</ele>
        <time>2012-07-26T12:54:24Z</time>
      </trkpt>
      <trkpt lat="42.8308" lon="-0.57939">
        <ele>1913.160889</ele>
        <time>2012-07-26T12:54:45Z</time>
      </trkpt>
      <trkpt lat="42.8307" lon="-0.57928">
        <ele>1913.160889</ele>
        <time>2012-07-26T12:55:00Z</time>
      </trkpt>
      <trkpt lat="42.83062" lon="-0.5792">
        <ele>1916.044922</ele>
        <time>2012-07-26T12:55:17Z</time>
      </trkpt>
      <trkpt lat="42.83059" lon="-0.57916">
        <ele>1916.525635</ele>
        <time>2012-07-26T12:55:23Z</time>
      </trkpt>
      <trkpt lat="42.83051" lon="-0.57902">
        <ele>1918.448242</ele>
        <time>2012-07-26T12:55:40Z</time>
      </trkpt>
      <trkpt lat="42.83048" lon="-0.5789">
        <ele>1918.928955</ele>
        <time>2012-07-26T12:55:50Z</time>
      </trkpt>
      <trkpt lat="42.83035" lon="-0.57868">
        <ele>1919.890137</ele>
        <time>2012-07-26T12:56:11Z</time>
      </trkpt>
      <trkpt lat="42.83033" lon="-0.57864">
        <ele>1920.851562</ele>
        <time>2012-07-26T12:56:15Z</time>
      </trkpt>
      <trkpt lat="42.83026" lon="-0.57853">
        <ele>1920.37085</ele>
        <time>2012-07-26T12:56:32Z</time>
      </trkpt>
      <trkpt lat="42.83015" lon="-0.57824">
        <ele>1920.851562</ele>
        <time>2012-07-26T12:56:53Z</time>
      </trkpt>
      <trkpt lat="42.83011" lon="-0.57818">
        <ele>1919.409668</ele>
        <time>2012-07-26T12:57:08Z</time>
      </trkpt>
      <trkpt lat="42.83011" lon="-0.57817">
        <ele>1921.812744</ele>
        <time>2012-07-26T12:57:24Z</time>
      </trkpt>
      <trkpt lat="42.8301" lon="-0.57818">
        <ele>1921.332031</ele>
        <time>2012-07-26T12:58:06Z</time>
      </trkpt>
      <trkpt lat="42.83009" lon="-0.57816">
        <ele>1922.77417</ele>
        <time>2012-07-26T12:58:32Z</time>
      </trkpt>
      <trkpt lat="42.83012" lon="-0.57818">
        <ele>1919.890137</ele>
        <time>2012-07-26T12:59:00Z</time>
      </trkpt>
      <trkpt lat="42.83011" lon="-0.57818">
        <ele>1920.851562</ele>
        <time>2012-07-26T12:59:54Z</time>
      </trkpt>
      <trkpt lat="42.83009" lon="-0.57818">
        <ele>1921.812744</ele>
        <time>2012-07-26T13:00:29Z</time>
      </trkpt>
      <trkpt lat="42.8301" lon="-0.57816">
        <ele>1921.812744</ele>
        <time>2012-07-26T13:00:48Z</time>
      </trkpt>
      <trkpt lat="42.83008" lon="-0.57815">
        <ele>1919.409668</ele>
        <time>2012-07-26T13:01:40Z</time>
      </trkpt>
      <trkpt lat="42.83011" lon="-0.57817">
        <ele>1919.890137</ele>
        <time>2012-07-26T13:02:21Z</time>
      </trkpt>
      <trkpt lat="42.83011" lon="-0.57818">
        <ele>1919.409668</ele>
        <time>2012-07-26T13:02:38Z</time>
      </trkpt>
      <trkpt lat="42.83011" lon="-0.57814">
        <ele>1919.890137</ele>
        <time>2012-07-26T13:03:42Z</time>
      </trkpt>
      <trkpt lat="42.83011" lon="-0.57807">
        <ele>1919.890137</ele>
        <time>2012-07-26T13:03:56Z</time>
      </trkpt>
      <trkpt lat="42.8301" lon="-0.57807">
        <ele>1918.448242</ele>
        <time>2012-07-26T13:04:26Z</time>
      </trkpt>
      <trkpt lat="42.83011" lon="-0.57813">
        <ele>1920.851562</ele>
        <time>2012-07-26T13:04:31Z</time>
      </trkpt>
      <trkpt lat="42.83011" lon="-0.57807">
        <ele>1920.37085</ele>
        <time>2012-07-26T13:04:49Z</time>
      </trkpt>
      <trkpt lat="42.83009" lon="-0.57807">
        <ele>1919.409668</ele>
        <time>2012-07-26T13:05:37Z</time>
      </trkpt>
      <trkpt lat="42.8301" lon="-0.57808">
        <ele>1918.928955</ele>
        <time>2012-07-26T13:05:58Z</time>
      </trkpt>
      <trkpt lat="42.83012" lon="-0.57808">
        <ele>1920.851562</ele>
        <time>2012-07-26T13:06:19Z</time>
      </trkpt>
      <trkpt lat="42.83015" lon="-0.57807">
        <ele>1919.890137</ele>
        <time>2012-07-26T13:06:41Z</time>
      </trkpt>
      <trkpt lat="42.83015" lon="-0.57806">
        <ele>1921.332031</ele>
        <time>2012-07-26T13:06:56Z</time>
      </trkpt>
      <trkpt lat="42.83015" lon="-0.57796">
        <ele>1918.928955</ele>
        <time>2012-07-26T13:07:14Z</time>
      </trkpt>
      <trkpt lat="42.83018" lon="-0.57789">
        <ele>1917.006348</ele>
        <time>2012-07-26T13:07:26Z</time>
      </trkpt>
      <trkpt lat="42.8302" lon="-0.57779">
        <ele>1916.525635</ele>
        <time>2012-07-26T13:07:36Z</time>
      </trkpt>
      <trkpt lat="42.83018" lon="-0.57754">
        <ele>1914.602783</ele>
        <time>2012-07-26T13:07:55Z</time>
      </trkpt>
      <trkpt lat="42.8302" lon="-0.57723">
        <ele>1913.160889</ele>
        <time>2012-07-26T13:08:16Z</time>
      </trkpt>
      <trkpt lat="42.83021" lon="-0.57715">
        <ele>1912.199463</ele>
        <time>2012-07-26T13:08:21Z</time>
      </trkpt>
      <trkpt lat="42.83021" lon="-0.57701">
        <ele>1912.199463</ele>
        <time>2012-07-26T13:08:29Z</time>
      </trkpt>
      <trkpt lat="42.83015" lon="-0.57701">
        <ele>1910.757568</ele>
        <time>2012-07-26T13:08:35Z</time>
      </trkpt>
      <trkpt lat="42.83013" lon="-0.57706">
        <ele>1909.796143</ele>
        <time>2012-07-26T13:08:40Z</time>
      </trkpt>
      <trkpt lat="42.83008" lon="-0.57734">
        <ele>1908.354248</ele>
        <time>2012-07-26T13:08:58Z</time>
      </trkpt>
      <trkpt lat="42.83008" lon="-0.57737">
        <ele>1908.354248</ele>
        <time>2012-07-26T13:09:11Z</time>
      </trkpt>
      <trkpt lat="42.83003" lon="-0.57743">
        <ele>1906.431641</ele>
        <time>2012-07-26T13:09:36Z</time>
      </trkpt>
      <trkpt lat="42.82999" lon="-0.57753">
        <ele>1903.067139</ele>
        <time>2012-07-26T13:09:47Z</time>
      </trkpt>
      <trkpt lat="42.82994" lon="-0.57767">
        <ele>1899.22168</ele>
        <time>2012-07-26T13:09:59Z</time>
      </trkpt>
      <trkpt lat="42.82987" lon="-0.57791">
        <ele>1896.818359</ele>
        <time>2012-07-26T13:10:18Z</time>
      </trkpt>
      <trkpt lat="42.82983" lon="-0.57802">
        <ele>1893.453857</ele>
        <time>2012-07-26T13:10:29Z</time>
      </trkpt>
      <trkpt lat="42.82982" lon="-0.57806">
        <ele>1892.973145</ele>
        <time>2012-07-26T13:10:32Z</time>
      </trkpt>
      <trkpt lat="42.8298" lon="-0.5781">
        <ele>1891.53125</ele>
        <time>2012-07-26T13:10:36Z</time>
      </trkpt>
      <trkpt lat="42.82969" lon="-0.57828">
        <ele>1888.166748</ele>
        <time>2012-07-26T13:10:53Z</time>
      </trkpt>
      <trkpt lat="42.82959" lon="-0.57843">
        <ele>1884.321533</ele>
        <time>2012-07-26T13:11:09Z</time>
      </trkpt>
      <trkpt lat="42.82949" lon="-0.57858">
        <ele>1881.437256</ele>
        <time>2012-07-26T13:11:27Z</time>
      </trkpt>
      <trkpt lat="42.82942" lon="-0.57873">
        <ele>1879.514648</ele>
        <time>2012-07-26T13:11:41Z</time>
      </trkpt>
      <trkpt lat="42.8294" lon="-0.57878">
        <ele>1877.592041</ele>
        <time>2012-07-26T13:11:45Z</time>
      </trkpt>
      <trkpt lat="42.82936" lon="-0.57891">
        <ele>1874.708252</ele>
        <time>2012-07-26T13:11:57Z</time>
      </trkpt>
      <trkpt lat="42.8293" lon="-0.57903">
        <ele>1873.746826</ele>
        <time>2012-07-26T13:12:13Z</time>
      </trkpt>
      <trkpt lat="42.82921" lon="-0.57923">
        <ele>1870.863037</ele>
        <time>2012-07-26T13:12:31Z</time>
      </trkpt>
      <trkpt lat="42.82915" lon="-0.57939">
        <ele>1867.97876</ele>
        <time>2012-07-26T13:12:45Z</time>
      </trkpt>
      <trkpt lat="42.82912" lon="-0.57948">
        <ele>1867.498047</ele>
        <time>2012-07-26T13:12:58Z</time>
      </trkpt>
      <trkpt lat="42.82908" lon="-0.57959">
        <ele>1863.652832</ele>
        <time>2012-07-26T13:13:09Z</time>
      </trkpt>
      <trkpt lat="42.82899" lon="-0.57957">
        <ele>1861.730469</ele>
        <time>2012-07-26T13:13:24Z</time>
      </trkpt>
      <trkpt lat="42.82895" lon="-0.57939">
        <ele>1858.365723</ele>
        <time>2012-07-26T13:13:39Z</time>
      </trkpt>
      <trkpt lat="42.82892" lon="-0.5793">
        <ele>1857.404541</ele>
        <time>2012-07-26T13:13:48Z</time>
      </trkpt>
      <trkpt lat="42.82884" lon="-0.57912">
        <ele>1854.520508</ele>
        <time>2012-07-26T13:14:05Z</time>
      </trkpt>
      <trkpt lat="42.82883" lon="-0.57909">
        <ele>1855.001221</ele>
        <time>2012-07-26T13:14:07Z</time>
      </trkpt>
      <trkpt lat="42.82875" lon="-0.57892">
        <ele>1853.078613</ele>
        <time>2012-07-26T13:14:23Z</time>
      </trkpt>
      <trkpt lat="42.82871" lon="-0.57888">
        <ele>1849.713867</ele>
        <time>2012-07-26T13:14:30Z</time>
      </trkpt>
      <trkpt lat="42.82862" lon="-0.57885">
        <ele>1847.79126</ele>
        <time>2012-07-26T13:14:44Z</time>
      </trkpt>
      <trkpt lat="42.82859" lon="-0.57888">
        <ele>1847.79126</ele>
        <time>2012-07-26T13:14:48Z</time>
      </trkpt>
      <trkpt lat="42.82855" lon="-0.57895">
        <ele>1844.426514</ele>
        <time>2012-07-26T13:14:55Z</time>
      </trkpt>
      <trkpt lat="42.82854" lon="-0.57902">
        <ele>1842.50415</ele>
        <time>2012-07-26T13:15:02Z</time>
      </trkpt>
      <trkpt lat="42.82853" lon="-0.57906">
        <ele>1840.581299</ele>
        <time>2012-07-26T13:15:05Z</time>
      </trkpt>
      <trkpt lat="42.82848" lon="-0.57919">
        <ele>1840.10083</ele>
        <time>2012-07-26T13:15:17Z</time>
      </trkpt>
      <trkpt lat="42.82837" lon="-0.57942">
        <ele>1836.736084</ele>
        <time>2012-07-26T13:15:36Z</time>
      </trkpt>
      <trkpt lat="42.82834" lon="-0.57948">
        <ele>1835.774658</ele>
        <time>2012-07-26T13:15:43Z</time>
      </trkpt>
      <trkpt lat="42.82831" lon="-0.57971">
        <ele>1833.371338</ele>
        <time>2012-07-26T13:16:01Z</time>
      </trkpt>
      <trkpt lat="42.82832" lon="-0.57984">
        <ele>1830.487549</ele>
        <time>2012-07-26T13:16:11Z</time>
      </trkpt>
      <trkpt lat="42.82832" lon="-0.57989">
        <ele>1829.04541</ele>
        <time>2012-07-26T13:16:15Z</time>
      </trkpt>
      <trkpt lat="42.82832" lon="-0.57995">
        <ele>1827.123047</ele>
        <time>2012-07-26T13:16:19Z</time>
      </trkpt>
      <trkpt lat="42.82833" lon="-0.58005">
        <ele>1825.680908</ele>
        <time>2012-07-26T13:16:27Z</time>
      </trkpt>
      <trkpt lat="42.82833" lon="-0.5802">
        <ele>1824.239014</ele>
        <time>2012-07-26T13:16:39Z</time>
      </trkpt>
      <trkpt lat="42.82829" lon="-0.5803">
        <ele>1823.277832</ele>
        <time>2012-07-26T13:16:48Z</time>
      </trkpt>
      <trkpt lat="42.82829" lon="-0.58041">
        <ele>1821.835693</ele>
        <time>2012-07-26T13:16:57Z</time>
      </trkpt>
      <trkpt lat="42.82818" lon="-0.58055">
        <ele>1818.95166</ele>
        <time>2012-07-26T13:17:13Z</time>
      </trkpt>
      <trkpt lat="42.82805" lon="-0.5807">
        <ele>1816.54834</ele>
        <time>2012-07-26T13:17:29Z</time>
      </trkpt>
      <trkpt lat="42.82793" lon="-0.58082">
        <ele>1813.183838</ele>
        <time>2012-07-26T13:17:45Z</time>
      </trkpt>
      <trkpt lat="42.82788" lon="-0.58088">
        <ele>1812.222412</ele>
        <time>2012-07-26T13:17:52Z</time>
      </trkpt>
      <trkpt lat="42.82778" lon="-0.581">
        <ele>1809.819092</ele>
        <time>2012-07-26T13:18:07Z</time>
      </trkpt>
      <trkpt lat="42.82772" lon="-0.58101">
        <ele>1808.377197</ele>
        <time>2012-07-26T13:18:25Z</time>
      </trkpt>
      <trkpt lat="42.82767" lon="-0.58106">
        <ele>1807.416016</ele>
        <time>2012-07-26T13:18:31Z</time>
      </trkpt>
      <trkpt lat="42.82749" lon="-0.58116">
        <ele>1803.570557</ele>
        <time>2012-07-26T13:18:48Z</time>
      </trkpt>
      <trkpt lat="42.82732" lon="-0.58124">
        <ele>1801.647949</ele>
        <time>2012-07-26T13:19:07Z</time>
      </trkpt>
      <trkpt lat="42.82714" lon="-0.58136">
        <ele>1798.763916</ele>
        <time>2012-07-26T13:19:28Z</time>
      </trkpt>
      <trkpt lat="42.82713" lon="-0.58136">
        <ele>1798.763916</ele>
        <time>2012-07-26T13:19:29Z</time>
      </trkpt>
      <trkpt lat="42.827" lon="-0.58132">
        <ele>1795.880127</ele>
        <time>2012-07-26T13:19:43Z</time>
      </trkpt>
      <trkpt lat="42.827" lon="-0.58122">
        <ele>1793.95752</ele>
        <time>2012-07-26T13:19:50Z</time>
      </trkpt>
      <trkpt lat="42.82699" lon="-0.58099">
        <ele>1791.073486</ele>
        <time>2012-07-26T13:20:07Z</time>
      </trkpt>
      <trkpt lat="42.82698" lon="-0.58081">
        <ele>1787.70874</ele>
        <time>2012-07-26T13:20:20Z</time>
      </trkpt>
      <trkpt lat="42.82699" lon="-0.58058">
        <ele>1785.786133</ele>
        <time>2012-07-26T13:20:37Z</time>
      </trkpt>
      <trkpt lat="42.82696" lon="-0.5804">
        <ele>1784.344238</ele>
        <time>2012-07-26T13:20:49Z</time>
      </trkpt>
      <trkpt lat="42.82689" lon="-0.58009">
        <ele>1780.979736</ele>
        <time>2012-07-26T13:21:12Z</time>
      </trkpt>
      <trkpt lat="42.82684" lon="-0.57989">
        <ele>1778.576416</ele>
        <time>2012-07-26T13:21:29Z</time>
      </trkpt>
      <trkpt lat="42.82677" lon="-0.5798">
        <ele>1775.692383</ele>
        <time>2012-07-26T13:21:42Z</time>
      </trkpt>
      <trkpt lat="42.82675" lon="-0.57982">
        <ele>1774.731201</ele>
        <time>2012-07-26T13:21:45Z</time>
      </trkpt>
      <trkpt lat="42.82667" lon="-0.57992">
        <ele>1771.366211</ele>
        <time>2012-07-26T13:21:58Z</time>
      </trkpt>
      <trkpt lat="42.8266" lon="-0.57988">
        <ele>1770.885742</ele>
        <time>2012-07-26T13:22:07Z</time>
      </trkpt>
      <trkpt lat="42.82648" lon="-0.57967">
        <ele>1768.001709</ele>
        <time>2012-07-26T13:22:27Z</time>
      </trkpt>
      <trkpt lat="42.82641" lon="-0.57961">
        <ele>1764.637207</ele>
        <time>2012-07-26T13:22:36Z</time>
      </trkpt>
      <trkpt lat="42.8264" lon="-0.57959">
        <ele>1766.079102</ele>
        <time>2012-07-26T13:22:38Z</time>
      </trkpt>
      <trkpt lat="42.82634" lon="-0.57944">
        <ele>1762.233887</ele>
        <time>2012-07-26T13:22:52Z</time>
      </trkpt>
      <trkpt lat="42.82623" lon="-0.57928">
        <ele>1758.869385</ele>
        <time>2012-07-26T13:23:09Z</time>
      </trkpt>
      <trkpt lat="42.82617" lon="-0.57922">
        <ele>1757.908203</ele>
        <time>2012-07-26T13:23:17Z</time>
      </trkpt>
      <trkpt lat="42.82607" lon="-0.57923">
        <ele>1753.582031</ele>
        <time>2012-07-26T13:23:30Z</time>
      </trkpt>
      <trkpt lat="42.82599" lon="-0.57923">
        <ele>1752.139893</ele>
        <time>2012-07-26T13:23:39Z</time>
      </trkpt>
      <trkpt lat="42.82582" lon="-0.57936">
        <ele>1749.256104</ele>
        <time>2012-07-26T13:23:59Z</time>
      </trkpt>
      <trkpt lat="42.82569" lon="-0.57948">
        <ele>1745.891602</ele>
        <time>2012-07-26T13:24:14Z</time>
      </trkpt>
      <trkpt lat="42.82564" lon="-0.57946">
        <ele>1745.410889</ele>
        <time>2012-07-26T13:24:20Z</time>
      </trkpt>
      <trkpt lat="42.82561" lon="-0.57928">
        <ele>1744.449463</ele>
        <time>2012-07-26T13:24:32Z</time>
      </trkpt>
      <trkpt lat="42.82561" lon="-0.57918">
        <ele>1743.007568</ele>
        <time>2012-07-26T13:24:40Z</time>
      </trkpt>
      <trkpt lat="42.82547" lon="-0.57896">
        <ele>1741.565674</ele>
        <time>2012-07-26T13:25:00Z</time>
      </trkpt>
      <trkpt lat="42.82537" lon="-0.57882">
        <ele>1738.200928</ele>
        <time>2012-07-26T13:25:14Z</time>
      </trkpt>
      <trkpt lat="42.82534" lon="-0.57869">
        <ele>1734.836426</ele>
        <time>2012-07-26T13:25:26Z</time>
      </trkpt>
      <trkpt lat="42.82523" lon="-0.5784">
        <ele>1731.952393</ele>
        <time>2012-07-26T13:25:48Z</time>
      </trkpt>
      <trkpt lat="42.8251" lon="-0.57815">
        <ele>1730.029785</ele>
        <time>2012-07-26T13:26:09Z</time>
      </trkpt>
      <trkpt lat="42.82503" lon="-0.57788">
        <ele>1727.145996</ele>
        <time>2012-07-26T13:26:29Z</time>
      </trkpt>
      <trkpt lat="42.82503" lon="-0.57774">
        <ele>1724.261963</ele>
        <time>2012-07-26T13:26:38Z</time>
      </trkpt>
      <trkpt lat="42.82503" lon="-0.57773">
        <ele>1723.781006</ele>
        <time>2012-07-26T13:26:39Z</time>
      </trkpt>
      <trkpt lat="42.82494" lon="-0.57759">
        <ele>1721.858398</ele>
        <time>2012-07-26T13:26:52Z</time>
      </trkpt>
      <trkpt lat="42.82486" lon="-0.57782">
        <ele>1718.493896</ele>
        <time>2012-07-26T13:27:11Z</time>
      </trkpt>
      <trkpt lat="42.82478" lon="-0.57807">
        <ele>1716.571289</ele>
        <time>2012-07-26T13:27:29Z</time>
      </trkpt>
      <trkpt lat="42.82472" lon="-0.57831">
        <ele>1714.167969</ele>
        <time>2012-07-26T13:27:47Z</time>
      </trkpt>
      <trkpt lat="42.82473" lon="-0.57853">
        <ele>1711.764893</ele>
        <time>2012-07-26T13:28:03Z</time>
      </trkpt>
      <trkpt lat="42.82474" lon="-0.57876">
        <ele>1710.803467</ele>
        <time>2012-07-26T13:28:19Z</time>
      </trkpt>
      <trkpt lat="42.82473" lon="-0.57903">
        <ele>1708.880859</ele>
        <time>2012-07-26T13:28:38Z</time>
      </trkpt>
      <trkpt lat="42.82469" lon="-0.57926">
        <ele>1707.438721</ele>
        <time>2012-07-26T13:28:54Z</time>
      </trkpt>
      <trkpt lat="42.82469" lon="-0.57954">
        <ele>1705.996582</ele>
        <time>2012-07-26T13:29:13Z</time>
      </trkpt>
      <trkpt lat="42.82466" lon="-0.57984">
        <ele>1704.074219</ele>
        <time>2012-07-26T13:29:32Z</time>
      </trkpt>
      <trkpt lat="42.82465" lon="-0.57993">
        <ele>1705.516113</ele>
        <time>2012-07-26T13:29:39Z</time>
      </trkpt>
      <trkpt lat="42.82458" lon="-0.58009">
        <ele>1705.996582</ele>
        <time>2012-07-26T13:29:56Z</time>
      </trkpt>
      <trkpt lat="42.82459" lon="-0.58025">
        <ele>1703.593506</ele>
        <time>2012-07-26T13:30:11Z</time>
      </trkpt>
      <trkpt lat="42.82459" lon="-0.58029">
        <ele>1702.151367</ele>
        <time>2012-07-26T13:30:14Z</time>
      </trkpt>
      <trkpt lat="42.82464" lon="-0.58037">
        <ele>1700.229004</ele>
        <time>2012-07-26T13:30:22Z</time>
      </trkpt>
      <trkpt lat="42.82471" lon="-0.58056">
        <ele>1699.748291</ele>
        <time>2012-07-26T13:30:39Z</time>
      </trkpt>
      <trkpt lat="42.82469" lon="-0.58081">
        <ele>1696.383789</ele>
        <time>2012-07-26T13:30:57Z</time>
      </trkpt>
      <trkpt lat="42.82471" lon="-0.58106">
        <ele>1693.499756</ele>
        <time>2012-07-26T13:31:15Z</time>
      </trkpt>
      <trkpt lat="42.82473" lon="-0.58124">
        <ele>1690.13501</ele>
        <time>2012-07-26T13:31:30Z</time>
      </trkpt>
      <trkpt lat="42.82476" lon="-0.58143">
        <ele>1689.173584</ele>
        <time>2012-07-26T13:31:44Z</time>
      </trkpt>
      <trkpt lat="42.82476" lon="-0.5815">
        <ele>1688.212402</ele>
        <time>2012-07-26T13:31:49Z</time>
      </trkpt>
      <trkpt lat="42.82472" lon="-0.58184">
        <ele>1686.770264</ele>
        <time>2012-07-26T13:32:11Z</time>
      </trkpt>
      <trkpt lat="42.82472" lon="-0.58206">
        <ele>1684.8479</ele>
        <time>2012-07-26T13:32:27Z</time>
      </trkpt>
      <trkpt lat="42.82476" lon="-0.58215">
        <ele>1683.405762</ele>
        <time>2012-07-26T13:32:45Z</time>
      </trkpt>
      <trkpt lat="42.82476" lon="-0.58215">
        <ele>1682.925049</ele>
        <time>2012-07-26T13:34:01Z</time>
      </trkpt>
      <trkpt lat="42.82474" lon="-0.58215">
        <ele>1681.963867</ele>
        <time>2012-07-26T13:35:46Z</time>
      </trkpt>
      <trkpt lat="42.82474" lon="-0.58216">
        <ele>1680.04126</ele>
        <time>2012-07-26T13:35:57Z</time>
      </trkpt>
      <trkpt lat="42.82475" lon="-0.58216">
        <ele>1679.560547</ele>
        <time>2012-07-26T13:44:03Z</time>
      </trkpt>
      <trkpt lat="42.82475" lon="-0.58216">
        <ele>1678.118652</ele>
        <time>2012-07-26T13:44:19Z</time>
      </trkpt>
      <trkpt lat="42.82475" lon="-0.58214">
        <ele>1679.560547</ele>
        <time>2012-07-26T13:45:10Z</time>
      </trkpt>
      <trkpt lat="42.8247" lon="-0.58225">
        <ele>1678.118652</ele>
        <time>2012-07-26T13:45:25Z</time>
      </trkpt>
      <trkpt lat="42.82471" lon="-0.58232">
        <ele>1677.637939</ele>
        <time>2012-07-26T13:45:40Z</time>
      </trkpt>
      <trkpt lat="42.82469" lon="-0.58237">
        <ele>1675.234375</ele>
        <time>2012-07-26T13:45:53Z</time>
      </trkpt>
      <trkpt lat="42.82462" lon="-0.58248">
        <ele>1673.312012</ele>
        <time>2012-07-26T13:46:07Z</time>
      </trkpt>
      <trkpt lat="42.82458" lon="-0.58259">
        <ele>1671.38916</ele>
        <time>2012-07-26T13:46:22Z</time>
      </trkpt>
      <trkpt lat="42.82457" lon="-0.58274">
        <ele>1668.986084</ele>
        <time>2012-07-26T13:46:40Z</time>
      </trkpt>
      <trkpt lat="42.82454" lon="-0.58281">
        <ele>1668.505371</ele>
        <time>2012-07-26T13:46:48Z</time>
      </trkpt>
      <trkpt lat="42.82452" lon="-0.58284">
        <ele>1667.063477</ele>
        <time>2012-07-26T13:46:51Z</time>
      </trkpt>
      <trkpt lat="42.82449" lon="-0.58288">
        <ele>1665.621582</ele>
        <time>2012-07-26T13:46:56Z</time>
      </trkpt>
      <trkpt lat="42.82445" lon="-0.5829">
        <ele>1664.660156</ele>
        <time>2012-07-26T13:47:00Z</time>
      </trkpt>
      <trkpt lat="42.82433" lon="-0.58302">
        <ele>1662.737549</ele>
        <time>2012-07-26T13:47:17Z</time>
      </trkpt>
      <trkpt lat="42.82422" lon="-0.58318">
        <ele>1660.814941</ele>
        <time>2012-07-26T13:47:33Z</time>
      </trkpt>
      <trkpt lat="42.82412" lon="-0.58337">
        <ele>1659.372803</ele>
        <time>2012-07-26T13:47:49Z</time>
      </trkpt>
      <trkpt lat="42.82411" lon="-0.58354">
        <ele>1657.450195</ele>
        <time>2012-07-26T13:48:05Z</time>
      </trkpt>
      <trkpt lat="42.82407" lon="-0.58364">
        <ele>1656.008057</ele>
        <time>2012-07-26T13:48:17Z</time>
      </trkpt>
      <trkpt lat="42.82405" lon="-0.58372">
        <ele>1654.566162</ele>
        <time>2012-07-26T13:48:23Z</time>
      </trkpt>
      <trkpt lat="42.82392" lon="-0.58395">
        <ele>1653.124268</ele>
        <time>2012-07-26T13:48:42Z</time>
      </trkpt>
      <trkpt lat="42.82386" lon="-0.58401">
        <ele>1651.682373</ele>
        <time>2012-07-26T13:48:50Z</time>
      </trkpt>
      <trkpt lat="42.82374" lon="-0.58423">
        <ele>1649.759766</ele>
        <time>2012-07-26T13:49:08Z</time>
      </trkpt>
      <trkpt lat="42.82368" lon="-0.58439">
        <ele>1648.79834</ele>
        <time>2012-07-26T13:49:21Z</time>
      </trkpt>
      <trkpt lat="42.8236" lon="-0.58464">
        <ele>1646.395264</ele>
        <time>2012-07-26T13:49:38Z</time>
      </trkpt>
      <trkpt lat="42.82355" lon="-0.58483">
        <ele>1647.356445</ele>
        <time>2012-07-26T13:49:53Z</time>
      </trkpt>
      <trkpt lat="42.82349" lon="-0.58497">
        <ele>1647.837158</ele>
        <time>2012-07-26T13:50:07Z</time>
      </trkpt>
      <trkpt lat="42.82348" lon="-0.58498">
        <ele>1648.317627</ele>
        <time>2012-07-26T13:50:08Z</time>
      </trkpt>
      <trkpt lat="42.82344" lon="-0.58518">
        <ele>1647.837158</ele>
        <time>2012-07-26T13:50:22Z</time>
      </trkpt>
      <trkpt lat="42.82342" lon="-0.58519">
        <ele>1647.837158</ele>
        <time>2012-07-26T13:50:24Z</time>
      </trkpt>
      <trkpt lat="42.8234" lon="-0.58539">
        <ele>1647.356445</ele>
        <time>2012-07-26T13:50:39Z</time>
      </trkpt>
      <trkpt lat="42.82346" lon="-0.58548">
        <ele>1647.837158</ele>
        <time>2012-07-26T13:50:55Z</time>
      </trkpt>
      <trkpt lat="42.82347" lon="-0.58547">
        <ele>1647.837158</ele>
        <time>2012-07-26T13:51:38Z</time>
      </trkpt>
      <trkpt lat="42.82345" lon="-0.58548">
        <ele>1649.279053</ele>
        <time>2012-07-26T13:51:56Z</time>
      </trkpt>
      <trkpt lat="42.82346" lon="-0.58548">
        <ele>1647.837158</ele>
        <time>2012-07-26T13:52:52Z</time>
      </trkpt>
      <trkpt lat="42.82344" lon="-0.58548">
        <ele>1647.837158</ele>
        <time>2012-07-26T13:54:03Z</time>
      </trkpt>
      <trkpt lat="42.82345" lon="-0.58551">
        <ele>1647.837158</ele>
        <time>2012-07-26T13:54:23Z</time>
      </trkpt>
      <trkpt lat="42.82349" lon="-0.5855">
        <ele>1647.837158</ele>
        <time>2012-07-26T13:54:52Z</time>
      </trkpt>
      <trkpt lat="42.82351" lon="-0.58561">
        <ele>1646.395264</ele>
        <time>2012-07-26T13:55:20Z</time>
      </trkpt>
      <trkpt lat="42.82353" lon="-0.58563">
        <ele>1646.875732</ele>
        <time>2012-07-26T13:55:25Z</time>
      </trkpt>
      <trkpt lat="42.82358" lon="-0.58574">
        <ele>1645.914551</ele>
        <time>2012-07-26T13:55:40Z</time>
      </trkpt>
      <trkpt lat="42.82351" lon="-0.58577">
        <ele>1643.030273</ele>
        <time>2012-07-26T13:55:50Z</time>
      </trkpt>
      <trkpt lat="42.8235" lon="-0.58578">
        <ele>1643.030273</ele>
        <time>2012-07-26T13:55:51Z</time>
      </trkpt>
      <trkpt lat="42.82348" lon="-0.5858">
        <ele>1643.030273</ele>
        <time>2012-07-26T13:55:54Z</time>
      </trkpt>
      <trkpt lat="42.82324" lon="-0.58585">
        <ele>1639.665771</ele>
        <time>2012-07-26T13:56:16Z</time>
      </trkpt>
      <trkpt lat="42.82321" lon="-0.5859">
        <ele>1639.185059</ele>
        <time>2012-07-26T13:56:22Z</time>
      </trkpt>
      <trkpt lat="42.82318" lon="-0.58605">
        <ele>1637.262451</ele>
        <time>2012-07-26T13:56:33Z</time>
      </trkpt>
      <trkpt lat="42.82311" lon="-0.58605">
        <ele>1637.743164</ele>
        <time>2012-07-26T13:56:41Z</time>
      </trkpt>
      <trkpt lat="42.823" lon="-0.58584">
        <ele>1641.107666</ele>
        <time>2012-07-26T13:57:00Z</time>
      </trkpt>
      <trkpt lat="42.82292" lon="-0.58566">
        <ele>1643.991699</ele>
        <time>2012-07-26T13:57:17Z</time>
      </trkpt>
      <trkpt lat="42.8229" lon="-0.58564">
        <ele>1643.510986</ele>
        <time>2012-07-26T13:57:20Z</time>
      </trkpt>
      <trkpt lat="42.82279" lon="-0.58552">
        <ele>1644.472412</ele>
        <time>2012-07-26T13:57:33Z</time>
      </trkpt>
      <trkpt lat="42.82272" lon="-0.58542">
        <ele>1642.549805</ele>
        <time>2012-07-26T13:57:44Z</time>
      </trkpt>
      <trkpt lat="42.82256" lon="-0.58522">
        <ele>1641.107666</ele>
        <time>2012-07-26T13:58:04Z</time>
      </trkpt>
      <trkpt lat="42.82235" lon="-0.5851">
        <ele>1639.665771</ele>
        <time>2012-07-26T13:58:24Z</time>
      </trkpt>
      <trkpt lat="42.82214" lon="-0.58513">
        <ele>1638.70459</ele>
        <time>2012-07-26T13:58:43Z</time>
      </trkpt>
      <trkpt lat="42.82191" lon="-0.585">
        <ele>1635.820557</ele>
        <time>2012-07-26T13:59:05Z</time>
      </trkpt>
      <trkpt lat="42.82169" lon="-0.58503">
        <ele>1633.897949</ele>
        <time>2012-07-26T13:59:25Z</time>
      </trkpt>
      <trkpt lat="42.82154" lon="-0.5849">
        <ele>1632.456055</ele>
        <time>2012-07-26T13:59:43Z</time>
      </trkpt>
      <trkpt lat="42.8214" lon="-0.58464">
        <ele>1631.975342</ele>
        <time>2012-07-26T14:00:04Z</time>
      </trkpt>
      <trkpt lat="42.82124" lon="-0.58436">
        <ele>1630.533447</ele>
        <time>2012-07-26T14:00:28Z</time>
      </trkpt>
      <trkpt lat="42.82116" lon="-0.58403">
        <ele>1629.572021</ele>
        <time>2012-07-26T14:00:50Z</time>
      </trkpt>
      <trkpt lat="42.82122" lon="-0.58368">
        <ele>1627.64917</ele>
        <time>2012-07-26T14:01:13Z</time>
      </trkpt>
      <trkpt lat="42.82127" lon="-0.58331">
        <ele>1629.572021</ele>
        <time>2012-07-26T14:01:37Z</time>
      </trkpt>
      <trkpt lat="42.82127" lon="-0.58306">
        <ele>1629.572021</ele>
        <time>2012-07-26T14:01:54Z</time>
      </trkpt>
      <trkpt lat="42.82127" lon="-0.58302">
        <ele>1631.975342</ele>
        <time>2012-07-26T14:01:57Z</time>
      </trkpt>
      <trkpt lat="42.82124" lon="-0.58273">
        <ele>1633.897949</ele>
        <time>2012-07-26T14:02:17Z</time>
      </trkpt>
      <trkpt lat="42.82127" lon="-0.58254">
        <ele>1634.378662</ele>
        <time>2012-07-26T14:02:30Z</time>
      </trkpt>
      <trkpt lat="42.82129" lon="-0.5824">
        <ele>1634.378662</ele>
        <time>2012-07-26T14:02:40Z</time>
      </trkpt>
      <trkpt lat="42.82128" lon="-0.58207">
        <ele>1631.975342</ele>
        <time>2012-07-26T14:03:01Z</time>
      </trkpt>
      <trkpt lat="42.82124" lon="-0.58183">
        <ele>1629.572021</ele>
        <time>2012-07-26T14:03:16Z</time>
      </trkpt>
      <trkpt lat="42.82123" lon="-0.58176">
        <ele>1628.130127</ele>
        <time>2012-07-26T14:03:21Z</time>
      </trkpt>
      <trkpt lat="42.82118" lon="-0.58142">
        <ele>1624.765381</ele>
        <time>2012-07-26T14:03:43Z</time>
      </trkpt>
      <trkpt lat="42.82108" lon="-0.5813">
        <ele>1621.400635</ele>
        <time>2012-07-26T14:03:56Z</time>
      </trkpt>
      <trkpt lat="42.82097" lon="-0.58109">
        <ele>1618.516846</ele>
        <time>2012-07-26T14:04:14Z</time>
      </trkpt>
      <trkpt lat="42.82089" lon="-0.58083">
        <ele>1615.633057</ele>
        <time>2012-07-26T14:04:32Z</time>
      </trkpt>
      <trkpt lat="42.82077" lon="-0.58062">
        <ele>1612.749023</ele>
        <time>2012-07-26T14:04:51Z</time>
      </trkpt>
      <trkpt lat="42.82076" lon="-0.58059">
        <ele>1611.787598</ele>
        <time>2012-07-26T14:04:54Z</time>
      </trkpt>
      <trkpt lat="42.82074" lon="-0.58047">
        <ele>1609.384277</ele>
        <time>2012-07-26T14:05:04Z</time>
      </trkpt>
      <trkpt lat="42.82068" lon="-0.58012">
        <ele>1607.942383</ele>
        <time>2012-07-26T14:05:27Z</time>
      </trkpt>
      <trkpt lat="42.82053" lon="-0.57994">
        <ele>1606.500244</ele>
        <time>2012-07-26T14:05:46Z</time>
      </trkpt>
      <trkpt lat="42.82042" lon="-0.57987">
        <ele>1603.135742</ele>
        <time>2012-07-26T14:06:00Z</time>
      </trkpt>
      <trkpt lat="42.82033" lon="-0.5798">
        <ele>1600.251953</ele>
        <time>2012-07-26T14:06:11Z</time>
      </trkpt>
      <trkpt lat="42.82022" lon="-0.57972">
        <ele>1596.887207</ele>
        <time>2012-07-26T14:06:26Z</time>
      </trkpt>
      <trkpt lat="42.82015" lon="-0.57956">
        <ele>1593.522461</ele>
        <time>2012-07-26T14:06:43Z</time>
      </trkpt>
      <trkpt lat="42.8201" lon="-0.57941">
        <ele>1591.599854</ele>
        <time>2012-07-26T14:06:58Z</time>
      </trkpt>
      <trkpt lat="42.82003" lon="-0.57948">
        <ele>1590.157959</ele>
        <time>2012-07-26T14:07:07Z</time>
      </trkpt>
      <trkpt lat="42.82001" lon="-0.57971">
        <ele>1587.273926</ele>
        <time>2012-07-26T14:07:26Z</time>
      </trkpt>
      <trkpt lat="42.82003" lon="-0.5798">
        <ele>1585.351318</ele>
        <time>2012-07-26T14:07:35Z</time>
      </trkpt>
      <trkpt lat="42.82006" lon="-0.58">
        <ele>1581.506104</ele>
        <time>2012-07-26T14:07:51Z</time>
      </trkpt>
      <trkpt lat="42.82008" lon="-0.58007">
        <ele>1580.544922</ele>
        <time>2012-07-26T14:07:56Z</time>
      </trkpt>
      <trkpt lat="42.82011" lon="-0.58013">
        <ele>1580.064209</ele>
        <time>2012-07-26T14:08:01Z</time>
      </trkpt>
      <trkpt lat="42.82019" lon="-0.58031">
        <ele>1578.141357</ele>
        <time>2012-07-26T14:08:16Z</time>
      </trkpt>
      <trkpt lat="42.82023" lon="-0.58047">
        <ele>1574.776855</ele>
        <time>2012-07-26T14:08:29Z</time>
      </trkpt>
      <trkpt lat="42.82022" lon="-0.58054">
        <ele>1573.334961</ele>
        <time>2012-07-26T14:08:34Z</time>
      </trkpt>
      <trkpt lat="42.8202" lon="-0.58074">
        <ele>1570.931641</ele>
        <time>2012-07-26T14:08:47Z</time>
      </trkpt>
      <trkpt lat="42.82018" lon="-0.58092">
        <ele>1568.047607</ele>
        <time>2012-07-26T14:09:01Z</time>
      </trkpt>
      <trkpt lat="42.82015" lon="-0.58083">
        <ele>1566.605713</ele>
        <time>2012-07-26T14:09:13Z</time>
      </trkpt>
      <trkpt lat="42.82015" lon="-0.58082">
        <ele>1566.605713</ele>
        <time>2012-07-26T14:09:14Z</time>
      </trkpt>
      <trkpt lat="42.8201" lon="-0.58054">
        <ele>1563.721436</ele>
        <time>2012-07-26T14:09:34Z</time>
      </trkpt>
      <trkpt lat="42.82002" lon="-0.5804">
        <ele>1562.279541</ele>
        <time>2012-07-26T14:09:49Z</time>
      </trkpt>
      <trkpt lat="42.81993" lon="-0.58037">
        <ele>1561.799072</ele>
        <time>2012-07-26T14:09:56Z</time>
      </trkpt>
      <trkpt lat="42.81992" lon="-0.5804">
        <ele>1561.318359</ele>
        <time>2012-07-26T14:09:58Z</time>
      </trkpt>
      <trkpt lat="42.81999" lon="-0.58059">
        <ele>1559.876221</ele>
        <time>2012-07-26T14:10:14Z</time>
      </trkpt>
      <trkpt lat="42.81995" lon="-0.58073">
        <ele>1557.473145</ele>
        <time>2012-07-26T14:10:25Z</time>
      </trkpt>
      <trkpt lat="42.81992" lon="-0.58078">
        <ele>1557.473145</ele>
        <time>2012-07-26T14:10:29Z</time>
      </trkpt>
      <trkpt lat="42.81988" lon="-0.58087">
        <ele>1556.511719</ele>
        <time>2012-07-26T14:10:34Z</time>
      </trkpt>
      <trkpt lat="42.81981" lon="-0.58118">
        <ele>1555.069824</ele>
        <time>2012-07-26T14:10:53Z</time>
      </trkpt>
      <trkpt lat="42.81988" lon="-0.58145">
        <ele>1553.147217</ele>
        <time>2012-07-26T14:11:10Z</time>
      </trkpt>
      <trkpt lat="42.81993" lon="-0.58159">
        <ele>1549.782715</ele>
        <time>2012-07-26T14:11:20Z</time>
      </trkpt>
      <trkpt lat="42.81994" lon="-0.58182">
        <ele>1547.859863</ele>
        <time>2012-07-26T14:11:35Z</time>
      </trkpt>
      <trkpt lat="42.81988" lon="-0.58186">
        <ele>1544.97583</ele>
        <time>2012-07-26T14:11:49Z</time>
      </trkpt>
      <trkpt lat="42.81988" lon="-0.58177">
        <ele>1544.495117</ele>
        <time>2012-07-26T14:11:56Z</time>
      </trkpt>
      <trkpt lat="42.8198" lon="-0.58162">
        <ele>1543.053223</ele>
        <time>2012-07-26T14:12:09Z</time>
      </trkpt>
      <trkpt lat="42.81973" lon="-0.5815">
        <ele>1540.169434</ele>
        <time>2012-07-26T14:12:23Z</time>
      </trkpt>
      <trkpt lat="42.81959" lon="-0.5813">
        <ele>1538.246826</ele>
        <time>2012-07-26T14:12:37Z</time>
      </trkpt>
      <trkpt lat="42.81955" lon="-0.58125">
        <ele>1537.2854</ele>
        <time>2012-07-26T14:12:42Z</time>
      </trkpt>
      <trkpt lat="42.8195" lon="-0.58126">
        <ele>1535.362793</ele>
        <time>2012-07-26T14:12:46Z</time>
      </trkpt>
      <trkpt lat="42.81946" lon="-0.5813">
        <ele>1534.882324</ele>
        <time>2012-07-26T14:12:50Z</time>
      </trkpt>
      <trkpt lat="42.81953" lon="-0.58151">
        <ele>1532.959473</ele>
        <time>2012-07-26T14:13:04Z</time>
      </trkpt>
      <trkpt lat="42.81955" lon="-0.58176">
        <ele>1530.075439</ele>
        <time>2012-07-26T14:13:21Z</time>
      </trkpt>
      <trkpt lat="42.81952" lon="-0.58206">
        <ele>1528.152832</ele>
        <time>2012-07-26T14:13:37Z</time>
      </trkpt>
      <trkpt lat="42.81947" lon="-0.5823">
        <ele>1525.749512</ele>
        <time>2012-07-26T14:13:51Z</time>
      </trkpt>
      <trkpt lat="42.81948" lon="-0.58252">
        <ele>1523.346436</ele>
        <time>2012-07-26T14:14:06Z</time>
      </trkpt>
      <trkpt lat="42.81941" lon="-0.58242">
        <ele>1520.462402</ele>
        <time>2012-07-26T14:14:20Z</time>
      </trkpt>
      <trkpt lat="42.81936" lon="-0.58232">
        <ele>1519.501221</ele>
        <time>2012-07-26T14:14:30Z</time>
      </trkpt>
      <trkpt lat="42.81931" lon="-0.58216">
        <ele>1517.578369</ele>
        <time>2012-07-26T14:14:41Z</time>
      </trkpt>
      <trkpt lat="42.81932" lon="-0.58197">
        <ele>1516.136475</ele>
        <time>2012-07-26T14:14:55Z</time>
      </trkpt>
      <trkpt lat="42.81929" lon="-0.58193">
        <ele>1515.655762</ele>
        <time>2012-07-26T14:15:07Z</time>
      </trkpt>
      <trkpt lat="42.81921" lon="-0.5819">
        <ele>1515.175049</ele>
        <time>2012-07-26T14:15:14Z</time>
      </trkpt>
      <trkpt lat="42.81912" lon="-0.58215">
        <ele>1514.213623</ele>
        <time>2012-07-26T14:15:29Z</time>
      </trkpt>
      <trkpt lat="42.81909" lon="-0.58231">
        <ele>1509.887695</ele>
        <time>2012-07-26T14:15:41Z</time>
      </trkpt>
      <trkpt lat="42.81909" lon="-0.58232">
        <ele>1509.887695</ele>
        <time>2012-07-26T14:15:42Z</time>
      </trkpt>
      <trkpt lat="42.81909" lon="-0.58229">
        <ele>1508.445801</ele>
        <time>2012-07-26T14:15:49Z</time>
      </trkpt>
      <trkpt lat="42.81908" lon="-0.58224">
        <ele>1507.965332</ele>
        <time>2012-07-26T14:15:59Z</time>
      </trkpt>
      <trkpt lat="42.81895" lon="-0.58227">
        <ele>1505.081299</ele>
        <time>2012-07-26T14:16:39Z</time>
      </trkpt>
      <trkpt lat="42.81891" lon="-0.58224">
        <ele>1503.158691</ele>
        <time>2012-07-26T14:16:46Z</time>
      </trkpt>
      <trkpt lat="42.81882" lon="-0.5823">
        <ele>1500.274902</ele>
        <time>2012-07-26T14:17:05Z</time>
      </trkpt>
      <trkpt lat="42.8188" lon="-0.58234">
        <ele>1498.351807</ele>
        <time>2012-07-26T14:17:10Z</time>
      </trkpt>
      <trkpt lat="42.81875" lon="-0.58237">
        <ele>1494.987305</ele>
        <time>2012-07-26T14:17:27Z</time>
      </trkpt>
      <trkpt lat="42.81871" lon="-0.58233">
        <ele>1494.026123</ele>
        <time>2012-07-26T14:17:35Z</time>
      </trkpt>
      <trkpt lat="42.81863" lon="-0.58247">
        <ele>1493.54541</ele>
        <time>2012-07-26T14:17:45Z</time>
      </trkpt>
      <trkpt lat="42.81861" lon="-0.58255">
        <ele>1491.622803</ele>
        <time>2012-07-26T14:17:50Z</time>
      </trkpt>
      <trkpt lat="42.8186" lon="-0.5827">
        <ele>1489.700195</ele>
        <time>2012-07-26T14:18:04Z</time>
      </trkpt>
      <trkpt lat="42.81858" lon="-0.58274">
        <ele>1489.219482</ele>
        <time>2012-07-26T14:18:07Z</time>
      </trkpt>
      <trkpt lat="42.81848" lon="-0.58286">
        <ele>1487.777588</ele>
        <time>2012-07-26T14:18:23Z</time>
      </trkpt>
      <trkpt lat="42.81843" lon="-0.58281">
        <ele>1487.296875</ele>
        <time>2012-07-26T14:18:29Z</time>
      </trkpt>
      <trkpt lat="42.81846" lon="-0.58265">
        <ele>1487.296875</ele>
        <time>2012-07-26T14:18:39Z</time>
      </trkpt>
      <trkpt lat="42.81851" lon="-0.58255">
        <ele>1485.85498</ele>
        <time>2012-07-26T14:18:46Z</time>
      </trkpt>
      <trkpt lat="42.81853" lon="-0.58246">
        <ele>1485.374268</ele>
        <time>2012-07-26T14:18:51Z</time>
      </trkpt>
      <trkpt lat="42.81853" lon="-0.58238">
        <ele>1484.413086</ele>
        <time>2012-07-26T14:18:56Z</time>
      </trkpt>
      <trkpt lat="42.81847" lon="-0.58224">
        <ele>1483.451416</ele>
        <time>2012-07-26T14:19:06Z</time>
      </trkpt>
      <trkpt lat="42.81843" lon="-0.58205">
        <ele>1480.567627</ele>
        <time>2012-07-26T14:19:17Z</time>
      </trkpt>
      <trkpt lat="42.81842" lon="-0.58203">
        <ele>1480.086914</ele>
        <time>2012-07-26T14:19:18Z</time>
      </trkpt>
      <trkpt lat="42.81826" lon="-0.58182">
        <ele>1477.203125</ele>
        <time>2012-07-26T14:19:28Z</time>
      </trkpt>
      <trkpt lat="42.81823" lon="-0.58163">
        <ele>1475.760986</ele>
        <time>2012-07-26T14:19:43Z</time>
      </trkpt>
      <trkpt lat="42.81826" lon="-0.5816">
        <ele>1476.722412</ele>
        <time>2012-07-26T14:19:46Z</time>
      </trkpt>
      <trkpt lat="42.81836" lon="-0.58144">
        <ele>1475.760986</ele>
        <time>2012-07-26T14:19:56Z</time>
      </trkpt>
      <trkpt lat="42.81836" lon="-0.58131">
        <ele>1473.35791</ele>
        <time>2012-07-26T14:20:04Z</time>
      </trkpt>
      <trkpt lat="42.81829" lon="-0.5811">
        <ele>1472.396484</ele>
        <time>2012-07-26T14:20:16Z</time>
      </trkpt>
      <trkpt lat="42.81827" lon="-0.58092">
        <ele>1470.95459</ele>
        <time>2012-07-26T14:20:25Z</time>
      </trkpt>
      <trkpt lat="42.81828" lon="-0.58076">
        <ele>1469.512695</ele>
        <time>2012-07-26T14:20:36Z</time>
      </trkpt>
      <trkpt lat="42.81826" lon="-0.58064">
        <ele>1467.5896</ele>
        <time>2012-07-26T14:20:43Z</time>
      </trkpt>
      <trkpt lat="42.81824" lon="-0.58053">
        <ele>1467.109131</ele>
        <time>2012-07-26T14:20:50Z</time>
      </trkpt>
      <trkpt lat="42.81822" lon="-0.58034">
        <ele>1466.147705</ele>
        <time>2012-07-26T14:21:01Z</time>
      </trkpt>
      <trkpt lat="42.81808" lon="-0.58039">
        <ele>1463.744385</ele>
        <time>2012-07-26T14:21:09Z</time>
      </trkpt>
      <trkpt lat="42.81804" lon="-0.58059">
        <ele>1464.225098</ele>
        <time>2012-07-26T14:21:19Z</time>
      </trkpt>
      <trkpt lat="42.81803" lon="-0.58065">
        <ele>1461.822021</ele>
        <time>2012-07-26T14:21:23Z</time>
      </trkpt>
      <trkpt lat="42.81784" lon="-0.58087">
        <ele>1459.89917</ele>
        <time>2012-07-26T14:21:41Z</time>
      </trkpt>
      <trkpt lat="42.81772" lon="-0.58103">
        <ele>1457.496094</ele>
        <time>2012-07-26T14:21:54Z</time>
      </trkpt>
      <trkpt lat="42.81756" lon="-0.58115">
        <ele>1454.612061</ele>
        <time>2012-07-26T14:22:12Z</time>
      </trkpt>
      <trkpt lat="42.81738" lon="-0.58132">
        <ele>1453.170166</ele>
        <time>2012-07-26T14:22:30Z</time>
      </trkpt>
      <trkpt lat="42.81736" lon="-0.58142">
        <ele>1452.689453</ele>
        <time>2012-07-26T14:22:36Z</time>
      </trkpt>
      <trkpt lat="42.81735" lon="-0.58149">
        <ele>1452.689453</ele>
        <time>2012-07-26T14:22:40Z</time>
      </trkpt>
      <trkpt lat="42.81728" lon="-0.58172">
        <ele>1449.80542</ele>
        <time>2012-07-26T14:22:53Z</time>
      </trkpt>
      <trkpt lat="42.81725" lon="-0.58183">
        <ele>1449.80542</ele>
        <time>2012-07-26T14:23:03Z</time>
      </trkpt>
      <trkpt lat="42.8172" lon="-0.58186">
        <ele>1448.843994</ele>
        <time>2012-07-26T14:23:14Z</time>
      </trkpt>
      <trkpt lat="42.81709" lon="-0.58189">
        <ele>1447.4021</ele>
        <time>2012-07-26T14:23:26Z</time>
      </trkpt>
      <trkpt lat="42.81702" lon="-0.58189">
        <ele>1446.921387</ele>
        <time>2012-07-26T14:23:33Z</time>
      </trkpt>
      <trkpt lat="42.81691" lon="-0.58195">
        <ele>1445.479492</ele>
        <time>2012-07-26T14:23:46Z</time>
      </trkpt>
      <trkpt lat="42.81682" lon="-0.58195">
        <ele>1444.518066</ele>
        <time>2012-07-26T14:23:55Z</time>
      </trkpt>
      <trkpt lat="42.81668" lon="-0.58193">
        <ele>1440.672852</ele>
        <time>2012-07-26T14:24:09Z</time>
      </trkpt>
      <trkpt lat="42.81654" lon="-0.58195">
        <ele>1438.269775</ele>
        <time>2012-07-26T14:24:22Z</time>
      </trkpt>
      <trkpt lat="42.81641" lon="-0.58203">
        <ele>1437.789062</ele>
        <time>2012-07-26T14:24:34Z</time>
      </trkpt>
      <trkpt lat="42.81628" lon="-0.58215">
        <ele>1435.866211</ele>
        <time>2012-07-26T14:24:48Z</time>
      </trkpt>
      <trkpt lat="42.81612" lon="-0.58228">
        <ele>1434.905029</ele>
        <time>2012-07-26T14:25:04Z</time>
      </trkpt>
      <trkpt lat="42.81604" lon="-0.58236">
        <ele>1432.982178</ele>
        <time>2012-07-26T14:25:13Z</time>
      </trkpt>
      <trkpt lat="42.81597" lon="-0.58245">
        <ele>1432.982178</ele>
        <time>2012-07-26T14:25:29Z</time>
      </trkpt>
      <trkpt lat="42.81607" lon="-0.58249">
        <ele>1432.501709</ele>
        <time>2012-07-26T14:25:51Z</time>
      </trkpt>
      <trkpt lat="42.81587" lon="-0.58242">
        <ele>1431.540283</ele>
        <time>2012-07-26T14:26:03Z</time>
      </trkpt>
      <trkpt lat="42.81574" lon="-0.58256">
        <ele>1430.098389</ele>
        <time>2012-07-26T14:26:16Z</time>
      </trkpt>
      <trkpt lat="42.81568" lon="-0.5826">
        <ele>1429.617676</ele>
        <time>2012-07-26T14:26:22Z</time>
      </trkpt>
      <trkpt lat="42.8156" lon="-0.58279">
        <ele>1427.695068</ele>
        <time>2012-07-26T14:26:34Z</time>
      </trkpt>
      <trkpt lat="42.81557" lon="-0.58294">
        <ele>1427.2146</ele>
        <time>2012-07-26T14:26:43Z</time>
      </trkpt>
      <trkpt lat="42.81544" lon="-0.58316">
        <ele>1427.2146</ele>
        <time>2012-07-26T14:27:01Z</time>
      </trkpt>
      <trkpt lat="42.81536" lon="-0.58323">
        <ele>1425.772461</ele>
        <time>2012-07-26T14:27:14Z</time>
      </trkpt>
      <trkpt lat="42.81521" lon="-0.58339">
        <ele>1425.291748</ele>
        <time>2012-07-26T14:27:37Z</time>
      </trkpt>
      <trkpt lat="42.81533" lon="-0.58347">
        <ele>1424.330566</ele>
        <time>2012-07-26T14:28:14Z</time>
      </trkpt>
      <trkpt lat="42.81528" lon="-0.58357">
        <ele>1422.888672</ele>
        <time>2012-07-26T14:28:28Z</time>
      </trkpt>
      <trkpt lat="42.81542" lon="-0.5835">
        <ele>1423.849854</ele>
        <time>2012-07-26T14:29:47Z</time>
      </trkpt>
      <trkpt lat="42.8156" lon="-0.58357">
        <ele>1424.811279</ele>
        <time>2012-07-26T14:30:11Z</time>
      </trkpt>
      <trkpt lat="42.81523" lon="-0.58367">
        <ele>1423.849854</ele>
        <time>2012-07-26T14:32:25Z</time>
      </trkpt>
      <trkpt lat="42.81515" lon="-0.58373">
        <ele>1422.407959</ele>
        <time>2012-07-26T14:32:37Z</time>
      </trkpt>
      <trkpt lat="42.81506" lon="-0.58378">
        <ele>1420.485352</ele>
        <time>2012-07-26T14:32:49Z</time>
      </trkpt>
      <trkpt lat="42.81497" lon="-0.58384">
        <ele>1420.004639</ele>
        <time>2012-07-26T14:33:02Z</time>
      </trkpt>
      <trkpt lat="42.81484" lon="-0.58393">
        <ele>1416.639893</ele>
        <time>2012-07-26T14:33:16Z</time>
      </trkpt>
      <trkpt lat="42.81474" lon="-0.58393">
        <ele>1416.15918</ele>
        <time>2012-07-26T14:33:26Z</time>
      </trkpt>
      <trkpt lat="42.81457" lon="-0.58396">
        <ele>1413.275391</ele>
        <time>2012-07-26T14:33:44Z</time>
      </trkpt>
      <trkpt lat="42.81449" lon="-0.58395">
        <ele>1412.313965</ele>
        <time>2012-07-26T14:33:52Z</time>
      </trkpt>
      <trkpt lat="42.81437" lon="-0.58386">
        <ele>1412.313965</ele>
        <time>2012-07-26T14:34:04Z</time>
      </trkpt>
      <trkpt lat="42.81435" lon="-0.58395">
        <ele>1411.833496</ele>
        <time>2012-07-26T14:34:15Z</time>
      </trkpt>
      <trkpt lat="42.81429" lon="-0.58405">
        <ele>1412.794678</ele>
        <time>2012-07-26T14:34:45Z</time>
      </trkpt>
      <trkpt lat="42.8141" lon="-0.58407">
        <ele>1413.755859</ele>
        <time>2012-07-26T14:35:00Z</time>
      </trkpt>
      <trkpt lat="42.81405" lon="-0.58409">
        <ele>1414.717285</ele>
        <time>2012-07-26T14:35:05Z</time>
      </trkpt>
      <trkpt lat="42.81401" lon="-0.58411">
        <ele>1413.755859</ele>
        <time>2012-07-26T14:35:09Z</time>
      </trkpt>
      <trkpt lat="42.81383" lon="-0.58433">
        <ele>1415.197998</ele>
        <time>2012-07-26T14:35:31Z</time>
      </trkpt>
      <trkpt lat="42.81361" lon="-0.5845">
        <ele>1417.601074</ele>
        <time>2012-07-26T14:35:55Z</time>
      </trkpt>
      <trkpt lat="42.81351" lon="-0.58451">
        <ele>1416.15918</ele>
        <time>2012-07-26T14:36:08Z</time>
      </trkpt>
      <trkpt lat="42.81349" lon="-0.58449">
        <ele>1415.678711</ele>
        <time>2012-07-26T14:36:10Z</time>
      </trkpt>
      <trkpt lat="42.81346" lon="-0.58446">
        <ele>1414.717285</ele>
        <time>2012-07-26T14:36:14Z</time>
      </trkpt>
      <trkpt lat="42.81341" lon="-0.58441">
        <ele>1413.275391</ele>
        <time>2012-07-26T14:36:25Z</time>
      </trkpt>
      <trkpt lat="42.81335" lon="-0.58433">
        <ele>1411.352783</ele>
        <time>2012-07-26T14:36:35Z</time>
      </trkpt>
      <trkpt lat="42.81331" lon="-0.58426">
        <ele>1411.352783</ele>
        <time>2012-07-26T14:36:42Z</time>
      </trkpt>
      <trkpt lat="42.81326" lon="-0.58414">
        <ele>1408.949463</ele>
        <time>2012-07-26T14:36:53Z</time>
      </trkpt>
      <trkpt lat="42.81325" lon="-0.58409">
        <ele>1408.949463</ele>
        <time>2012-07-26T14:36:55Z</time>
      </trkpt>
      <trkpt lat="42.81324" lon="-0.58397">
        <ele>1407.026855</ele>
        <time>2012-07-26T14:37:06Z</time>
      </trkpt>
      <trkpt lat="42.8134" lon="-0.58387">
        <ele>1403.662109</ele>
        <time>2012-07-26T14:37:23Z</time>
      </trkpt>
      <trkpt lat="42.81341" lon="-0.58388">
        <ele>1403.181396</ele>
        <time>2012-07-26T14:37:24Z</time>
      </trkpt>
      <trkpt lat="42.81344" lon="-0.58383">
        <ele>1401.739502</ele>
        <time>2012-07-26T14:37:31Z</time>
      </trkpt>
      <trkpt lat="42.81353" lon="-0.58374">
        <ele>1398.374756</ele>
        <time>2012-07-26T14:37:40Z</time>
      </trkpt>
      <trkpt lat="42.81361" lon="-0.58374">
        <ele>1395.97168</ele>
        <time>2012-07-26T14:37:57Z</time>
      </trkpt>
      <trkpt lat="42.81367" lon="-0.58369">
        <ele>1393.087646</ele>
        <time>2012-07-26T14:38:07Z</time>
      </trkpt>
      <trkpt lat="42.81375" lon="-0.58367">
        <ele>1391.645752</ele>
        <time>2012-07-26T14:38:19Z</time>
      </trkpt>
      <trkpt lat="42.81381" lon="-0.58354">
        <ele>1390.684326</ele>
        <time>2012-07-26T14:38:31Z</time>
      </trkpt>
      <trkpt lat="42.81382" lon="-0.58345">
        <ele>1389.242432</ele>
        <time>2012-07-26T14:38:41Z</time>
      </trkpt>
      <trkpt lat="42.81396" lon="-0.58343">
        <ele>1387.800293</ele>
        <time>2012-07-26T14:38:54Z</time>
      </trkpt>
      <trkpt lat="42.81393" lon="-0.58325">
        <ele>1383.955078</ele>
        <time>2012-07-26T14:39:10Z</time>
      </trkpt>
      <trkpt lat="42.81401" lon="-0.58323">
        <ele>1381.551758</ele>
        <time>2012-07-26T14:39:28Z</time>
      </trkpt>
      <trkpt lat="42.81396" lon="-0.58311">
        <ele>1379.148438</ele>
        <time>2012-07-26T14:39:46Z</time>
      </trkpt>
      <trkpt lat="42.8139" lon="-0.58303">
        <ele>1378.667969</ele>
        <time>2012-07-26T14:39:58Z</time>
      </trkpt>
      <trkpt lat="42.8138" lon="-0.58293">
        <ele>1375.783936</ele>
        <time>2012-07-26T14:40:16Z</time>
      </trkpt>
      <trkpt lat="42.81387" lon="-0.58294">
        <ele>1373.861328</ele>
        <time>2012-07-26T14:40:23Z</time>
      </trkpt>
      <trkpt lat="42.81387" lon="-0.58285">
        <ele>1370.496582</ele>
        <time>2012-07-26T14:40:31Z</time>
      </trkpt>
      <trkpt lat="42.81393" lon="-0.58268">
        <ele>1368.573975</ele>
        <time>2012-07-26T14:40:47Z</time>
      </trkpt>
      <trkpt lat="42.81397" lon="-0.58266">
        <ele>1367.612549</ele>
        <time>2012-07-26T14:40:50Z</time>
      </trkpt>
      <trkpt lat="42.81399" lon="-0.58264">
        <ele>1367.13208</ele>
        <time>2012-07-26T14:40:52Z</time>
      </trkpt>
      <trkpt lat="42.81407" lon="-0.58257">
        <ele>1366.170654</ele>
        <time>2012-07-26T14:41:05Z</time>
      </trkpt>
      <trkpt lat="42.8141" lon="-0.58252">
        <ele>1364.248047</ele>
        <time>2012-07-26T14:41:15Z</time>
      </trkpt>
      <trkpt lat="42.81415" lon="-0.58241">
        <ele>1362.806152</ele>
        <time>2012-07-26T14:41:27Z</time>
      </trkpt>
      <trkpt lat="42.81418" lon="-0.58242">
        <ele>1363.286865</ele>
        <time>2012-07-26T14:41:59Z</time>
      </trkpt>
      <trkpt lat="42.814" lon="-0.58224">
        <ele>1362.325439</ele>
        <time>2012-07-26T14:43:45Z</time>
      </trkpt>
      <trkpt lat="42.81377" lon="-0.58225">
        <ele>1360.883545</ele>
        <time>2012-07-26T14:44:06Z</time>
      </trkpt>
      <trkpt lat="42.81388" lon="-0.58243">
        <ele>1360.883545</ele>
        <time>2012-07-26T14:44:16Z</time>
      </trkpt>
      <trkpt lat="42.81389" lon="-0.58253">
        <ele>1361.364258</ele>
        <time>2012-07-26T14:44:29Z</time>
      </trkpt>
      <trkpt lat="42.81389" lon="-0.58251">
        <ele>1359.922119</ele>
        <time>2012-07-26T14:44:48Z</time>
      </trkpt>
      <trkpt lat="42.81378" lon="-0.58239">
        <ele>1359.922119</ele>
        <time>2012-07-26T14:46:00Z</time>
      </trkpt>
      <trkpt lat="42.81379" lon="-0.58239">
        <ele>1358.960938</ele>
        <time>2012-07-26T14:46:18Z</time>
      </trkpt>
      <trkpt lat="42.81379" lon="-0.58232">
        <ele>1358.480225</ele>
        <time>2012-07-26T14:46:24Z</time>
      </trkpt>
      <trkpt lat="42.81397" lon="-0.58219">
        <ele>1356.557617</ele>
        <time>2012-07-26T14:46:46Z</time>
      </trkpt>
      <trkpt lat="42.81399" lon="-0.58218">
        <ele>1356.076904</ele>
        <time>2012-07-26T14:46:48Z</time>
      </trkpt>
      <trkpt lat="42.81416" lon="-0.58204">
        <ele>1354.634766</ele>
        <time>2012-07-26T14:47:07Z</time>
      </trkpt>
      <trkpt lat="42.81429" lon="-0.58192">
        <ele>1353.673584</ele>
        <time>2012-07-26T14:47:22Z</time>
      </trkpt>
      <trkpt lat="42.81441" lon="-0.58184">
        <ele>1352.231445</ele>
        <time>2012-07-26T14:47:36Z</time>
      </trkpt>
      <trkpt lat="42.81452" lon="-0.5817">
        <ele>1351.270264</ele>
        <time>2012-07-26T14:47:50Z</time>
      </trkpt>
      <trkpt lat="42.81456" lon="-0.58132">
        <ele>1348.866943</ele>
        <time>2012-07-26T14:48:12Z</time>
      </trkpt>
      <trkpt lat="42.81463" lon="-0.58115">
        <ele>1346.944336</ele>
        <time>2012-07-26T14:48:27Z</time>
      </trkpt>
      <trkpt lat="42.81474" lon="-0.58086">
        <ele>1345.021729</ele>
        <time>2012-07-26T14:48:48Z</time>
      </trkpt>
      <trkpt lat="42.81481" lon="-0.58058">
        <ele>1343.579834</ele>
        <time>2012-07-26T14:49:08Z</time>
      </trkpt>
      <trkpt lat="42.81481" lon="-0.58033">
        <ele>1341.657227</ele>
        <time>2012-07-26T14:49:25Z</time>
      </trkpt>
      <trkpt lat="42.81488" lon="-0.58022">
        <ele>1340.215332</ele>
        <time>2012-07-26T14:49:35Z</time>
      </trkpt>
      <trkpt lat="42.81499" lon="-0.58005">
        <ele>1338.29248</ele>
        <time>2012-07-26T14:49:52Z</time>
      </trkpt>
      <trkpt lat="42.81498" lon="-0.5798">
        <ele>1336.369873</ele>
        <time>2012-07-26T14:50:09Z</time>
      </trkpt>
      <trkpt lat="42.81511" lon="-0.57958">
        <ele>1333.966553</ele>
        <time>2012-07-26T14:50:30Z</time>
      </trkpt>
      <trkpt lat="42.81519" lon="-0.5795">
        <ele>1332.524658</ele>
        <time>2012-07-26T14:50:39Z</time>
      </trkpt>
      <trkpt lat="42.81525" lon="-0.57945">
        <ele>1332.524658</ele>
        <time>2012-07-26T14:50:44Z</time>
      </trkpt>
      <trkpt lat="42.81536" lon="-0.57926">
        <ele>1330.602051</ele>
        <time>2012-07-26T14:51:01Z</time>
      </trkpt>
      <trkpt lat="42.81541" lon="-0.57917">
        <ele>1330.602051</ele>
        <time>2012-07-26T14:51:09Z</time>
      </trkpt>
      <trkpt lat="42.81542" lon="-0.57911">
        <ele>1330.121338</ele>
        <time>2012-07-26T14:51:13Z</time>
      </trkpt>
      <trkpt lat="42.81551" lon="-0.57889">
        <ele>1329.640625</ele>
        <time>2012-07-26T14:51:28Z</time>
      </trkpt>
      <trkpt lat="42.81554" lon="-0.57886">
        <ele>1328.679443</ele>
        <time>2012-07-26T14:51:31Z</time>
      </trkpt>
      <trkpt lat="42.81571" lon="-0.5787">
        <ele>1327.718018</ele>
        <time>2012-07-26T14:51:51Z</time>
      </trkpt>
      <trkpt lat="42.81571" lon="-0.57868">
        <ele>1327.718018</ele>
        <time>2012-07-26T14:51:52Z</time>
      </trkpt>
      <trkpt lat="42.81562" lon="-0.57856">
        <ele>1327.237549</ele>
        <time>2012-07-26T14:52:03Z</time>
      </trkpt>
      <trkpt lat="42.81559" lon="-0.57855">
        <ele>1327.237549</ele>
        <time>2012-07-26T14:52:05Z</time>
      </trkpt>
      <trkpt lat="42.81541" lon="-0.57862">
        <ele>1325.79541</ele>
        <time>2012-07-26T14:52:22Z</time>
      </trkpt>
      <trkpt lat="42.81527" lon="-0.57884">
        <ele>1323.39209</ele>
        <time>2012-07-26T14:52:42Z</time>
      </trkpt>
      <trkpt lat="42.81513" lon="-0.57888">
        <ele>1322.430664</ele>
        <time>2012-07-26T14:52:59Z</time>
      </trkpt>
      <trkpt lat="42.81497" lon="-0.57901">
        <ele>1321.469238</ele>
        <time>2012-07-26T14:53:15Z</time>
      </trkpt>
      <trkpt lat="42.81496" lon="-0.57903">
        <ele>1320.98877</ele>
        <time>2012-07-26T14:53:17Z</time>
      </trkpt>
      <trkpt lat="42.8148" lon="-0.57921">
        <ele>1320.027344</ele>
        <time>2012-07-26T14:53:35Z</time>
      </trkpt>
      <trkpt lat="42.81464" lon="-0.57939">
        <ele>1319.546875</ele>
        <time>2012-07-26T14:53:54Z</time>
      </trkpt>
      <trkpt lat="42.81448" lon="-0.57953">
        <ele>1317.624023</ele>
        <time>2012-07-26T14:54:14Z</time>
      </trkpt>
      <trkpt lat="42.81436" lon="-0.57966">
        <ele>1317.143555</ele>
        <time>2012-07-26T14:54:29Z</time>
      </trkpt>
      <trkpt lat="42.81418" lon="-0.5798">
        <ele>1315.70166</ele>
        <time>2012-07-26T14:54:49Z</time>
      </trkpt>
      <trkpt lat="42.81404" lon="-0.57984">
        <ele>1315.70166</ele>
        <time>2012-07-26T14:55:03Z</time>
      </trkpt>
      <trkpt lat="42.81388" lon="-0.57994">
        <ele>1314.740234</ele>
        <time>2012-07-26T14:55:23Z</time>
      </trkpt>
      <trkpt lat="42.8139" lon="-0.57997">
        <ele>1315.220947</ele>
        <time>2012-07-26T14:55:25Z</time>
      </trkpt>
      <trkpt lat="42.81394" lon="-0.57997">
        <ele>1313.778809</ele>
        <time>2012-07-26T14:55:31Z</time>
      </trkpt>
      <trkpt lat="42.81401" lon="-0.57996">
        <ele>1312.336914</ele>
        <time>2012-07-26T14:55:38Z</time>
      </trkpt>
      <trkpt lat="42.81422" lon="-0.57984">
        <ele>1309.453125</ele>
        <time>2012-07-26T14:55:57Z</time>
      </trkpt>
      <trkpt lat="42.81424" lon="-0.5798">
        <ele>1308.01123</ele>
        <time>2012-07-26T14:56:01Z</time>
      </trkpt>
      <trkpt lat="42.81417" lon="-0.57974">
        <ele>1307.530273</ele>
        <time>2012-07-26T14:56:07Z</time>
      </trkpt>
    </trkseg>
  </trk>
</gpx>